<?xml version="1.0" encoding="UTF-8" standalone="no" ?>
<gpx xmlns="http://www.topografix.com/GPX/1/1" xmlns:xsi="http://www.w3.org/2001/XMLSchema-instance" xsi:schemaLocation="http://www.topografix.com/GPX/1/1 http://www.topografix.com/GPX/1/1/gpx.xsd" version="1.1" creator="VisuGPX - https://www.visugpx.com">
  <metadata>
    <name>GRAND COLOMBIER  (JURA)</name>
    <desc><![CDATA[Belle randonnée avec une vue remarquable à 360°]]></desc>
  </metadata>
  <trk>
    <name><![CDATA[2022-05-12 15:39:28]]></name>
    <trkseg>
      <trkpt lat="45.852" lon="5.75959">
        <ele>234.22</ele>
        <time>2022-05-12T06:40:29Z</time>
      </trkpt>
      <trkpt lat="45.852" lon="5.75959">
        <ele>237.1</ele>
        <time>2022-05-12T06:40:33Z</time>
      </trkpt>
      <trkpt lat="45.852" lon="5.75959">
        <ele>239.02</ele>
        <time>2022-05-12T06:41:21Z</time>
      </trkpt>
      <trkpt lat="45.852" lon="5.7596">
        <ele>236.62</ele>
        <time>2022-05-12T06:41:32Z</time>
      </trkpt>
      <trkpt lat="45.852" lon="5.7596">
        <ele>236.62</ele>
        <time>2022-05-12T06:42:01Z</time>
      </trkpt>
      <trkpt lat="45.852" lon="5.7596">
        <ele>236.62</ele>
        <time>2022-05-12T06:42:23Z</time>
      </trkpt>
      <trkpt lat="45.852" lon="5.7596">
        <ele>236.62</ele>
        <time>2022-05-12T06:42:49Z</time>
      </trkpt>
      <trkpt lat="45.852" lon="5.7596">
        <ele>236.62</ele>
        <time>2022-05-12T06:43:31Z</time>
      </trkpt>
      <trkpt lat="45.85201" lon="5.75957">
        <ele>236.62</ele>
        <time>2022-05-12T06:43:53Z</time>
      </trkpt>
      <trkpt lat="45.85203" lon="5.75958">
        <ele>236.62</ele>
        <time>2022-05-12T06:44:24Z</time>
      </trkpt>
      <trkpt lat="45.85203" lon="5.75962">
        <ele>236.62</ele>
        <time>2022-05-12T06:44:49Z</time>
      </trkpt>
      <trkpt lat="45.85202" lon="5.75962">
        <ele>236.62</ele>
        <time>2022-05-12T06:45:17Z</time>
      </trkpt>
      <trkpt lat="45.852" lon="5.7596">
        <ele>236.62</ele>
        <time>2022-05-12T06:45:41Z</time>
      </trkpt>
      <trkpt lat="45.8521" lon="5.75973">
        <ele>237.58</ele>
        <time>2022-05-12T06:45:58Z</time>
      </trkpt>
      <trkpt lat="45.85236" lon="5.7597">
        <ele>239.99</ele>
        <time>2022-05-12T06:46:18Z</time>
      </trkpt>
      <trkpt lat="45.85255" lon="5.75954">
        <ele>242.39</ele>
        <time>2022-05-12T06:46:35Z</time>
      </trkpt>
      <trkpt lat="45.85265" lon="5.75934">
        <ele>243.35</ele>
        <time>2022-05-12T06:46:51Z</time>
      </trkpt>
      <trkpt lat="45.85266" lon="5.7593">
        <ele>243.35</ele>
        <time>2022-05-12T06:46:54Z</time>
      </trkpt>
      <trkpt lat="45.85275" lon="5.75909">
        <ele>244.79</ele>
        <time>2022-05-12T06:47:09Z</time>
      </trkpt>
      <trkpt lat="45.85276" lon="5.75908">
        <ele>244.79</ele>
        <time>2022-05-12T06:47:10Z</time>
      </trkpt>
      <trkpt lat="45.85287" lon="5.7589">
        <ele>246.23</ele>
        <time>2022-05-12T06:47:24Z</time>
      </trkpt>
      <trkpt lat="45.85294" lon="5.75877">
        <ele>247.68</ele>
        <time>2022-05-12T06:47:34Z</time>
      </trkpt>
      <trkpt lat="45.85294" lon="5.75876">
        <ele>247.68</ele>
        <time>2022-05-12T06:47:35Z</time>
      </trkpt>
      <trkpt lat="45.85295" lon="5.75874">
        <ele>248.16</ele>
        <time>2022-05-12T06:47:36Z</time>
      </trkpt>
      <trkpt lat="45.85296" lon="5.75872">
        <ele>248.16</ele>
        <time>2022-05-12T06:47:38Z</time>
      </trkpt>
      <trkpt lat="45.85297" lon="5.7587">
        <ele>248.64</ele>
        <time>2022-05-12T06:47:39Z</time>
      </trkpt>
      <trkpt lat="45.85298" lon="5.75869">
        <ele>248.64</ele>
        <time>2022-05-12T06:47:40Z</time>
      </trkpt>
      <trkpt lat="45.85309" lon="5.7585">
        <ele>250.56</ele>
        <time>2022-05-12T06:47:56Z</time>
      </trkpt>
      <trkpt lat="45.85311" lon="5.75844">
        <ele>251.52</ele>
        <time>2022-05-12T06:48:01Z</time>
      </trkpt>
      <trkpt lat="45.85314" lon="5.75839">
        <ele>252</ele>
        <time>2022-05-12T06:48:05Z</time>
      </trkpt>
      <trkpt lat="45.85325" lon="5.75817">
        <ele>254.89</ele>
        <time>2022-05-12T06:48:23Z</time>
      </trkpt>
      <trkpt lat="45.85336" lon="5.75798">
        <ele>255.85</ele>
        <time>2022-05-12T06:48:39Z</time>
      </trkpt>
      <trkpt lat="45.85338" lon="5.75794">
        <ele>255.85</ele>
        <time>2022-05-12T06:48:42Z</time>
      </trkpt>
      <trkpt lat="45.85349" lon="5.75771">
        <ele>259.21</ele>
        <time>2022-05-12T06:49:01Z</time>
      </trkpt>
      <trkpt lat="45.85349" lon="5.7577">
        <ele>259.21</ele>
        <time>2022-05-12T06:49:02Z</time>
      </trkpt>
      <trkpt lat="45.85351" lon="5.75766">
        <ele>259.69</ele>
        <time>2022-05-12T06:49:06Z</time>
      </trkpt>
      <trkpt lat="45.8536" lon="5.75748">
        <ele>260.65</ele>
        <time>2022-05-12T06:49:21Z</time>
      </trkpt>
      <trkpt lat="45.85365" lon="5.75725">
        <ele>263.54</ele>
        <time>2022-05-12T06:49:38Z</time>
      </trkpt>
      <trkpt lat="45.85369" lon="5.75711">
        <ele>264.5</ele>
        <time>2022-05-12T06:49:52Z</time>
      </trkpt>
      <trkpt lat="45.85369" lon="5.75704">
        <ele>264.98</ele>
        <time>2022-05-12T06:49:57Z</time>
      </trkpt>
      <trkpt lat="45.85371" lon="5.75698">
        <ele>265.46</ele>
        <time>2022-05-12T06:50:01Z</time>
      </trkpt>
      <trkpt lat="45.85373" lon="5.75672">
        <ele>267.38</ele>
        <time>2022-05-12T06:50:18Z</time>
      </trkpt>
      <trkpt lat="45.85371" lon="5.75652">
        <ele>269.31</ele>
        <time>2022-05-12T06:50:32Z</time>
      </trkpt>
      <trkpt lat="45.85374" lon="5.75632">
        <ele>271.23</ele>
        <time>2022-05-12T06:50:47Z</time>
      </trkpt>
      <trkpt lat="45.85377" lon="5.75627">
        <ele>271.71</ele>
        <time>2022-05-12T06:50:53Z</time>
      </trkpt>
      <trkpt lat="45.85392" lon="5.75611">
        <ele>274.11</ele>
        <time>2022-05-12T06:51:10Z</time>
      </trkpt>
      <trkpt lat="45.85392" lon="5.75608">
        <ele>274.11</ele>
        <time>2022-05-12T06:51:11Z</time>
      </trkpt>
      <trkpt lat="45.85408" lon="5.75583">
        <ele>276.04</ele>
        <time>2022-05-12T06:51:29Z</time>
      </trkpt>
      <trkpt lat="45.8541" lon="5.75581">
        <ele>276.04</ele>
        <time>2022-05-12T06:51:31Z</time>
      </trkpt>
      <trkpt lat="45.85412" lon="5.75578">
        <ele>276.04</ele>
        <time>2022-05-12T06:51:34Z</time>
      </trkpt>
      <trkpt lat="45.85413" lon="5.75577">
        <ele>276.04</ele>
        <time>2022-05-12T06:51:35Z</time>
      </trkpt>
      <trkpt lat="45.85414" lon="5.75575">
        <ele>276.04</ele>
        <time>2022-05-12T06:51:36Z</time>
      </trkpt>
      <trkpt lat="45.85414" lon="5.75574">
        <ele>276.04</ele>
        <time>2022-05-12T06:51:37Z</time>
      </trkpt>
      <trkpt lat="45.85415" lon="5.75573">
        <ele>276.04</ele>
        <time>2022-05-12T06:51:38Z</time>
      </trkpt>
      <trkpt lat="45.8542" lon="5.75567">
        <ele>276.04</ele>
        <time>2022-05-12T06:51:43Z</time>
      </trkpt>
      <trkpt lat="45.85421" lon="5.75567">
        <ele>276.04</ele>
        <time>2022-05-12T06:51:44Z</time>
      </trkpt>
      <trkpt lat="45.85447" lon="5.75555">
        <ele>275.56</ele>
        <time>2022-05-12T06:52:04Z</time>
      </trkpt>
      <trkpt lat="45.85461" lon="5.75548">
        <ele>275.07</ele>
        <time>2022-05-12T06:52:15Z</time>
      </trkpt>
      <trkpt lat="45.85486" lon="5.75533">
        <ele>273.63</ele>
        <time>2022-05-12T06:52:37Z</time>
      </trkpt>
      <trkpt lat="45.85503" lon="5.75519">
        <ele>274.11</ele>
        <time>2022-05-12T06:52:56Z</time>
      </trkpt>
      <trkpt lat="45.85515" lon="5.75502">
        <ele>274.59</ele>
        <time>2022-05-12T06:53:09Z</time>
      </trkpt>
      <trkpt lat="45.85516" lon="5.755">
        <ele>274.59</ele>
        <time>2022-05-12T06:53:10Z</time>
      </trkpt>
      <trkpt lat="45.85518" lon="5.75498">
        <ele>274.59</ele>
        <time>2022-05-12T06:53:11Z</time>
      </trkpt>
      <trkpt lat="45.85519" lon="5.75497">
        <ele>274.59</ele>
        <time>2022-05-12T06:53:12Z</time>
      </trkpt>
      <trkpt lat="45.85521" lon="5.75495">
        <ele>274.59</ele>
        <time>2022-05-12T06:53:13Z</time>
      </trkpt>
      <trkpt lat="45.85522" lon="5.75494">
        <ele>274.59</ele>
        <time>2022-05-12T06:53:14Z</time>
      </trkpt>
      <trkpt lat="45.85524" lon="5.75493">
        <ele>274.59</ele>
        <time>2022-05-12T06:53:15Z</time>
      </trkpt>
      <trkpt lat="45.85525" lon="5.75492">
        <ele>274.11</ele>
        <time>2022-05-12T06:53:16Z</time>
      </trkpt>
      <trkpt lat="45.85527" lon="5.7549">
        <ele>274.11</ele>
        <time>2022-05-12T06:53:17Z</time>
      </trkpt>
      <trkpt lat="45.85528" lon="5.75489">
        <ele>274.11</ele>
        <time>2022-05-12T06:53:18Z</time>
      </trkpt>
      <trkpt lat="45.85541" lon="5.75466">
        <ele>274.11</ele>
        <time>2022-05-12T06:53:33Z</time>
      </trkpt>
      <trkpt lat="45.85563" lon="5.75445">
        <ele>273.63</ele>
        <time>2022-05-12T06:53:52Z</time>
      </trkpt>
      <trkpt lat="45.85579" lon="5.75418">
        <ele>275.56</ele>
        <time>2022-05-12T06:54:13Z</time>
      </trkpt>
      <trkpt lat="45.85598" lon="5.75392">
        <ele>277</ele>
        <time>2022-05-12T06:54:33Z</time>
      </trkpt>
      <trkpt lat="45.85612" lon="5.75372">
        <ele>279.4</ele>
        <time>2022-05-12T06:54:51Z</time>
      </trkpt>
      <trkpt lat="45.8563" lon="5.75345">
        <ele>281.8</ele>
        <time>2022-05-12T06:55:13Z</time>
      </trkpt>
      <trkpt lat="45.85637" lon="5.75333">
        <ele>282.77</ele>
        <time>2022-05-12T06:55:22Z</time>
      </trkpt>
      <trkpt lat="45.85647" lon="5.75317">
        <ele>284.21</ele>
        <time>2022-05-12T06:55:36Z</time>
      </trkpt>
      <trkpt lat="45.85658" lon="5.75281">
        <ele>287.09</ele>
        <time>2022-05-12T06:55:59Z</time>
      </trkpt>
      <trkpt lat="45.85673" lon="5.75248">
        <ele>290.46</ele>
        <time>2022-05-12T06:56:22Z</time>
      </trkpt>
      <trkpt lat="45.85673" lon="5.75247">
        <ele>290.94</ele>
        <time>2022-05-12T06:56:23Z</time>
      </trkpt>
      <trkpt lat="45.85676" lon="5.75232">
        <ele>291.42</ele>
        <time>2022-05-12T06:56:32Z</time>
      </trkpt>
      <trkpt lat="45.85671" lon="5.75194">
        <ele>293.34</ele>
        <time>2022-05-12T06:56:58Z</time>
      </trkpt>
      <trkpt lat="45.85671" lon="5.75163">
        <ele>294.78</ele>
        <time>2022-05-12T06:57:15Z</time>
      </trkpt>
      <trkpt lat="45.8567" lon="5.75134">
        <ele>295.26</ele>
        <time>2022-05-12T06:57:30Z</time>
      </trkpt>
      <trkpt lat="45.85671" lon="5.75131">
        <ele>295.26</ele>
        <time>2022-05-12T06:57:32Z</time>
      </trkpt>
      <trkpt lat="45.85671" lon="5.7513">
        <ele>295.26</ele>
        <time>2022-05-12T06:57:33Z</time>
      </trkpt>
      <trkpt lat="45.85672" lon="5.75128">
        <ele>295.26</ele>
        <time>2022-05-12T06:57:34Z</time>
      </trkpt>
      <trkpt lat="45.85672" lon="5.75126">
        <ele>295.26</ele>
        <time>2022-05-12T06:57:35Z</time>
      </trkpt>
      <trkpt lat="45.85673" lon="5.75124">
        <ele>295.26</ele>
        <time>2022-05-12T06:57:36Z</time>
      </trkpt>
      <trkpt lat="45.85684" lon="5.75098">
        <ele>296.22</ele>
        <time>2022-05-12T06:57:52Z</time>
      </trkpt>
      <trkpt lat="45.85697" lon="5.75075">
        <ele>298.15</ele>
        <time>2022-05-12T06:58:09Z</time>
      </trkpt>
      <trkpt lat="45.85698" lon="5.75073">
        <ele>298.63</ele>
        <time>2022-05-12T06:58:11Z</time>
      </trkpt>
      <trkpt lat="45.85699" lon="5.75072">
        <ele>298.63</ele>
        <time>2022-05-12T06:58:12Z</time>
      </trkpt>
      <trkpt lat="45.857" lon="5.75071">
        <ele>298.63</ele>
        <time>2022-05-12T06:58:13Z</time>
      </trkpt>
      <trkpt lat="45.85701" lon="5.7507">
        <ele>298.63</ele>
        <time>2022-05-12T06:58:14Z</time>
      </trkpt>
      <trkpt lat="45.85702" lon="5.75069">
        <ele>299.11</ele>
        <time>2022-05-12T06:58:15Z</time>
      </trkpt>
      <trkpt lat="45.85703" lon="5.75068">
        <ele>299.11</ele>
        <time>2022-05-12T06:58:16Z</time>
      </trkpt>
      <trkpt lat="45.85704" lon="5.75067">
        <ele>299.11</ele>
        <time>2022-05-12T06:58:17Z</time>
      </trkpt>
      <trkpt lat="45.85718" lon="5.75053">
        <ele>301.03</ele>
        <time>2022-05-12T06:58:34Z</time>
      </trkpt>
      <trkpt lat="45.85734" lon="5.75041">
        <ele>302.95</ele>
        <time>2022-05-12T06:58:53Z</time>
      </trkpt>
      <trkpt lat="45.85736" lon="5.75041">
        <ele>303.43</ele>
        <time>2022-05-12T06:58:54Z</time>
      </trkpt>
      <trkpt lat="45.85751" lon="5.75034">
        <ele>305.36</ele>
        <time>2022-05-12T06:59:09Z</time>
      </trkpt>
      <trkpt lat="45.85753" lon="5.75033">
        <ele>305.36</ele>
        <time>2022-05-12T06:59:10Z</time>
      </trkpt>
      <trkpt lat="45.85758" lon="5.7503">
        <ele>305.84</ele>
        <time>2022-05-12T06:59:14Z</time>
      </trkpt>
      <trkpt lat="45.85758" lon="5.75028">
        <ele>305.84</ele>
        <time>2022-05-12T06:59:15Z</time>
      </trkpt>
      <trkpt lat="45.85759" lon="5.75027">
        <ele>305.84</ele>
        <time>2022-05-12T06:59:16Z</time>
      </trkpt>
      <trkpt lat="45.85775" lon="5.75016">
        <ele>308.24</ele>
        <time>2022-05-12T06:59:33Z</time>
      </trkpt>
      <trkpt lat="45.8578" lon="5.7501">
        <ele>309.2</ele>
        <time>2022-05-12T06:59:42Z</time>
      </trkpt>
      <trkpt lat="45.85788" lon="5.75001">
        <ele>310.16</ele>
        <time>2022-05-12T06:59:55Z</time>
      </trkpt>
      <trkpt lat="45.85791" lon="5.75">
        <ele>310.16</ele>
        <time>2022-05-12T06:59:58Z</time>
      </trkpt>
      <trkpt lat="45.85807" lon="5.74992">
        <ele>312.57</ele>
        <time>2022-05-12T07:00:15Z</time>
      </trkpt>
      <trkpt lat="45.85827" lon="5.74964">
        <ele>315.45</ele>
        <time>2022-05-12T07:00:37Z</time>
      </trkpt>
      <trkpt lat="45.85837" lon="5.74937">
        <ele>317.85</ele>
        <time>2022-05-12T07:00:57Z</time>
      </trkpt>
      <trkpt lat="45.85846" lon="5.74911">
        <ele>320.26</ele>
        <time>2022-05-12T07:01:16Z</time>
      </trkpt>
      <trkpt lat="45.85846" lon="5.74905">
        <ele>320.26</ele>
        <time>2022-05-12T07:01:19Z</time>
      </trkpt>
      <trkpt lat="45.85855" lon="5.74876">
        <ele>322.66</ele>
        <time>2022-05-12T07:01:39Z</time>
      </trkpt>
      <trkpt lat="45.85857" lon="5.7487">
        <ele>318.81</ele>
        <time>2022-05-12T07:01:44Z</time>
      </trkpt>
      <trkpt lat="45.85858" lon="5.74868">
        <ele>313.53</ele>
        <time>2022-05-12T07:01:45Z</time>
      </trkpt>
      <trkpt lat="45.85858" lon="5.74868">
        <ele>309.68</ele>
        <time>2022-05-12T07:01:46Z</time>
      </trkpt>
      <trkpt lat="45.85861" lon="5.74859">
        <ele>314.49</ele>
        <time>2022-05-12T07:01:52Z</time>
      </trkpt>
      <trkpt lat="45.85862" lon="5.74857">
        <ele>318.33</ele>
        <time>2022-05-12T07:01:54Z</time>
      </trkpt>
      <trkpt lat="45.85863" lon="5.74854">
        <ele>322.18</ele>
        <time>2022-05-12T07:01:56Z</time>
      </trkpt>
      <trkpt lat="45.85864" lon="5.74852">
        <ele>326.02</ele>
        <time>2022-05-12T07:01:57Z</time>
      </trkpt>
      <trkpt lat="45.85864" lon="5.74851">
        <ele>330.83</ele>
        <time>2022-05-12T07:01:58Z</time>
      </trkpt>
      <trkpt lat="45.85865" lon="5.7485">
        <ele>334.2</ele>
        <time>2022-05-12T07:01:59Z</time>
      </trkpt>
      <trkpt lat="45.85867" lon="5.74845">
        <ele>336.6</ele>
        <time>2022-05-12T07:02:02Z</time>
      </trkpt>
      <trkpt lat="45.85869" lon="5.74841">
        <ele>332.75</ele>
        <time>2022-05-12T07:02:05Z</time>
      </trkpt>
      <trkpt lat="45.85872" lon="5.74836">
        <ele>329.87</ele>
        <time>2022-05-12T07:02:09Z</time>
      </trkpt>
      <trkpt lat="45.8588" lon="5.74829">
        <ele>327.95</ele>
        <time>2022-05-12T07:02:18Z</time>
      </trkpt>
      <trkpt lat="45.85881" lon="5.74829">
        <ele>327.95</ele>
        <time>2022-05-12T07:02:19Z</time>
      </trkpt>
      <trkpt lat="45.85882" lon="5.74828">
        <ele>327.95</ele>
        <time>2022-05-12T07:02:20Z</time>
      </trkpt>
      <trkpt lat="45.85898" lon="5.74827">
        <ele>328.43</ele>
        <time>2022-05-12T07:02:36Z</time>
      </trkpt>
      <trkpt lat="45.85913" lon="5.74812">
        <ele>330.83</ele>
        <time>2022-05-12T07:02:54Z</time>
      </trkpt>
      <trkpt lat="45.85926" lon="5.74786">
        <ele>333.71</ele>
        <time>2022-05-12T07:03:15Z</time>
      </trkpt>
      <trkpt lat="45.85936" lon="5.74753">
        <ele>336.6</ele>
        <time>2022-05-12T07:03:38Z</time>
      </trkpt>
      <trkpt lat="45.85942" lon="5.74737">
        <ele>337.56</ele>
        <time>2022-05-12T07:03:50Z</time>
      </trkpt>
      <trkpt lat="45.85952" lon="5.7472">
        <ele>339</ele>
        <time>2022-05-12T07:04:04Z</time>
      </trkpt>
      <trkpt lat="45.85963" lon="5.74705">
        <ele>340.92</ele>
        <time>2022-05-12T07:04:19Z</time>
      </trkpt>
      <trkpt lat="45.85973" lon="5.74692">
        <ele>342.37</ele>
        <time>2022-05-12T07:04:34Z</time>
      </trkpt>
      <trkpt lat="45.85982" lon="5.74669">
        <ele>344.29</ele>
        <time>2022-05-12T07:04:50Z</time>
      </trkpt>
      <trkpt lat="45.85993" lon="5.74658">
        <ele>346.21</ele>
        <time>2022-05-12T07:05:05Z</time>
      </trkpt>
      <trkpt lat="45.8601" lon="5.74648">
        <ele>348.62</ele>
        <time>2022-05-12T07:05:25Z</time>
      </trkpt>
      <trkpt lat="45.86025" lon="5.74636">
        <ele>351.5</ele>
        <time>2022-05-12T07:05:43Z</time>
      </trkpt>
      <trkpt lat="45.86038" lon="5.74628">
        <ele>353.42</ele>
        <time>2022-05-12T07:05:57Z</time>
      </trkpt>
      <trkpt lat="45.86049" lon="5.74617">
        <ele>355.34</ele>
        <time>2022-05-12T07:06:11Z</time>
      </trkpt>
      <trkpt lat="45.86064" lon="5.74605">
        <ele>357.27</ele>
        <time>2022-05-12T07:06:27Z</time>
      </trkpt>
      <trkpt lat="45.86075" lon="5.74596">
        <ele>358.71</ele>
        <time>2022-05-12T07:06:40Z</time>
      </trkpt>
      <trkpt lat="45.86086" lon="5.7459">
        <ele>360.63</ele>
        <time>2022-05-12T07:06:53Z</time>
      </trkpt>
      <trkpt lat="45.86088" lon="5.74582">
        <ele>360.63</ele>
        <time>2022-05-12T07:07:10Z</time>
      </trkpt>
      <trkpt lat="45.86088" lon="5.74582">
        <ele>360.15</ele>
        <time>2022-05-12T07:07:36Z</time>
      </trkpt>
      <trkpt lat="45.86088" lon="5.74583">
        <ele>360.15</ele>
        <time>2022-05-12T07:08:08Z</time>
      </trkpt>
      <trkpt lat="45.86088" lon="5.74584">
        <ele>360.15</ele>
        <time>2022-05-12T07:08:24Z</time>
      </trkpt>
      <trkpt lat="45.8609" lon="5.74586">
        <ele>359.67</ele>
        <time>2022-05-12T07:08:40Z</time>
      </trkpt>
      <trkpt lat="45.86091" lon="5.74584">
        <ele>359.67</ele>
        <time>2022-05-12T07:08:59Z</time>
      </trkpt>
      <trkpt lat="45.8609" lon="5.74583">
        <ele>359.67</ele>
        <time>2022-05-12T07:09:28Z</time>
      </trkpt>
      <trkpt lat="45.86092" lon="5.74581">
        <ele>359.67</ele>
        <time>2022-05-12T07:09:48Z</time>
      </trkpt>
      <trkpt lat="45.86096" lon="5.74576">
        <ele>359.67</ele>
        <time>2022-05-12T07:09:53Z</time>
      </trkpt>
      <trkpt lat="45.86097" lon="5.74576">
        <ele>359.67</ele>
        <time>2022-05-12T07:09:54Z</time>
      </trkpt>
      <trkpt lat="45.8611" lon="5.74572">
        <ele>359.19</ele>
        <time>2022-05-12T07:10:07Z</time>
      </trkpt>
      <trkpt lat="45.8611" lon="5.74562">
        <ele>360.15</ele>
        <time>2022-05-12T07:10:14Z</time>
      </trkpt>
      <trkpt lat="45.86111" lon="5.74558">
        <ele>360.63</ele>
        <time>2022-05-12T07:10:33Z</time>
      </trkpt>
      <trkpt lat="45.86116" lon="5.74556">
        <ele>360.63</ele>
        <time>2022-05-12T07:10:56Z</time>
      </trkpt>
      <trkpt lat="45.8613" lon="5.74545">
        <ele>359.19</ele>
        <time>2022-05-12T07:11:17Z</time>
      </trkpt>
      <trkpt lat="45.8615" lon="5.74544">
        <ele>361.59</ele>
        <time>2022-05-12T07:11:43Z</time>
      </trkpt>
      <trkpt lat="45.86157" lon="5.74547">
        <ele>363.04</ele>
        <time>2022-05-12T07:11:53Z</time>
      </trkpt>
      <trkpt lat="45.86163" lon="5.74552">
        <ele>365.92</ele>
        <time>2022-05-12T07:12:12Z</time>
      </trkpt>
      <trkpt lat="45.86168" lon="5.74551">
        <ele>368.8</ele>
        <time>2022-05-12T07:12:27Z</time>
      </trkpt>
      <trkpt lat="45.86171" lon="5.74552">
        <ele>372.17</ele>
        <time>2022-05-12T07:12:42Z</time>
      </trkpt>
      <trkpt lat="45.86173" lon="5.74559">
        <ele>373.13</ele>
        <time>2022-05-12T07:12:49Z</time>
      </trkpt>
      <trkpt lat="45.86175" lon="5.74564">
        <ele>374.57</ele>
        <time>2022-05-12T07:12:54Z</time>
      </trkpt>
      <trkpt lat="45.86176" lon="5.74565">
        <ele>374.57</ele>
        <time>2022-05-12T07:12:55Z</time>
      </trkpt>
      <trkpt lat="45.86178" lon="5.74566">
        <ele>375.05</ele>
        <time>2022-05-12T07:12:58Z</time>
      </trkpt>
      <trkpt lat="45.86179" lon="5.74567">
        <ele>375.53</ele>
        <time>2022-05-12T07:12:59Z</time>
      </trkpt>
      <trkpt lat="45.86189" lon="5.74578">
        <ele>378.42</ele>
        <time>2022-05-12T07:13:15Z</time>
      </trkpt>
      <trkpt lat="45.8619" lon="5.74578">
        <ele>378.42</ele>
        <time>2022-05-12T07:13:16Z</time>
      </trkpt>
      <trkpt lat="45.86191" lon="5.74578">
        <ele>378.42</ele>
        <time>2022-05-12T07:13:17Z</time>
      </trkpt>
      <trkpt lat="45.86194" lon="5.74581">
        <ele>379.38</ele>
        <time>2022-05-12T07:13:22Z</time>
      </trkpt>
      <trkpt lat="45.86195" lon="5.74581">
        <ele>380.82</ele>
        <time>2022-05-12T07:13:26Z</time>
      </trkpt>
      <trkpt lat="45.86204" lon="5.7459">
        <ele>383.7</ele>
        <time>2022-05-12T07:13:44Z</time>
      </trkpt>
      <trkpt lat="45.86206" lon="5.74599">
        <ele>385.63</ele>
        <time>2022-05-12T07:13:53Z</time>
      </trkpt>
      <trkpt lat="45.86207" lon="5.74602">
        <ele>386.11</ele>
        <time>2022-05-12T07:13:56Z</time>
      </trkpt>
      <trkpt lat="45.86207" lon="5.74606">
        <ele>386.59</ele>
        <time>2022-05-12T07:13:58Z</time>
      </trkpt>
      <trkpt lat="45.86207" lon="5.74608">
        <ele>387.07</ele>
        <time>2022-05-12T07:14:00Z</time>
      </trkpt>
      <trkpt lat="45.86206" lon="5.74615">
        <ele>388.03</ele>
        <time>2022-05-12T07:14:06Z</time>
      </trkpt>
      <trkpt lat="45.86209" lon="5.74626">
        <ele>390.91</ele>
        <time>2022-05-12T07:14:25Z</time>
      </trkpt>
      <trkpt lat="45.86214" lon="5.74635">
        <ele>394.28</ele>
        <time>2022-05-12T07:14:41Z</time>
      </trkpt>
      <trkpt lat="45.86217" lon="5.74639">
        <ele>397.16</ele>
        <time>2022-05-12T07:14:56Z</time>
      </trkpt>
      <trkpt lat="45.86221" lon="5.7464">
        <ele>400.05</ele>
        <time>2022-05-12T07:15:11Z</time>
      </trkpt>
      <trkpt lat="45.86229" lon="5.74643">
        <ele>403.41</ele>
        <time>2022-05-12T07:15:32Z</time>
      </trkpt>
      <trkpt lat="45.86232" lon="5.74645">
        <ele>406.29</ele>
        <time>2022-05-12T07:15:53Z</time>
      </trkpt>
      <trkpt lat="45.86235" lon="5.74646">
        <ele>407.74</ele>
        <time>2022-05-12T07:16:00Z</time>
      </trkpt>
      <trkpt lat="45.86241" lon="5.74648">
        <ele>410.62</ele>
        <time>2022-05-12T07:16:16Z</time>
      </trkpt>
      <trkpt lat="45.86246" lon="5.74642">
        <ele>412.54</ele>
        <time>2022-05-12T07:16:24Z</time>
      </trkpt>
      <trkpt lat="45.8625" lon="5.7464">
        <ele>413.98</ele>
        <time>2022-05-12T07:16:31Z</time>
      </trkpt>
      <trkpt lat="45.86253" lon="5.74638">
        <ele>414.95</ele>
        <time>2022-05-12T07:16:36Z</time>
      </trkpt>
      <trkpt lat="45.86258" lon="5.74636">
        <ele>417.83</ele>
        <time>2022-05-12T07:16:52Z</time>
      </trkpt>
      <trkpt lat="45.86259" lon="5.74629">
        <ele>421.19</ele>
        <time>2022-05-12T07:17:07Z</time>
      </trkpt>
      <trkpt lat="45.86262" lon="5.74628">
        <ele>422.64</ele>
        <time>2022-05-12T07:17:16Z</time>
      </trkpt>
      <trkpt lat="45.86263" lon="5.74628">
        <ele>423.12</ele>
        <time>2022-05-12T07:17:17Z</time>
      </trkpt>
      <trkpt lat="45.86273" lon="5.74623">
        <ele>425.52</ele>
        <time>2022-05-12T07:17:32Z</time>
      </trkpt>
      <trkpt lat="45.86275" lon="5.74621">
        <ele>426</ele>
        <time>2022-05-12T07:17:35Z</time>
      </trkpt>
      <trkpt lat="45.86283" lon="5.74615">
        <ele>429.37</ele>
        <time>2022-05-12T07:17:52Z</time>
      </trkpt>
      <trkpt lat="45.86289" lon="5.74613">
        <ele>432.25</ele>
        <time>2022-05-12T07:18:06Z</time>
      </trkpt>
      <trkpt lat="45.86295" lon="5.74612">
        <ele>435.61</ele>
        <time>2022-05-12T07:18:23Z</time>
      </trkpt>
      <trkpt lat="45.86296" lon="5.74611">
        <ele>436.1</ele>
        <time>2022-05-12T07:18:27Z</time>
      </trkpt>
      <trkpt lat="45.86298" lon="5.74611">
        <ele>437.54</ele>
        <time>2022-05-12T07:18:43Z</time>
      </trkpt>
      <trkpt lat="45.86298" lon="5.74614">
        <ele>438.5</ele>
        <time>2022-05-12T07:18:49Z</time>
      </trkpt>
      <trkpt lat="45.86299" lon="5.74613">
        <ele>438.98</ele>
        <time>2022-05-12T07:18:50Z</time>
      </trkpt>
      <trkpt lat="45.863" lon="5.74607">
        <ele>441.86</ele>
        <time>2022-05-12T07:19:07Z</time>
      </trkpt>
      <trkpt lat="45.86302" lon="5.74602">
        <ele>445.23</ele>
        <time>2022-05-12T07:19:22Z</time>
      </trkpt>
      <trkpt lat="45.86313" lon="5.74597">
        <ele>447.63</ele>
        <time>2022-05-12T07:19:34Z</time>
      </trkpt>
      <trkpt lat="45.86316" lon="5.74597">
        <ele>448.11</ele>
        <time>2022-05-12T07:19:38Z</time>
      </trkpt>
      <trkpt lat="45.86317" lon="5.74597">
        <ele>448.11</ele>
        <time>2022-05-12T07:19:39Z</time>
      </trkpt>
      <trkpt lat="45.86318" lon="5.74596">
        <ele>448.59</ele>
        <time>2022-05-12T07:19:40Z</time>
      </trkpt>
      <trkpt lat="45.86315" lon="5.74596">
        <ele>449.55</ele>
        <time>2022-05-12T07:19:46Z</time>
      </trkpt>
      <trkpt lat="45.86317" lon="5.74595">
        <ele>451</ele>
        <time>2022-05-12T07:19:55Z</time>
      </trkpt>
      <trkpt lat="45.86317" lon="5.74593">
        <ele>451.48</ele>
        <time>2022-05-12T07:19:57Z</time>
      </trkpt>
      <trkpt lat="45.86326" lon="5.74585">
        <ele>454.36</ele>
        <time>2022-05-12T07:20:12Z</time>
      </trkpt>
      <trkpt lat="45.86329" lon="5.74583">
        <ele>455.8</ele>
        <time>2022-05-12T07:20:18Z</time>
      </trkpt>
      <trkpt lat="45.86332" lon="5.74581">
        <ele>456.76</ele>
        <time>2022-05-12T07:20:26Z</time>
      </trkpt>
      <trkpt lat="45.86336" lon="5.74582">
        <ele>457.72</ele>
        <time>2022-05-12T07:20:31Z</time>
      </trkpt>
      <trkpt lat="45.86339" lon="5.74583">
        <ele>460.61</ele>
        <time>2022-05-12T07:20:46Z</time>
      </trkpt>
      <trkpt lat="45.8634" lon="5.74583">
        <ele>461.09</ele>
        <time>2022-05-12T07:20:47Z</time>
      </trkpt>
      <trkpt lat="45.86347" lon="5.74581">
        <ele>463.97</ele>
        <time>2022-05-12T07:21:03Z</time>
      </trkpt>
      <trkpt lat="45.86349" lon="5.7458">
        <ele>465.42</ele>
        <time>2022-05-12T07:21:10Z</time>
      </trkpt>
      <trkpt lat="45.8635" lon="5.74579">
        <ele>465.42</ele>
        <time>2022-05-12T07:21:11Z</time>
      </trkpt>
      <trkpt lat="45.86352" lon="5.74579">
        <ele>465.9</ele>
        <time>2022-05-12T07:21:12Z</time>
      </trkpt>
      <trkpt lat="45.8636" lon="5.7458">
        <ele>468.78</ele>
        <time>2022-05-12T07:21:35Z</time>
      </trkpt>
      <trkpt lat="45.86362" lon="5.74579">
        <ele>469.26</ele>
        <time>2022-05-12T07:21:39Z</time>
      </trkpt>
      <trkpt lat="45.86366" lon="5.74578">
        <ele>470.22</ele>
        <time>2022-05-12T07:21:44Z</time>
      </trkpt>
      <trkpt lat="45.86369" lon="5.74579">
        <ele>471.18</ele>
        <time>2022-05-12T07:21:48Z</time>
      </trkpt>
      <trkpt lat="45.86375" lon="5.74583">
        <ele>472.63</ele>
        <time>2022-05-12T07:21:57Z</time>
      </trkpt>
      <trkpt lat="45.86376" lon="5.74584">
        <ele>472.63</ele>
        <time>2022-05-12T07:21:58Z</time>
      </trkpt>
      <trkpt lat="45.86378" lon="5.74585">
        <ele>473.59</ele>
        <time>2022-05-12T07:22:01Z</time>
      </trkpt>
      <trkpt lat="45.8639" lon="5.74592">
        <ele>476.47</ele>
        <time>2022-05-12T07:22:21Z</time>
      </trkpt>
      <trkpt lat="45.86406" lon="5.7459">
        <ele>479.84</ele>
        <time>2022-05-12T07:22:38Z</time>
      </trkpt>
      <trkpt lat="45.86419" lon="5.74587">
        <ele>482.72</ele>
        <time>2022-05-12T07:22:52Z</time>
      </trkpt>
      <trkpt lat="45.86433" lon="5.74584">
        <ele>485.6</ele>
        <time>2022-05-12T07:23:10Z</time>
      </trkpt>
      <trkpt lat="45.86443" lon="5.74578">
        <ele>488.97</ele>
        <time>2022-05-12T07:23:28Z</time>
      </trkpt>
      <trkpt lat="45.86452" lon="5.74581">
        <ele>491.85</ele>
        <time>2022-05-12T07:23:50Z</time>
      </trkpt>
      <trkpt lat="45.86463" lon="5.74576">
        <ele>494.74</ele>
        <time>2022-05-12T07:24:23Z</time>
      </trkpt>
      <trkpt lat="45.86472" lon="5.74572">
        <ele>497.62</ele>
        <time>2022-05-12T07:24:46Z</time>
      </trkpt>
      <trkpt lat="45.86469" lon="5.74567">
        <ele>500.98</ele>
        <time>2022-05-12T07:25:03Z</time>
      </trkpt>
      <trkpt lat="45.86466" lon="5.7456">
        <ele>503.87</ele>
        <time>2022-05-12T07:25:15Z</time>
      </trkpt>
      <trkpt lat="45.86448" lon="5.74549">
        <ele>507.23</ele>
        <time>2022-05-12T07:25:32Z</time>
      </trkpt>
      <trkpt lat="45.86447" lon="5.74548">
        <ele>508.19</ele>
        <time>2022-05-12T07:25:38Z</time>
      </trkpt>
      <trkpt lat="45.8645" lon="5.74549">
        <ele>511.56</ele>
        <time>2022-05-12T07:25:56Z</time>
      </trkpt>
      <trkpt lat="45.86453" lon="5.74546">
        <ele>513.48</ele>
        <time>2022-05-12T07:26:06Z</time>
      </trkpt>
      <trkpt lat="45.86461" lon="5.74547">
        <ele>516.37</ele>
        <time>2022-05-12T07:26:22Z</time>
      </trkpt>
      <trkpt lat="45.86463" lon="5.74549">
        <ele>519.73</ele>
        <time>2022-05-12T07:26:38Z</time>
      </trkpt>
      <trkpt lat="45.86461" lon="5.74547">
        <ele>522.61</ele>
        <time>2022-05-12T07:27:03Z</time>
      </trkpt>
      <trkpt lat="45.86454" lon="5.74549">
        <ele>525.98</ele>
        <time>2022-05-12T07:27:34Z</time>
      </trkpt>
      <trkpt lat="45.86455" lon="5.74552">
        <ele>526.94</ele>
        <time>2022-05-12T07:27:47Z</time>
      </trkpt>
      <trkpt lat="45.86455" lon="5.74554">
        <ele>526.94</ele>
        <time>2022-05-12T07:27:48Z</time>
      </trkpt>
      <trkpt lat="45.86456" lon="5.74555">
        <ele>526.94</ele>
        <time>2022-05-12T07:27:49Z</time>
      </trkpt>
      <trkpt lat="45.86452" lon="5.74564">
        <ele>527.42</ele>
        <time>2022-05-12T07:28:13Z</time>
      </trkpt>
      <trkpt lat="45.8645" lon="5.74583">
        <ele>527.42</ele>
        <time>2022-05-12T07:28:40Z</time>
      </trkpt>
      <trkpt lat="45.86451" lon="5.74583">
        <ele>527.42</ele>
        <time>2022-05-12T07:28:41Z</time>
      </trkpt>
      <trkpt lat="45.86465" lon="5.74582">
        <ele>527.42</ele>
        <time>2022-05-12T07:29:16Z</time>
      </trkpt>
      <trkpt lat="45.86469" lon="5.74594">
        <ele>527.42</ele>
        <time>2022-05-12T07:29:22Z</time>
      </trkpt>
      <trkpt lat="45.8649" lon="5.74613">
        <ele>527.42</ele>
        <time>2022-05-12T07:29:52Z</time>
      </trkpt>
      <trkpt lat="45.86478" lon="5.74611">
        <ele>525.5</ele>
        <time>2022-05-12T07:30:11Z</time>
      </trkpt>
      <trkpt lat="45.86498" lon="5.74591">
        <ele>525.98</ele>
        <time>2022-05-12T07:30:28Z</time>
      </trkpt>
      <trkpt lat="45.86499" lon="5.74587">
        <ele>525.98</ele>
        <time>2022-05-12T07:30:30Z</time>
      </trkpt>
      <trkpt lat="45.865" lon="5.74586">
        <ele>525.98</ele>
        <time>2022-05-12T07:30:31Z</time>
      </trkpt>
      <trkpt lat="45.86501" lon="5.74585">
        <ele>526.46</ele>
        <time>2022-05-12T07:30:32Z</time>
      </trkpt>
      <trkpt lat="45.86502" lon="5.74584">
        <ele>526.46</ele>
        <time>2022-05-12T07:30:33Z</time>
      </trkpt>
      <trkpt lat="45.86502" lon="5.74582">
        <ele>526.46</ele>
        <time>2022-05-12T07:30:34Z</time>
      </trkpt>
      <trkpt lat="45.86509" lon="5.74575">
        <ele>529.82</ele>
        <time>2022-05-12T07:30:56Z</time>
      </trkpt>
      <trkpt lat="45.86515" lon="5.74578">
        <ele>530.79</ele>
        <time>2022-05-12T07:31:08Z</time>
      </trkpt>
      <trkpt lat="45.86519" lon="5.7458">
        <ele>530.79</ele>
        <time>2022-05-12T07:31:25Z</time>
      </trkpt>
      <trkpt lat="45.86515" lon="5.74589">
        <ele>533.19</ele>
        <time>2022-05-12T07:31:43Z</time>
      </trkpt>
      <trkpt lat="45.86517" lon="5.74592">
        <ele>534.15</ele>
        <time>2022-05-12T07:32:01Z</time>
      </trkpt>
      <trkpt lat="45.86518" lon="5.74592">
        <ele>534.15</ele>
        <time>2022-05-12T07:32:02Z</time>
      </trkpt>
      <trkpt lat="45.86519" lon="5.74597">
        <ele>535.11</ele>
        <time>2022-05-12T07:32:17Z</time>
      </trkpt>
      <trkpt lat="45.86524" lon="5.74606">
        <ele>537.99</ele>
        <time>2022-05-12T07:32:53Z</time>
      </trkpt>
      <trkpt lat="45.86525" lon="5.74616">
        <ele>541.36</ele>
        <time>2022-05-12T07:33:06Z</time>
      </trkpt>
      <trkpt lat="45.86528" lon="5.74619">
        <ele>542.8</ele>
        <time>2022-05-12T07:33:12Z</time>
      </trkpt>
      <trkpt lat="45.86532" lon="5.74627">
        <ele>545.2</ele>
        <time>2022-05-12T07:33:26Z</time>
      </trkpt>
      <trkpt lat="45.86534" lon="5.74627">
        <ele>545.2</ele>
        <time>2022-05-12T07:33:28Z</time>
      </trkpt>
      <trkpt lat="45.86538" lon="5.74628">
        <ele>546.17</ele>
        <time>2022-05-12T07:33:33Z</time>
      </trkpt>
      <trkpt lat="45.86548" lon="5.74634">
        <ele>549.53</ele>
        <time>2022-05-12T07:33:53Z</time>
      </trkpt>
      <trkpt lat="45.86552" lon="5.74635">
        <ele>550.01</ele>
        <time>2022-05-12T07:33:58Z</time>
      </trkpt>
      <trkpt lat="45.86561" lon="5.74638">
        <ele>553.38</ele>
        <time>2022-05-12T07:34:17Z</time>
      </trkpt>
      <trkpt lat="45.86566" lon="5.74642">
        <ele>556.26</ele>
        <time>2022-05-12T07:34:34Z</time>
      </trkpt>
      <trkpt lat="45.86571" lon="5.74645">
        <ele>558.18</ele>
        <time>2022-05-12T07:34:45Z</time>
      </trkpt>
      <trkpt lat="45.8658" lon="5.74657">
        <ele>561.07</ele>
        <time>2022-05-12T07:35:05Z</time>
      </trkpt>
      <trkpt lat="45.86583" lon="5.74659">
        <ele>562.03</ele>
        <time>2022-05-12T07:35:12Z</time>
      </trkpt>
      <trkpt lat="45.86593" lon="5.7466">
        <ele>564.91</ele>
        <time>2022-05-12T07:35:25Z</time>
      </trkpt>
      <trkpt lat="45.86592" lon="5.74664">
        <ele>568.28</ele>
        <time>2022-05-12T07:35:44Z</time>
      </trkpt>
      <trkpt lat="45.86593" lon="5.74664">
        <ele>568.28</ele>
        <time>2022-05-12T07:35:46Z</time>
      </trkpt>
      <trkpt lat="45.86598" lon="5.74665">
        <ele>571.64</ele>
        <time>2022-05-12T07:36:08Z</time>
      </trkpt>
      <trkpt lat="45.86601" lon="5.74664">
        <ele>572.6</ele>
        <time>2022-05-12T07:36:15Z</time>
      </trkpt>
      <trkpt lat="45.86602" lon="5.74663">
        <ele>572.6</ele>
        <time>2022-05-12T07:36:16Z</time>
      </trkpt>
      <trkpt lat="45.86604" lon="5.74662">
        <ele>573.08</ele>
        <time>2022-05-12T07:36:19Z</time>
      </trkpt>
      <trkpt lat="45.86615" lon="5.74663">
        <ele>575.01</ele>
        <time>2022-05-12T07:36:31Z</time>
      </trkpt>
      <trkpt lat="45.86616" lon="5.74663">
        <ele>575.01</ele>
        <time>2022-05-12T07:36:32Z</time>
      </trkpt>
      <trkpt lat="45.86619" lon="5.74663">
        <ele>575.49</ele>
        <time>2022-05-12T07:36:35Z</time>
      </trkpt>
      <trkpt lat="45.86627" lon="5.74668">
        <ele>578.37</ele>
        <time>2022-05-12T07:36:53Z</time>
      </trkpt>
      <trkpt lat="45.86637" lon="5.74672">
        <ele>581.73</ele>
        <time>2022-05-12T07:37:14Z</time>
      </trkpt>
      <trkpt lat="45.86643" lon="5.74667">
        <ele>584.14</ele>
        <time>2022-05-12T07:37:27Z</time>
      </trkpt>
      <trkpt lat="45.86646" lon="5.74667">
        <ele>584.62</ele>
        <time>2022-05-12T07:37:32Z</time>
      </trkpt>
      <trkpt lat="45.86654" lon="5.74668">
        <ele>587.02</ele>
        <time>2022-05-12T07:37:47Z</time>
      </trkpt>
      <trkpt lat="45.86658" lon="5.7467">
        <ele>588.46</ele>
        <time>2022-05-12T07:37:55Z</time>
      </trkpt>
      <trkpt lat="45.86664" lon="5.74676">
        <ele>591.83</ele>
        <time>2022-05-12T07:38:13Z</time>
      </trkpt>
      <trkpt lat="45.86674" lon="5.74673">
        <ele>594.23</ele>
        <time>2022-05-12T07:38:31Z</time>
      </trkpt>
      <trkpt lat="45.86681" lon="5.7467">
        <ele>595.67</ele>
        <time>2022-05-12T07:38:43Z</time>
      </trkpt>
      <trkpt lat="45.86684" lon="5.7467">
        <ele>596.15</ele>
        <time>2022-05-12T07:38:46Z</time>
      </trkpt>
      <trkpt lat="45.86695" lon="5.74671">
        <ele>599.52</ele>
        <time>2022-05-12T07:39:05Z</time>
      </trkpt>
      <trkpt lat="45.86708" lon="5.74667">
        <ele>602.4</ele>
        <time>2022-05-12T07:39:22Z</time>
      </trkpt>
      <trkpt lat="45.86716" lon="5.74655">
        <ele>605.29</ele>
        <time>2022-05-12T07:39:43Z</time>
      </trkpt>
      <trkpt lat="45.86721" lon="5.74649">
        <ele>607.21</ele>
        <time>2022-05-12T07:39:55Z</time>
      </trkpt>
      <trkpt lat="45.86726" lon="5.74648">
        <ele>608.17</ele>
        <time>2022-05-12T07:40:02Z</time>
      </trkpt>
      <trkpt lat="45.86733" lon="5.74645">
        <ele>611.06</ele>
        <time>2022-05-12T07:40:28Z</time>
      </trkpt>
      <trkpt lat="45.86734" lon="5.74644">
        <ele>611.54</ele>
        <time>2022-05-12T07:40:33Z</time>
      </trkpt>
      <trkpt lat="45.8674" lon="5.74643">
        <ele>612.98</ele>
        <time>2022-05-12T07:40:40Z</time>
      </trkpt>
      <trkpt lat="45.86747" lon="5.74644">
        <ele>614.42</ele>
        <time>2022-05-12T07:40:50Z</time>
      </trkpt>
      <trkpt lat="45.8675" lon="5.74643">
        <ele>614.42</ele>
        <time>2022-05-12T07:40:53Z</time>
      </trkpt>
      <trkpt lat="45.86757" lon="5.74641">
        <ele>615.86</ele>
        <time>2022-05-12T07:41:01Z</time>
      </trkpt>
      <trkpt lat="45.86766" lon="5.74637">
        <ele>618.75</ele>
        <time>2022-05-12T07:41:26Z</time>
      </trkpt>
      <trkpt lat="45.86775" lon="5.74638">
        <ele>620.67</ele>
        <time>2022-05-12T07:41:42Z</time>
      </trkpt>
      <trkpt lat="45.86777" lon="5.74637">
        <ele>621.63</ele>
        <time>2022-05-12T07:41:45Z</time>
      </trkpt>
      <trkpt lat="45.86779" lon="5.74637">
        <ele>621.63</ele>
        <time>2022-05-12T07:41:47Z</time>
      </trkpt>
      <trkpt lat="45.86789" lon="5.74628">
        <ele>624.03</ele>
        <time>2022-05-12T07:41:59Z</time>
      </trkpt>
      <trkpt lat="45.86797" lon="5.74623">
        <ele>626.92</ele>
        <time>2022-05-12T07:42:15Z</time>
      </trkpt>
      <trkpt lat="45.86799" lon="5.74622">
        <ele>627.4</ele>
        <time>2022-05-12T07:42:18Z</time>
      </trkpt>
      <trkpt lat="45.8681" lon="5.74617">
        <ele>630.28</ele>
        <time>2022-05-12T07:42:34Z</time>
      </trkpt>
      <trkpt lat="45.86811" lon="5.74616">
        <ele>630.28</ele>
        <time>2022-05-12T07:42:35Z</time>
      </trkpt>
      <trkpt lat="45.86813" lon="5.74615">
        <ele>630.76</ele>
        <time>2022-05-12T07:42:37Z</time>
      </trkpt>
      <trkpt lat="45.86828" lon="5.74614">
        <ele>632.68</ele>
        <time>2022-05-12T07:42:48Z</time>
      </trkpt>
      <trkpt lat="45.86833" lon="5.74609">
        <ele>635.57</ele>
        <time>2022-05-12T07:43:04Z</time>
      </trkpt>
      <trkpt lat="45.86838" lon="5.74607">
        <ele>638.93</ele>
        <time>2022-05-12T07:43:33Z</time>
      </trkpt>
      <trkpt lat="45.8684" lon="5.74608">
        <ele>639.89</ele>
        <time>2022-05-12T07:43:50Z</time>
      </trkpt>
      <trkpt lat="45.86844" lon="5.74607">
        <ele>639.41</ele>
        <time>2022-05-12T07:44:26Z</time>
      </trkpt>
      <trkpt lat="45.86849" lon="5.74608">
        <ele>641.34</ele>
        <time>2022-05-12T07:44:55Z</time>
      </trkpt>
      <trkpt lat="45.86853" lon="5.74606">
        <ele>641.82</ele>
        <time>2022-05-12T07:45:00Z</time>
      </trkpt>
      <trkpt lat="45.86865" lon="5.74604">
        <ele>644.22</ele>
        <time>2022-05-12T07:45:18Z</time>
      </trkpt>
      <trkpt lat="45.86866" lon="5.74604">
        <ele>644.7</ele>
        <time>2022-05-12T07:45:21Z</time>
      </trkpt>
      <trkpt lat="45.86868" lon="5.74603">
        <ele>644.7</ele>
        <time>2022-05-12T07:45:23Z</time>
      </trkpt>
      <trkpt lat="45.86872" lon="5.74601">
        <ele>646.62</ele>
        <time>2022-05-12T07:45:31Z</time>
      </trkpt>
      <trkpt lat="45.86881" lon="5.746">
        <ele>649.03</ele>
        <time>2022-05-12T07:45:43Z</time>
      </trkpt>
      <trkpt lat="45.8689" lon="5.74595">
        <ele>651.91</ele>
        <time>2022-05-12T07:46:03Z</time>
      </trkpt>
      <trkpt lat="45.86893" lon="5.74594">
        <ele>654.8</ele>
        <time>2022-05-12T07:46:22Z</time>
      </trkpt>
      <trkpt lat="45.86896" lon="5.74593">
        <ele>656.24</ele>
        <time>2022-05-12T07:46:29Z</time>
      </trkpt>
      <trkpt lat="45.86898" lon="5.74594">
        <ele>656.24</ele>
        <time>2022-05-12T07:46:32Z</time>
      </trkpt>
      <trkpt lat="45.86906" lon="5.74594">
        <ele>659.6</ele>
        <time>2022-05-12T07:46:51Z</time>
      </trkpt>
      <trkpt lat="45.86912" lon="5.74592">
        <ele>661.52</ele>
        <time>2022-05-12T07:47:04Z</time>
      </trkpt>
      <trkpt lat="45.86919" lon="5.74586">
        <ele>663.45</ele>
        <time>2022-05-12T07:47:16Z</time>
      </trkpt>
      <trkpt lat="45.86922" lon="5.74586">
        <ele>663.93</ele>
        <time>2022-05-12T07:47:19Z</time>
      </trkpt>
      <trkpt lat="45.86926" lon="5.74585">
        <ele>664.89</ele>
        <time>2022-05-12T07:47:27Z</time>
      </trkpt>
      <trkpt lat="45.86927" lon="5.74584">
        <ele>665.37</ele>
        <time>2022-05-12T07:47:28Z</time>
      </trkpt>
      <trkpt lat="45.86927" lon="5.74582">
        <ele>665.37</ele>
        <time>2022-05-12T07:47:29Z</time>
      </trkpt>
      <trkpt lat="45.86932" lon="5.74578">
        <ele>668.73</ele>
        <time>2022-05-12T07:47:53Z</time>
      </trkpt>
      <trkpt lat="45.86934" lon="5.74578">
        <ele>668.73</ele>
        <time>2022-05-12T07:47:54Z</time>
      </trkpt>
      <trkpt lat="45.86942" lon="5.74577">
        <ele>671.14</ele>
        <time>2022-05-12T07:48:08Z</time>
      </trkpt>
      <trkpt lat="45.86952" lon="5.74576">
        <ele>673.06</ele>
        <time>2022-05-12T07:48:23Z</time>
      </trkpt>
      <trkpt lat="45.86966" lon="5.74581">
        <ele>676.42</ele>
        <time>2022-05-12T07:48:44Z</time>
      </trkpt>
      <trkpt lat="45.86974" lon="5.74577">
        <ele>679.31</ele>
        <time>2022-05-12T07:49:01Z</time>
      </trkpt>
      <trkpt lat="45.86977" lon="5.74572">
        <ele>680.75</ele>
        <time>2022-05-12T07:49:11Z</time>
      </trkpt>
      <trkpt lat="45.86985" lon="5.7457">
        <ele>682.67</ele>
        <time>2022-05-12T07:49:29Z</time>
      </trkpt>
      <trkpt lat="45.86987" lon="5.74569">
        <ele>683.15</ele>
        <time>2022-05-12T07:49:33Z</time>
      </trkpt>
      <trkpt lat="45.86995" lon="5.7456">
        <ele>686.04</ele>
        <time>2022-05-12T07:50:05Z</time>
      </trkpt>
      <trkpt lat="45.86996" lon="5.74562">
        <ele>686.52</ele>
        <time>2022-05-12T07:50:14Z</time>
      </trkpt>
      <trkpt lat="45.86999" lon="5.74563">
        <ele>686.52</ele>
        <time>2022-05-12T07:50:17Z</time>
      </trkpt>
      <trkpt lat="45.87008" lon="5.74564">
        <ele>689.4</ele>
        <time>2022-05-12T07:50:39Z</time>
      </trkpt>
      <trkpt lat="45.87016" lon="5.74562">
        <ele>692.77</ele>
        <time>2022-05-12T07:50:55Z</time>
      </trkpt>
      <trkpt lat="45.87022" lon="5.7456">
        <ele>695.65</ele>
        <time>2022-05-12T07:51:11Z</time>
      </trkpt>
      <trkpt lat="45.87031" lon="5.74553">
        <ele>699.02</ele>
        <time>2022-05-12T07:51:25Z</time>
      </trkpt>
      <trkpt lat="45.87041" lon="5.74543">
        <ele>701.9</ele>
        <time>2022-05-12T07:51:46Z</time>
      </trkpt>
      <trkpt lat="45.87042" lon="5.74535">
        <ele>705.26</ele>
        <time>2022-05-12T07:52:06Z</time>
      </trkpt>
      <trkpt lat="45.87042" lon="5.74534">
        <ele>705.26</ele>
        <time>2022-05-12T07:52:07Z</time>
      </trkpt>
      <trkpt lat="45.87047" lon="5.74528">
        <ele>708.63</ele>
        <time>2022-05-12T07:52:26Z</time>
      </trkpt>
      <trkpt lat="45.87047" lon="5.74526">
        <ele>711.51</ele>
        <time>2022-05-12T07:52:45Z</time>
      </trkpt>
      <trkpt lat="45.87053" lon="5.74523">
        <ele>714.4</ele>
        <time>2022-05-12T07:53:04Z</time>
      </trkpt>
      <trkpt lat="45.87055" lon="5.74519">
        <ele>714.4</ele>
        <time>2022-05-12T07:53:06Z</time>
      </trkpt>
      <trkpt lat="45.87058" lon="5.74516">
        <ele>717.76</ele>
        <time>2022-05-12T07:53:23Z</time>
      </trkpt>
      <trkpt lat="45.87063" lon="5.7451">
        <ele>721.13</ele>
        <time>2022-05-12T07:53:41Z</time>
      </trkpt>
      <trkpt lat="45.87072" lon="5.74512">
        <ele>723.53</ele>
        <time>2022-05-12T07:53:57Z</time>
      </trkpt>
      <trkpt lat="45.87074" lon="5.74512">
        <ele>724.01</ele>
        <time>2022-05-12T07:54:00Z</time>
      </trkpt>
      <trkpt lat="45.87081" lon="5.7451">
        <ele>726.41</ele>
        <time>2022-05-12T07:54:14Z</time>
      </trkpt>
      <trkpt lat="45.87088" lon="5.74509">
        <ele>729.3</ele>
        <time>2022-05-12T07:54:31Z</time>
      </trkpt>
      <trkpt lat="45.87095" lon="5.74509">
        <ele>732.18</ele>
        <time>2022-05-12T07:54:48Z</time>
      </trkpt>
      <trkpt lat="45.8711" lon="5.74502">
        <ele>735.07</ele>
        <time>2022-05-12T07:55:11Z</time>
      </trkpt>
      <trkpt lat="45.87114" lon="5.74493">
        <ele>738.43</ele>
        <time>2022-05-12T07:55:26Z</time>
      </trkpt>
      <trkpt lat="45.87122" lon="5.74487">
        <ele>741.31</ele>
        <time>2022-05-12T07:55:46Z</time>
      </trkpt>
      <trkpt lat="45.87128" lon="5.74488">
        <ele>744.2</ele>
        <time>2022-05-12T07:56:04Z</time>
      </trkpt>
      <trkpt lat="45.87131" lon="5.74488">
        <ele>744.68</ele>
        <time>2022-05-12T07:56:08Z</time>
      </trkpt>
      <trkpt lat="45.87135" lon="5.74487">
        <ele>745.64</ele>
        <time>2022-05-12T07:56:14Z</time>
      </trkpt>
      <trkpt lat="45.87136" lon="5.74487">
        <ele>746.12</ele>
        <time>2022-05-12T07:56:15Z</time>
      </trkpt>
      <trkpt lat="45.87139" lon="5.74487">
        <ele>746.6</ele>
        <time>2022-05-12T07:56:19Z</time>
      </trkpt>
      <trkpt lat="45.87143" lon="5.74483">
        <ele>749.97</ele>
        <time>2022-05-12T07:56:36Z</time>
      </trkpt>
      <trkpt lat="45.87145" lon="5.74485">
        <ele>749.97</ele>
        <time>2022-05-12T07:56:38Z</time>
      </trkpt>
      <trkpt lat="45.87152" lon="5.74479">
        <ele>753.33</ele>
        <time>2022-05-12T07:56:59Z</time>
      </trkpt>
      <trkpt lat="45.87161" lon="5.74472">
        <ele>756.21</ele>
        <time>2022-05-12T07:57:16Z</time>
      </trkpt>
      <trkpt lat="45.87168" lon="5.7447">
        <ele>758.62</ele>
        <time>2022-05-12T07:57:29Z</time>
      </trkpt>
      <trkpt lat="45.87173" lon="5.74477">
        <ele>761.98</ele>
        <time>2022-05-12T07:57:49Z</time>
      </trkpt>
      <trkpt lat="45.87185" lon="5.7448">
        <ele>764.87</ele>
        <time>2022-05-12T07:58:09Z</time>
      </trkpt>
      <trkpt lat="45.87187" lon="5.7448">
        <ele>765.35</ele>
        <time>2022-05-12T07:58:11Z</time>
      </trkpt>
      <trkpt lat="45.87192" lon="5.74479">
        <ele>768.23</ele>
        <time>2022-05-12T07:58:27Z</time>
      </trkpt>
      <trkpt lat="45.87199" lon="5.74473">
        <ele>770.63</ele>
        <time>2022-05-12T07:58:43Z</time>
      </trkpt>
      <trkpt lat="45.87203" lon="5.7447">
        <ele>771.6</ele>
        <time>2022-05-12T07:58:48Z</time>
      </trkpt>
      <trkpt lat="45.87207" lon="5.74466">
        <ele>773.04</ele>
        <time>2022-05-12T07:58:58Z</time>
      </trkpt>
      <trkpt lat="45.87212" lon="5.74463">
        <ele>774</ele>
        <time>2022-05-12T07:59:02Z</time>
      </trkpt>
      <trkpt lat="45.87213" lon="5.74463">
        <ele>774</ele>
        <time>2022-05-12T07:59:03Z</time>
      </trkpt>
      <trkpt lat="45.87216" lon="5.74461">
        <ele>774</ele>
        <time>2022-05-12T07:59:06Z</time>
      </trkpt>
      <trkpt lat="45.87226" lon="5.74458">
        <ele>777.36</ele>
        <time>2022-05-12T07:59:25Z</time>
      </trkpt>
      <trkpt lat="45.8723" lon="5.7446">
        <ele>778.81</ele>
        <time>2022-05-12T07:59:36Z</time>
      </trkpt>
      <trkpt lat="45.87238" lon="5.74454">
        <ele>782.17</ele>
        <time>2022-05-12T07:59:54Z</time>
      </trkpt>
      <trkpt lat="45.87243" lon="5.74455">
        <ele>783.13</ele>
        <time>2022-05-12T08:00:01Z</time>
      </trkpt>
      <trkpt lat="45.87249" lon="5.74456">
        <ele>784.57</ele>
        <time>2022-05-12T08:00:11Z</time>
      </trkpt>
      <trkpt lat="45.87257" lon="5.74453">
        <ele>788.42</ele>
        <time>2022-05-12T08:00:30Z</time>
      </trkpt>
      <trkpt lat="45.87267" lon="5.7445">
        <ele>791.3</ele>
        <time>2022-05-12T08:00:49Z</time>
      </trkpt>
      <trkpt lat="45.87277" lon="5.74444">
        <ele>794.19</ele>
        <time>2022-05-12T08:01:07Z</time>
      </trkpt>
      <trkpt lat="45.87284" lon="5.74438">
        <ele>797.07</ele>
        <time>2022-05-12T08:01:30Z</time>
      </trkpt>
      <trkpt lat="45.87287" lon="5.74433">
        <ele>800.44</ele>
        <time>2022-05-12T08:01:46Z</time>
      </trkpt>
      <trkpt lat="45.87294" lon="5.74424">
        <ele>803.32</ele>
        <time>2022-05-12T08:02:06Z</time>
      </trkpt>
      <trkpt lat="45.87296" lon="5.74423">
        <ele>803.8</ele>
        <time>2022-05-12T08:02:08Z</time>
      </trkpt>
      <trkpt lat="45.87301" lon="5.7441">
        <ele>806.68</ele>
        <time>2022-05-12T08:02:29Z</time>
      </trkpt>
      <trkpt lat="45.873" lon="5.74406">
        <ele>810.05</ele>
        <time>2022-05-12T08:02:53Z</time>
      </trkpt>
      <trkpt lat="45.87304" lon="5.74402">
        <ele>812.93</ele>
        <time>2022-05-12T08:03:12Z</time>
      </trkpt>
      <trkpt lat="45.87316" lon="5.74403">
        <ele>815.82</ele>
        <time>2022-05-12T08:03:27Z</time>
      </trkpt>
      <trkpt lat="45.87326" lon="5.74406">
        <ele>818.22</ele>
        <time>2022-05-12T08:03:41Z</time>
      </trkpt>
      <trkpt lat="45.87327" lon="5.74405">
        <ele>818.22</ele>
        <time>2022-05-12T08:03:42Z</time>
      </trkpt>
      <trkpt lat="45.87328" lon="5.74405">
        <ele>818.22</ele>
        <time>2022-05-12T08:03:43Z</time>
      </trkpt>
      <trkpt lat="45.8733" lon="5.74405">
        <ele>819.18</ele>
        <time>2022-05-12T08:03:45Z</time>
      </trkpt>
      <trkpt lat="45.87336" lon="5.74401">
        <ele>822.06</ele>
        <time>2022-05-12T08:04:01Z</time>
      </trkpt>
      <trkpt lat="45.87337" lon="5.74401">
        <ele>822.55</ele>
        <time>2022-05-12T08:04:02Z</time>
      </trkpt>
      <trkpt lat="45.87341" lon="5.74397">
        <ele>823.03</ele>
        <time>2022-05-12T08:04:07Z</time>
      </trkpt>
      <trkpt lat="45.87351" lon="5.74394">
        <ele>825.43</ele>
        <time>2022-05-12T08:04:20Z</time>
      </trkpt>
      <trkpt lat="45.87353" lon="5.74394">
        <ele>825.43</ele>
        <time>2022-05-12T08:04:21Z</time>
      </trkpt>
      <trkpt lat="45.87358" lon="5.74396">
        <ele>826.87</ele>
        <time>2022-05-12T08:04:29Z</time>
      </trkpt>
      <trkpt lat="45.87365" lon="5.74398">
        <ele>828.31</ele>
        <time>2022-05-12T08:04:38Z</time>
      </trkpt>
      <trkpt lat="45.87375" lon="5.74394">
        <ele>831.2</ele>
        <time>2022-05-12T08:04:54Z</time>
      </trkpt>
      <trkpt lat="45.87375" lon="5.74393">
        <ele>831.68</ele>
        <time>2022-05-12T08:04:55Z</time>
      </trkpt>
      <trkpt lat="45.87386" lon="5.74386">
        <ele>834.56</ele>
        <time>2022-05-12T08:05:12Z</time>
      </trkpt>
      <trkpt lat="45.87393" lon="5.74383">
        <ele>837.93</ele>
        <time>2022-05-12T08:05:33Z</time>
      </trkpt>
      <trkpt lat="45.874" lon="5.74374">
        <ele>840.81</ele>
        <time>2022-05-12T08:05:49Z</time>
      </trkpt>
      <trkpt lat="45.87408" lon="5.74371">
        <ele>843.69</ele>
        <time>2022-05-12T08:06:07Z</time>
      </trkpt>
      <trkpt lat="45.87419" lon="5.74369">
        <ele>846.58</ele>
        <time>2022-05-12T08:06:26Z</time>
      </trkpt>
      <trkpt lat="45.87427" lon="5.74371">
        <ele>848.98</ele>
        <time>2022-05-12T08:06:37Z</time>
      </trkpt>
      <trkpt lat="45.87432" lon="5.74369">
        <ele>850.42</ele>
        <time>2022-05-12T08:06:43Z</time>
      </trkpt>
      <trkpt lat="45.87443" lon="5.74363">
        <ele>853.31</ele>
        <time>2022-05-12T08:07:03Z</time>
      </trkpt>
      <trkpt lat="45.87447" lon="5.74363">
        <ele>854.27</ele>
        <time>2022-05-12T08:07:10Z</time>
      </trkpt>
      <trkpt lat="45.87455" lon="5.74366">
        <ele>857.15</ele>
        <time>2022-05-12T08:07:26Z</time>
      </trkpt>
      <trkpt lat="45.87456" lon="5.74365">
        <ele>857.15</ele>
        <time>2022-05-12T08:07:27Z</time>
      </trkpt>
      <trkpt lat="45.87458" lon="5.74365">
        <ele>857.63</ele>
        <time>2022-05-12T08:07:29Z</time>
      </trkpt>
      <trkpt lat="45.87466" lon="5.74362">
        <ele>860.52</ele>
        <time>2022-05-12T08:07:45Z</time>
      </trkpt>
      <trkpt lat="45.87472" lon="5.74362">
        <ele>862.44</ele>
        <time>2022-05-12T08:07:56Z</time>
      </trkpt>
      <trkpt lat="45.87474" lon="5.74361">
        <ele>862.44</ele>
        <time>2022-05-12T08:07:58Z</time>
      </trkpt>
      <trkpt lat="45.87481" lon="5.74359">
        <ele>865.8</ele>
        <time>2022-05-12T08:08:15Z</time>
      </trkpt>
      <trkpt lat="45.87486" lon="5.74356">
        <ele>868.69</ele>
        <time>2022-05-12T08:08:33Z</time>
      </trkpt>
      <trkpt lat="45.87495" lon="5.74352">
        <ele>871.57</ele>
        <time>2022-05-12T08:08:51Z</time>
      </trkpt>
      <trkpt lat="45.87498" lon="5.74351">
        <ele>873.98</ele>
        <time>2022-05-12T08:09:04Z</time>
      </trkpt>
      <trkpt lat="45.87509" lon="5.74347">
        <ele>876.86</ele>
        <time>2022-05-12T08:09:23Z</time>
      </trkpt>
      <trkpt lat="45.87515" lon="5.74342">
        <ele>879.26</ele>
        <time>2022-05-12T08:09:39Z</time>
      </trkpt>
      <trkpt lat="45.8752" lon="5.74341">
        <ele>882.63</ele>
        <time>2022-05-12T08:09:58Z</time>
      </trkpt>
      <trkpt lat="45.87526" lon="5.7434">
        <ele>879.74</ele>
        <time>2022-05-12T08:10:08Z</time>
      </trkpt>
      <trkpt lat="45.87528" lon="5.74339">
        <ele>883.11</ele>
        <time>2022-05-12T08:10:12Z</time>
      </trkpt>
      <trkpt lat="45.87528" lon="5.74339">
        <ele>886.47</ele>
        <time>2022-05-12T08:10:15Z</time>
      </trkpt>
      <trkpt lat="45.87531" lon="5.74341">
        <ele>888.4</ele>
        <time>2022-05-12T08:10:28Z</time>
      </trkpt>
      <trkpt lat="45.87533" lon="5.7434">
        <ele>888.88</ele>
        <time>2022-05-12T08:10:32Z</time>
      </trkpt>
      <trkpt lat="45.87536" lon="5.7434">
        <ele>889.84</ele>
        <time>2022-05-12T08:10:39Z</time>
      </trkpt>
      <trkpt lat="45.87543" lon="5.74339">
        <ele>892.24</ele>
        <time>2022-05-12T08:10:53Z</time>
      </trkpt>
      <trkpt lat="45.87544" lon="5.7434">
        <ele>892.24</ele>
        <time>2022-05-12T08:10:54Z</time>
      </trkpt>
      <trkpt lat="45.87545" lon="5.74339">
        <ele>892.24</ele>
        <time>2022-05-12T08:10:55Z</time>
      </trkpt>
      <trkpt lat="45.87546" lon="5.74338">
        <ele>892.72</ele>
        <time>2022-05-12T08:10:56Z</time>
      </trkpt>
      <trkpt lat="45.87557" lon="5.74336">
        <ele>895.61</ele>
        <time>2022-05-12T08:11:19Z</time>
      </trkpt>
      <trkpt lat="45.87561" lon="5.74335">
        <ele>898.01</ele>
        <time>2022-05-12T08:11:38Z</time>
      </trkpt>
      <trkpt lat="45.87564" lon="5.74335">
        <ele>901.37</ele>
        <time>2022-05-12T08:11:49Z</time>
      </trkpt>
      <trkpt lat="45.87564" lon="5.74334">
        <ele>901.37</ele>
        <time>2022-05-12T08:11:50Z</time>
      </trkpt>
      <trkpt lat="45.87571" lon="5.74328">
        <ele>902.82</ele>
        <time>2022-05-12T08:12:07Z</time>
      </trkpt>
      <trkpt lat="45.87573" lon="5.74326">
        <ele>902.82</ele>
        <time>2022-05-12T08:12:09Z</time>
      </trkpt>
      <trkpt lat="45.87578" lon="5.74322">
        <ele>906.18</ele>
        <time>2022-05-12T08:12:28Z</time>
      </trkpt>
      <trkpt lat="45.87582" lon="5.74321">
        <ele>909.06</ele>
        <time>2022-05-12T08:12:46Z</time>
      </trkpt>
      <trkpt lat="45.87587" lon="5.74318">
        <ele>911.95</ele>
        <time>2022-05-12T08:13:05Z</time>
      </trkpt>
      <trkpt lat="45.87588" lon="5.74309">
        <ele>913.87</ele>
        <time>2022-05-12T08:13:41Z</time>
      </trkpt>
      <trkpt lat="45.87596" lon="5.74309">
        <ele>914.35</ele>
        <time>2022-05-12T08:14:12Z</time>
      </trkpt>
      <trkpt lat="45.87596" lon="5.74312">
        <ele>913.39</ele>
        <time>2022-05-12T08:14:39Z</time>
      </trkpt>
      <trkpt lat="45.87595" lon="5.74311">
        <ele>913.87</ele>
        <time>2022-05-12T08:15:09Z</time>
      </trkpt>
      <trkpt lat="45.87594" lon="5.74313">
        <ele>914.35</ele>
        <time>2022-05-12T08:15:16Z</time>
      </trkpt>
      <trkpt lat="45.87593" lon="5.74314">
        <ele>914.35</ele>
        <time>2022-05-12T08:15:24Z</time>
      </trkpt>
      <trkpt lat="45.87594" lon="5.74317">
        <ele>913.87</ele>
        <time>2022-05-12T08:15:58Z</time>
      </trkpt>
      <trkpt lat="45.87594" lon="5.74319">
        <ele>913.87</ele>
        <time>2022-05-12T08:16:23Z</time>
      </trkpt>
      <trkpt lat="45.87593" lon="5.7432">
        <ele>913.87</ele>
        <time>2022-05-12T08:16:52Z</time>
      </trkpt>
      <trkpt lat="45.87602" lon="5.74318">
        <ele>913.87</ele>
        <time>2022-05-12T08:17:25Z</time>
      </trkpt>
      <trkpt lat="45.87604" lon="5.74317">
        <ele>919.64</ele>
        <time>2022-05-12T08:17:28Z</time>
      </trkpt>
      <trkpt lat="45.87604" lon="5.74317">
        <ele>919.64</ele>
        <time>2022-05-12T08:17:29Z</time>
      </trkpt>
      <trkpt lat="45.8761" lon="5.74315">
        <ele>921.56</ele>
        <time>2022-05-12T08:17:43Z</time>
      </trkpt>
      <trkpt lat="45.87612" lon="5.74316">
        <ele>922.52</ele>
        <time>2022-05-12T08:17:48Z</time>
      </trkpt>
      <trkpt lat="45.87619" lon="5.74319">
        <ele>925.41</ele>
        <time>2022-05-12T08:18:05Z</time>
      </trkpt>
      <trkpt lat="45.87625" lon="5.74322">
        <ele>928.77</ele>
        <time>2022-05-12T08:18:24Z</time>
      </trkpt>
      <trkpt lat="45.87628" lon="5.74321">
        <ele>929.25</ele>
        <time>2022-05-12T08:18:29Z</time>
      </trkpt>
      <trkpt lat="45.87635" lon="5.74311">
        <ele>932.62</ele>
        <time>2022-05-12T08:18:48Z</time>
      </trkpt>
      <trkpt lat="45.87637" lon="5.74307">
        <ele>935.5</ele>
        <time>2022-05-12T08:19:03Z</time>
      </trkpt>
      <trkpt lat="45.87643" lon="5.74302">
        <ele>938.38</ele>
        <time>2022-05-12T08:19:25Z</time>
      </trkpt>
      <trkpt lat="45.8765" lon="5.74303">
        <ele>941.75</ele>
        <time>2022-05-12T08:19:42Z</time>
      </trkpt>
      <trkpt lat="45.87652" lon="5.74303">
        <ele>944.63</ele>
        <time>2022-05-12T08:19:56Z</time>
      </trkpt>
      <trkpt lat="45.87658" lon="5.74302">
        <ele>946.07</ele>
        <time>2022-05-12T08:20:04Z</time>
      </trkpt>
      <trkpt lat="45.87659" lon="5.74302">
        <ele>946.56</ele>
        <time>2022-05-12T08:20:05Z</time>
      </trkpt>
      <trkpt lat="45.87661" lon="5.74301">
        <ele>946.56</ele>
        <time>2022-05-12T08:20:06Z</time>
      </trkpt>
      <trkpt lat="45.87672" lon="5.74299">
        <ele>948.96</ele>
        <time>2022-05-12T08:20:20Z</time>
      </trkpt>
      <trkpt lat="45.87678" lon="5.74298">
        <ele>951.84</ele>
        <time>2022-05-12T08:20:38Z</time>
      </trkpt>
      <trkpt lat="45.87682" lon="5.74297">
        <ele>954.73</ele>
        <time>2022-05-12T08:20:53Z</time>
      </trkpt>
      <trkpt lat="45.87688" lon="5.74293">
        <ele>957.61</ele>
        <time>2022-05-12T08:21:18Z</time>
      </trkpt>
      <trkpt lat="45.87696" lon="5.74291">
        <ele>960.98</ele>
        <time>2022-05-12T08:21:39Z</time>
      </trkpt>
      <trkpt lat="45.87704" lon="5.74287">
        <ele>963.86</ele>
        <time>2022-05-12T08:21:55Z</time>
      </trkpt>
      <trkpt lat="45.87711" lon="5.74288">
        <ele>965.78</ele>
        <time>2022-05-12T08:22:08Z</time>
      </trkpt>
      <trkpt lat="45.87712" lon="5.74288">
        <ele>965.78</ele>
        <time>2022-05-12T08:22:09Z</time>
      </trkpt>
      <trkpt lat="45.87719" lon="5.74285">
        <ele>969.15</ele>
        <time>2022-05-12T08:22:30Z</time>
      </trkpt>
      <trkpt lat="45.87728" lon="5.74281">
        <ele>972.03</ele>
        <time>2022-05-12T08:22:50Z</time>
      </trkpt>
      <trkpt lat="45.87732" lon="5.74277">
        <ele>974.43</ele>
        <time>2022-05-12T08:22:58Z</time>
      </trkpt>
      <trkpt lat="45.87734" lon="5.74271">
        <ele>975.39</ele>
        <time>2022-05-12T08:23:05Z</time>
      </trkpt>
      <trkpt lat="45.87741" lon="5.74264">
        <ele>976.84</ele>
        <time>2022-05-12T08:23:16Z</time>
      </trkpt>
      <trkpt lat="45.87747" lon="5.74262">
        <ele>979.24</ele>
        <time>2022-05-12T08:23:32Z</time>
      </trkpt>
      <trkpt lat="45.87753" lon="5.74262">
        <ele>982.6</ele>
        <time>2022-05-12T08:23:49Z</time>
      </trkpt>
      <trkpt lat="45.87757" lon="5.74261">
        <ele>985.49</ele>
        <time>2022-05-12T08:24:08Z</time>
      </trkpt>
      <trkpt lat="45.87762" lon="5.74255">
        <ele>988.85</ele>
        <time>2022-05-12T08:24:27Z</time>
      </trkpt>
      <trkpt lat="45.87764" lon="5.74253">
        <ele>989.33</ele>
        <time>2022-05-12T08:24:32Z</time>
      </trkpt>
      <trkpt lat="45.87769" lon="5.7425">
        <ele>990.78</ele>
        <time>2022-05-12T08:24:38Z</time>
      </trkpt>
      <trkpt lat="45.87773" lon="5.74249">
        <ele>993.66</ele>
        <time>2022-05-12T08:24:53Z</time>
      </trkpt>
      <trkpt lat="45.87778" lon="5.74246">
        <ele>997.02</ele>
        <time>2022-05-12T08:25:10Z</time>
      </trkpt>
      <trkpt lat="45.8778" lon="5.74245">
        <ele>999.91</ele>
        <time>2022-05-12T08:25:31Z</time>
      </trkpt>
      <trkpt lat="45.87785" lon="5.74245">
        <ele>1003.27</ele>
        <time>2022-05-12T08:25:52Z</time>
      </trkpt>
      <trkpt lat="45.87793" lon="5.74246">
        <ele>1006.16</ele>
        <time>2022-05-12T08:26:09Z</time>
      </trkpt>
      <trkpt lat="45.878" lon="5.7425">
        <ele>1008.08</ele>
        <time>2022-05-12T08:26:22Z</time>
      </trkpt>
      <trkpt lat="45.87801" lon="5.74248">
        <ele>1009.52</ele>
        <time>2022-05-12T08:26:28Z</time>
      </trkpt>
      <trkpt lat="45.87805" lon="5.74246">
        <ele>1012.41</ele>
        <time>2022-05-12T08:26:50Z</time>
      </trkpt>
      <trkpt lat="45.8781" lon="5.74247">
        <ele>1015.77</ele>
        <time>2022-05-12T08:27:18Z</time>
      </trkpt>
      <trkpt lat="45.87813" lon="5.74249">
        <ele>1017.21</ele>
        <time>2022-05-12T08:27:30Z</time>
      </trkpt>
      <trkpt lat="45.87817" lon="5.74254">
        <ele>1017.69</ele>
        <time>2022-05-12T08:27:37Z</time>
      </trkpt>
      <trkpt lat="45.87826" lon="5.74256">
        <ele>1020.58</ele>
        <time>2022-05-12T08:27:58Z</time>
      </trkpt>
      <trkpt lat="45.87829" lon="5.74252">
        <ele>1023.94</ele>
        <time>2022-05-12T08:28:14Z</time>
      </trkpt>
      <trkpt lat="45.87829" lon="5.74246">
        <ele>1024.9</ele>
        <time>2022-05-12T08:28:21Z</time>
      </trkpt>
      <trkpt lat="45.87832" lon="5.74235">
        <ele>1027.79</ele>
        <time>2022-05-12T08:28:42Z</time>
      </trkpt>
      <trkpt lat="45.87839" lon="5.74235">
        <ele>1030.67</ele>
        <time>2022-05-12T08:29:02Z</time>
      </trkpt>
      <trkpt lat="45.87844" lon="5.74253">
        <ele>1034.04</ele>
        <time>2022-05-12T08:29:23Z</time>
      </trkpt>
      <trkpt lat="45.87852" lon="5.7425">
        <ele>1036.92</ele>
        <time>2022-05-12T08:29:43Z</time>
      </trkpt>
      <trkpt lat="45.8786" lon="5.7424">
        <ele>1039.8</ele>
        <time>2022-05-12T08:30:06Z</time>
      </trkpt>
      <trkpt lat="45.87864" lon="5.7424">
        <ele>1043.17</ele>
        <time>2022-05-12T08:30:27Z</time>
      </trkpt>
      <trkpt lat="45.87867" lon="5.74243">
        <ele>1044.13</ele>
        <time>2022-05-12T08:30:36Z</time>
      </trkpt>
      <trkpt lat="45.8788" lon="5.74256">
        <ele>1047.01</ele>
        <time>2022-05-12T08:31:02Z</time>
      </trkpt>
      <trkpt lat="45.87895" lon="5.74267">
        <ele>1050.38</ele>
        <time>2022-05-12T08:31:31Z</time>
      </trkpt>
      <trkpt lat="45.87898" lon="5.74273">
        <ele>1052.78</ele>
        <time>2022-05-12T08:32:02Z</time>
      </trkpt>
      <trkpt lat="45.87898" lon="5.74274">
        <ele>1054.7</ele>
        <time>2022-05-12T08:32:39Z</time>
      </trkpt>
      <trkpt lat="45.87905" lon="5.74275">
        <ele>1057.59</ele>
        <time>2022-05-12T08:33:13Z</time>
      </trkpt>
      <trkpt lat="45.87914" lon="5.74274">
        <ele>1060.47</ele>
        <time>2022-05-12T08:33:38Z</time>
      </trkpt>
      <trkpt lat="45.87919" lon="5.7427">
        <ele>1063.84</ele>
        <time>2022-05-12T08:34:13Z</time>
      </trkpt>
      <trkpt lat="45.87923" lon="5.7426">
        <ele>1066.72</ele>
        <time>2022-05-12T08:34:37Z</time>
      </trkpt>
      <trkpt lat="45.87926" lon="5.74258">
        <ele>1069.6</ele>
        <time>2022-05-12T08:34:58Z</time>
      </trkpt>
      <trkpt lat="45.87926" lon="5.7426">
        <ele>1069.12</ele>
        <time>2022-05-12T08:35:34Z</time>
      </trkpt>
      <trkpt lat="45.87927" lon="5.7426">
        <ele>1069.6</ele>
        <time>2022-05-12T08:36:06Z</time>
      </trkpt>
      <trkpt lat="45.87925" lon="5.74252">
        <ele>1070.08</ele>
        <time>2022-05-12T08:36:44Z</time>
      </trkpt>
      <trkpt lat="45.87913" lon="5.74224">
        <ele>1072.97</ele>
        <time>2022-05-12T08:37:12Z</time>
      </trkpt>
      <trkpt lat="45.87903" lon="5.7419">
        <ele>1076.33</ele>
        <time>2022-05-12T08:37:38Z</time>
      </trkpt>
      <trkpt lat="45.87904" lon="5.74163">
        <ele>1079.22</ele>
        <time>2022-05-12T08:38:02Z</time>
      </trkpt>
      <trkpt lat="45.87911" lon="5.74134">
        <ele>1082.58</ele>
        <time>2022-05-12T08:38:25Z</time>
      </trkpt>
      <trkpt lat="45.87924" lon="5.74122">
        <ele>1085.47</ele>
        <time>2022-05-12T08:38:47Z</time>
      </trkpt>
      <trkpt lat="45.8795" lon="5.74114">
        <ele>1088.83</ele>
        <time>2022-05-12T08:39:18Z</time>
      </trkpt>
      <trkpt lat="45.8798" lon="5.74116">
        <ele>1088.35</ele>
        <time>2022-05-12T08:39:45Z</time>
      </trkpt>
      <trkpt lat="45.87987" lon="5.74118">
        <ele>1088.83</ele>
        <time>2022-05-12T08:39:52Z</time>
      </trkpt>
      <trkpt lat="45.87988" lon="5.74118">
        <ele>1088.83</ele>
        <time>2022-05-12T08:39:53Z</time>
      </trkpt>
      <trkpt lat="45.8799" lon="5.74118">
        <ele>1088.83</ele>
        <time>2022-05-12T08:39:54Z</time>
      </trkpt>
      <trkpt lat="45.88022" lon="5.74122">
        <ele>1089.31</ele>
        <time>2022-05-12T08:40:23Z</time>
      </trkpt>
      <trkpt lat="45.8805" lon="5.74126">
        <ele>1091.23</ele>
        <time>2022-05-12T08:40:50Z</time>
      </trkpt>
      <trkpt lat="45.88055" lon="5.74127">
        <ele>1091.71</ele>
        <time>2022-05-12T08:40:53Z</time>
      </trkpt>
      <trkpt lat="45.88073" lon="5.74129">
        <ele>1091.23</ele>
        <time>2022-05-12T08:41:12Z</time>
      </trkpt>
      <trkpt lat="45.88095" lon="5.74135">
        <ele>1090.27</ele>
        <time>2022-05-12T08:41:34Z</time>
      </trkpt>
      <trkpt lat="45.88115" lon="5.74166">
        <ele>1090.27</ele>
        <time>2022-05-12T08:42:03Z</time>
      </trkpt>
      <trkpt lat="45.88133" lon="5.7419">
        <ele>1088.35</ele>
        <time>2022-05-12T08:42:28Z</time>
      </trkpt>
      <trkpt lat="45.88145" lon="5.74204">
        <ele>1091.23</ele>
        <time>2022-05-12T08:42:45Z</time>
      </trkpt>
      <trkpt lat="45.88167" lon="5.74231">
        <ele>1089.79</ele>
        <time>2022-05-12T08:43:12Z</time>
      </trkpt>
      <trkpt lat="45.88189" lon="5.74262">
        <ele>1091.71</ele>
        <time>2022-05-12T08:43:39Z</time>
      </trkpt>
      <trkpt lat="45.88197" lon="5.74296">
        <ele>1092.2</ele>
        <time>2022-05-12T08:44:06Z</time>
      </trkpt>
      <trkpt lat="45.88201" lon="5.7431">
        <ele>1090.75</ele>
        <time>2022-05-12T08:44:28Z</time>
      </trkpt>
      <trkpt lat="45.88202" lon="5.7431">
        <ele>1091.23</ele>
        <time>2022-05-12T08:44:50Z</time>
      </trkpt>
      <trkpt lat="45.88205" lon="5.74318">
        <ele>1090.75</ele>
        <time>2022-05-12T08:45:10Z</time>
      </trkpt>
      <trkpt lat="45.88213" lon="5.74336">
        <ele>1091.23</ele>
        <time>2022-05-12T08:45:28Z</time>
      </trkpt>
      <trkpt lat="45.88215" lon="5.74344">
        <ele>1093.64</ele>
        <time>2022-05-12T08:45:40Z</time>
      </trkpt>
      <trkpt lat="45.88216" lon="5.74364">
        <ele>1094.6</ele>
        <time>2022-05-12T08:45:58Z</time>
      </trkpt>
      <trkpt lat="45.88221" lon="5.74393">
        <ele>1097.96</ele>
        <time>2022-05-12T08:46:23Z</time>
      </trkpt>
      <trkpt lat="45.88227" lon="5.74417">
        <ele>1100.85</ele>
        <time>2022-05-12T08:46:46Z</time>
      </trkpt>
      <trkpt lat="45.88228" lon="5.74427">
        <ele>1102.77</ele>
        <time>2022-05-12T08:46:55Z</time>
      </trkpt>
      <trkpt lat="45.88227" lon="5.74429">
        <ele>1102.77</ele>
        <time>2022-05-12T08:46:56Z</time>
      </trkpt>
      <trkpt lat="45.88234" lon="5.74452">
        <ele>1105.65</ele>
        <time>2022-05-12T08:47:17Z</time>
      </trkpt>
      <trkpt lat="45.8824" lon="5.74474">
        <ele>1109.02</ele>
        <time>2022-05-12T08:47:36Z</time>
      </trkpt>
      <trkpt lat="45.88248" lon="5.74496">
        <ele>1111.9</ele>
        <time>2022-05-12T08:47:58Z</time>
      </trkpt>
      <trkpt lat="45.88262" lon="5.74516">
        <ele>1114.79</ele>
        <time>2022-05-12T08:48:21Z</time>
      </trkpt>
      <trkpt lat="45.88274" lon="5.74538">
        <ele>1118.15</ele>
        <time>2022-05-12T08:48:44Z</time>
      </trkpt>
      <trkpt lat="45.88284" lon="5.74558">
        <ele>1120.55</ele>
        <time>2022-05-12T08:49:04Z</time>
      </trkpt>
      <trkpt lat="45.88278" lon="5.74575">
        <ele>1122.96</ele>
        <time>2022-05-12T08:49:26Z</time>
      </trkpt>
      <trkpt lat="45.88261" lon="5.74566">
        <ele>1125.84</ele>
        <time>2022-05-12T08:49:50Z</time>
      </trkpt>
      <trkpt lat="45.88242" lon="5.7455">
        <ele>1128.73</ele>
        <time>2022-05-12T08:50:13Z</time>
      </trkpt>
      <trkpt lat="45.88222" lon="5.74543">
        <ele>1131.13</ele>
        <time>2022-05-12T08:50:36Z</time>
      </trkpt>
      <trkpt lat="45.88199" lon="5.74543">
        <ele>1134.01</ele>
        <time>2022-05-12T08:50:59Z</time>
      </trkpt>
      <trkpt lat="45.88181" lon="5.74544">
        <ele>1136.9</ele>
        <time>2022-05-12T08:51:20Z</time>
      </trkpt>
      <trkpt lat="45.88166" lon="5.74551">
        <ele>1138.82</ele>
        <time>2022-05-12T08:51:38Z</time>
      </trkpt>
      <trkpt lat="45.88149" lon="5.74561">
        <ele>1141.22</ele>
        <time>2022-05-12T08:51:59Z</time>
      </trkpt>
      <trkpt lat="45.88132" lon="5.74568">
        <ele>1144.59</ele>
        <time>2022-05-12T08:52:21Z</time>
      </trkpt>
      <trkpt lat="45.8811" lon="5.7458">
        <ele>1147.47</ele>
        <time>2022-05-12T08:52:45Z</time>
      </trkpt>
      <trkpt lat="45.88096" lon="5.74588">
        <ele>1150.84</ele>
        <time>2022-05-12T08:53:02Z</time>
      </trkpt>
      <trkpt lat="45.88077" lon="5.74601">
        <ele>1153.72</ele>
        <time>2022-05-12T08:53:24Z</time>
      </trkpt>
      <trkpt lat="45.88065" lon="5.74609">
        <ele>1156.6</ele>
        <time>2022-05-12T08:53:42Z</time>
      </trkpt>
      <trkpt lat="45.88048" lon="5.7462">
        <ele>1159.97</ele>
        <time>2022-05-12T08:54:06Z</time>
      </trkpt>
      <trkpt lat="45.8803" lon="5.74633">
        <ele>1161.89</ele>
        <time>2022-05-12T08:54:26Z</time>
      </trkpt>
      <trkpt lat="45.8801" lon="5.74648">
        <ele>1165.26</ele>
        <time>2022-05-12T08:54:49Z</time>
      </trkpt>
      <trkpt lat="45.87995" lon="5.74661">
        <ele>1168.14</ele>
        <time>2022-05-12T08:55:09Z</time>
      </trkpt>
      <trkpt lat="45.87978" lon="5.74671">
        <ele>1171.02</ele>
        <time>2022-05-12T08:55:32Z</time>
      </trkpt>
      <trkpt lat="45.87962" lon="5.74682">
        <ele>1174.39</ele>
        <time>2022-05-12T08:55:54Z</time>
      </trkpt>
      <trkpt lat="45.87953" lon="5.7469">
        <ele>1177.75</ele>
        <time>2022-05-12T08:56:12Z</time>
      </trkpt>
      <trkpt lat="45.87942" lon="5.74703">
        <ele>1180.64</ele>
        <time>2022-05-12T08:56:32Z</time>
      </trkpt>
      <trkpt lat="45.8793" lon="5.74715">
        <ele>1183.52</ele>
        <time>2022-05-12T08:56:51Z</time>
      </trkpt>
      <trkpt lat="45.87917" lon="5.74725">
        <ele>1186.88</ele>
        <time>2022-05-12T08:57:09Z</time>
      </trkpt>
      <trkpt lat="45.87902" lon="5.74732">
        <ele>1189.77</ele>
        <time>2022-05-12T08:57:30Z</time>
      </trkpt>
      <trkpt lat="45.87893" lon="5.74743">
        <ele>1192.65</ele>
        <time>2022-05-12T08:57:47Z</time>
      </trkpt>
      <trkpt lat="45.87875" lon="5.74754">
        <ele>1195.54</ele>
        <time>2022-05-12T08:58:09Z</time>
      </trkpt>
      <trkpt lat="45.87864" lon="5.74763">
        <ele>1198.9</ele>
        <time>2022-05-12T08:58:27Z</time>
      </trkpt>
      <trkpt lat="45.87846" lon="5.74779">
        <ele>1201.79</ele>
        <time>2022-05-12T08:58:49Z</time>
      </trkpt>
      <trkpt lat="45.87835" lon="5.74786">
        <ele>1204.67</ele>
        <time>2022-05-12T08:59:05Z</time>
      </trkpt>
      <trkpt lat="45.87819" lon="5.74799">
        <ele>1208.03</ele>
        <time>2022-05-12T08:59:26Z</time>
      </trkpt>
      <trkpt lat="45.87802" lon="5.74816">
        <ele>1211.4</ele>
        <time>2022-05-12T08:59:49Z</time>
      </trkpt>
      <trkpt lat="45.87785" lon="5.74826">
        <ele>1214.28</ele>
        <time>2022-05-12T09:00:12Z</time>
      </trkpt>
      <trkpt lat="45.87774" lon="5.74833">
        <ele>1217.65</ele>
        <time>2022-05-12T09:00:29Z</time>
      </trkpt>
      <trkpt lat="45.87756" lon="5.74845">
        <ele>1220.53</ele>
        <time>2022-05-12T09:00:54Z</time>
      </trkpt>
      <trkpt lat="45.87741" lon="5.74855">
        <ele>1223.42</ele>
        <time>2022-05-12T09:01:14Z</time>
      </trkpt>
      <trkpt lat="45.87728" lon="5.74865">
        <ele>1226.78</ele>
        <time>2022-05-12T09:01:31Z</time>
      </trkpt>
      <trkpt lat="45.87715" lon="5.74874">
        <ele>1230.14</ele>
        <time>2022-05-12T09:01:49Z</time>
      </trkpt>
      <trkpt lat="45.87706" lon="5.74881">
        <ele>1233.03</ele>
        <time>2022-05-12T09:02:03Z</time>
      </trkpt>
      <trkpt lat="45.87695" lon="5.74891">
        <ele>1236.39</ele>
        <time>2022-05-12T09:02:22Z</time>
      </trkpt>
      <trkpt lat="45.87682" lon="5.74902">
        <ele>1239.28</ele>
        <time>2022-05-12T09:02:42Z</time>
      </trkpt>
      <trkpt lat="45.87667" lon="5.74915">
        <ele>1242.16</ele>
        <time>2022-05-12T09:03:04Z</time>
      </trkpt>
      <trkpt lat="45.8766" lon="5.74928">
        <ele>1243.12</ele>
        <time>2022-05-12T09:03:21Z</time>
      </trkpt>
      <trkpt lat="45.87668" lon="5.74937">
        <ele>1244.56</ele>
        <time>2022-05-12T09:03:40Z</time>
      </trkpt>
      <trkpt lat="45.87682" lon="5.74938">
        <ele>1246.49</ele>
        <time>2022-05-12T09:03:58Z</time>
      </trkpt>
      <trkpt lat="45.87699" lon="5.74941">
        <ele>1248.41</ele>
        <time>2022-05-12T09:04:16Z</time>
      </trkpt>
      <trkpt lat="45.87709" lon="5.74947">
        <ele>1251.29</ele>
        <time>2022-05-12T09:04:31Z</time>
      </trkpt>
      <trkpt lat="45.87712" lon="5.74956">
        <ele>1253.22</ele>
        <time>2022-05-12T09:04:45Z</time>
      </trkpt>
      <trkpt lat="45.87712" lon="5.74961">
        <ele>1255.14</ele>
        <time>2022-05-12T09:05:01Z</time>
      </trkpt>
      <trkpt lat="45.87712" lon="5.74951">
        <ele>1254.18</ele>
        <time>2022-05-12T09:05:17Z</time>
      </trkpt>
      <trkpt lat="45.87712" lon="5.7495">
        <ele>1254.18</ele>
        <time>2022-05-12T09:05:18Z</time>
      </trkpt>
      <trkpt lat="45.87709" lon="5.74936">
        <ele>1251.77</ele>
        <time>2022-05-12T09:05:33Z</time>
      </trkpt>
      <trkpt lat="45.87711" lon="5.74929">
        <ele>1249.37</ele>
        <time>2022-05-12T09:06:04Z</time>
      </trkpt>
      <trkpt lat="45.8771" lon="5.74928">
        <ele>1246.97</ele>
        <time>2022-05-12T09:06:41Z</time>
      </trkpt>
      <trkpt lat="45.8771" lon="5.74928">
        <ele>1250.33</ele>
        <time>2022-05-12T09:07:00Z</time>
      </trkpt>
      <trkpt lat="45.8771" lon="5.74928">
        <ele>1246.97</ele>
        <time>2022-05-12T09:07:08Z</time>
      </trkpt>
      <trkpt lat="45.8771" lon="5.74928">
        <ele>1249.37</ele>
        <time>2022-05-12T09:07:16Z</time>
      </trkpt>
      <trkpt lat="45.8771" lon="5.74928">
        <ele>1248.41</ele>
        <time>2022-05-12T09:07:52Z</time>
      </trkpt>
      <trkpt lat="45.8771" lon="5.74933">
        <ele>1248.41</ele>
        <time>2022-05-12T09:08:23Z</time>
      </trkpt>
      <trkpt lat="45.87709" lon="5.74934">
        <ele>1248.41</ele>
        <time>2022-05-12T09:08:54Z</time>
      </trkpt>
      <trkpt lat="45.8771" lon="5.74935">
        <ele>1248.41</ele>
        <time>2022-05-12T09:09:29Z</time>
      </trkpt>
      <trkpt lat="45.87711" lon="5.74935">
        <ele>1251.29</ele>
        <time>2022-05-12T09:09:45Z</time>
      </trkpt>
      <trkpt lat="45.87714" lon="5.74947">
        <ele>1253.22</ele>
        <time>2022-05-12T09:10:02Z</time>
      </trkpt>
      <trkpt lat="45.87712" lon="5.74961">
        <ele>1254.66</ele>
        <time>2022-05-12T09:10:16Z</time>
      </trkpt>
      <trkpt lat="45.87705" lon="5.7497">
        <ele>1255.14</ele>
        <time>2022-05-12T09:10:26Z</time>
      </trkpt>
      <trkpt lat="45.87704" lon="5.74972">
        <ele>1255.14</ele>
        <time>2022-05-12T09:10:42Z</time>
      </trkpt>
      <trkpt lat="45.87704" lon="5.74972">
        <ele>1254.18</ele>
        <time>2022-05-12T09:11:02Z</time>
      </trkpt>
      <trkpt lat="45.87598" lon="5.7498">
        <ele>1246.49</ele>
        <time>2022-05-12T09:17:14Z</time>
      </trkpt>
      <trkpt lat="45.87598" lon="5.74981">
        <ele>1246.49</ele>
        <time>2022-05-12T09:17:33Z</time>
      </trkpt>
      <trkpt lat="45.87596" lon="5.74982">
        <ele>1246.49</ele>
        <time>2022-05-12T09:17:52Z</time>
      </trkpt>
      <trkpt lat="45.87592" lon="5.74982">
        <ele>1246.49</ele>
        <time>2022-05-12T09:17:56Z</time>
      </trkpt>
      <trkpt lat="45.87571" lon="5.74984">
        <ele>1244.56</ele>
        <time>2022-05-12T09:18:15Z</time>
      </trkpt>
      <trkpt lat="45.87549" lon="5.74987">
        <ele>1242.16</ele>
        <time>2022-05-12T09:18:33Z</time>
      </trkpt>
      <trkpt lat="45.87547" lon="5.74987">
        <ele>1241.68</ele>
        <time>2022-05-12T09:18:35Z</time>
      </trkpt>
      <trkpt lat="45.8753" lon="5.74984">
        <ele>1240.72</ele>
        <time>2022-05-12T09:18:50Z</time>
      </trkpt>
      <trkpt lat="45.8751" lon="5.74981">
        <ele>1238.8</ele>
        <time>2022-05-12T09:19:07Z</time>
      </trkpt>
      <trkpt lat="45.87496" lon="5.7498">
        <ele>1238.32</ele>
        <time>2022-05-12T09:19:19Z</time>
      </trkpt>
      <trkpt lat="45.87491" lon="5.74984">
        <ele>1235.43</ele>
        <time>2022-05-12T09:19:25Z</time>
      </trkpt>
      <trkpt lat="45.87482" lon="5.7499">
        <ele>1234.95</ele>
        <time>2022-05-12T09:19:35Z</time>
      </trkpt>
      <trkpt lat="45.87471" lon="5.74992">
        <ele>1237.83</ele>
        <time>2022-05-12T09:19:46Z</time>
      </trkpt>
      <trkpt lat="45.87457" lon="5.74993">
        <ele>1235.91</ele>
        <time>2022-05-12T09:20:04Z</time>
      </trkpt>
      <trkpt lat="45.87452" lon="5.74993">
        <ele>1234.47</ele>
        <time>2022-05-12T09:20:20Z</time>
      </trkpt>
      <trkpt lat="45.87451" lon="5.74993">
        <ele>1233.99</ele>
        <time>2022-05-12T09:20:42Z</time>
      </trkpt>
      <trkpt lat="45.87449" lon="5.74995">
        <ele>1233.99</ele>
        <time>2022-05-12T09:21:07Z</time>
      </trkpt>
      <trkpt lat="45.87441" lon="5.75">
        <ele>1232.55</ele>
        <time>2022-05-12T09:21:19Z</time>
      </trkpt>
      <trkpt lat="45.87438" lon="5.75">
        <ele>1230.62</ele>
        <time>2022-05-12T09:21:35Z</time>
      </trkpt>
      <trkpt lat="45.87437" lon="5.75001">
        <ele>1230.14</ele>
        <time>2022-05-12T09:21:54Z</time>
      </trkpt>
      <trkpt lat="45.87433" lon="5.75">
        <ele>1229.66</ele>
        <time>2022-05-12T09:22:09Z</time>
      </trkpt>
      <trkpt lat="45.8743" lon="5.75003">
        <ele>1229.18</ele>
        <time>2022-05-12T09:22:24Z</time>
      </trkpt>
      <trkpt lat="45.87428" lon="5.75005">
        <ele>1229.18</ele>
        <time>2022-05-12T09:22:28Z</time>
      </trkpt>
      <trkpt lat="45.87424" lon="5.75007">
        <ele>1228.22</ele>
        <time>2022-05-12T09:22:43Z</time>
      </trkpt>
      <trkpt lat="45.87422" lon="5.75009">
        <ele>1227.74</ele>
        <time>2022-05-12T09:23:02Z</time>
      </trkpt>
      <trkpt lat="45.87422" lon="5.75009">
        <ele>1226.78</ele>
        <time>2022-05-12T09:23:17Z</time>
      </trkpt>
      <trkpt lat="45.87422" lon="5.75007">
        <ele>1227.26</ele>
        <time>2022-05-12T09:23:33Z</time>
      </trkpt>
      <trkpt lat="45.87422" lon="5.75008">
        <ele>1227.26</ele>
        <time>2022-05-12T09:23:53Z</time>
      </trkpt>
      <trkpt lat="45.87422" lon="5.75007">
        <ele>1223.42</ele>
        <time>2022-05-12T09:24:06Z</time>
      </trkpt>
      <trkpt lat="45.87422" lon="5.75007">
        <ele>1221.97</ele>
        <time>2022-05-12T09:24:08Z</time>
      </trkpt>
      <trkpt lat="45.87423" lon="5.75007">
        <ele>1225.82</ele>
        <time>2022-05-12T09:24:15Z</time>
      </trkpt>
      <trkpt lat="45.87423" lon="5.75007">
        <ele>1230.14</ele>
        <time>2022-05-12T09:24:17Z</time>
      </trkpt>
      <trkpt lat="45.87423" lon="5.75007">
        <ele>1228.22</ele>
        <time>2022-05-12T09:24:46Z</time>
      </trkpt>
      <trkpt lat="45.87424" lon="5.75007">
        <ele>1228.22</ele>
        <time>2022-05-12T09:25:11Z</time>
      </trkpt>
      <trkpt lat="45.87423" lon="5.75008">
        <ele>1227.26</ele>
        <time>2022-05-12T09:25:33Z</time>
      </trkpt>
      <trkpt lat="45.87423" lon="5.75008">
        <ele>1226.78</ele>
        <time>2022-05-12T09:25:58Z</time>
      </trkpt>
      <trkpt lat="45.87422" lon="5.75007">
        <ele>1226.78</ele>
        <time>2022-05-12T09:26:16Z</time>
      </trkpt>
      <trkpt lat="45.87422" lon="5.75008">
        <ele>1227.26</ele>
        <time>2022-05-12T09:26:33Z</time>
      </trkpt>
      <trkpt lat="45.87423" lon="5.75009">
        <ele>1227.26</ele>
        <time>2022-05-12T09:26:49Z</time>
      </trkpt>
      <trkpt lat="45.87424" lon="5.75008">
        <ele>1227.26</ele>
        <time>2022-05-12T09:27:14Z</time>
      </trkpt>
      <trkpt lat="45.87433" lon="5.74998">
        <ele>1227.74</ele>
        <time>2022-05-12T09:27:29Z</time>
      </trkpt>
      <trkpt lat="45.87436" lon="5.74997">
        <ele>1228.22</ele>
        <time>2022-05-12T09:27:32Z</time>
      </trkpt>
      <trkpt lat="45.87448" lon="5.74996">
        <ele>1230.62</ele>
        <time>2022-05-12T09:27:47Z</time>
      </trkpt>
      <trkpt lat="45.87456" lon="5.74991">
        <ele>1232.55</ele>
        <time>2022-05-12T09:27:57Z</time>
      </trkpt>
      <trkpt lat="45.87473" lon="5.74992">
        <ele>1235.43</ele>
        <time>2022-05-12T09:28:14Z</time>
      </trkpt>
      <trkpt lat="45.87485" lon="5.74989">
        <ele>1236.39</ele>
        <time>2022-05-12T09:28:26Z</time>
      </trkpt>
      <trkpt lat="45.875" lon="5.74981">
        <ele>1236.87</ele>
        <time>2022-05-12T09:28:42Z</time>
      </trkpt>
      <trkpt lat="45.87514" lon="5.74982">
        <ele>1238.32</ele>
        <time>2022-05-12T09:28:57Z</time>
      </trkpt>
      <trkpt lat="45.8753" lon="5.74985">
        <ele>1239.76</ele>
        <time>2022-05-12T09:29:14Z</time>
      </trkpt>
      <trkpt lat="45.87542" lon="5.74984">
        <ele>1241.2</ele>
        <time>2022-05-12T09:29:29Z</time>
      </trkpt>
      <trkpt lat="45.8755" lon="5.74987">
        <ele>1242.16</ele>
        <time>2022-05-12T09:29:42Z</time>
      </trkpt>
      <trkpt lat="45.87553" lon="5.74987">
        <ele>1242.16</ele>
        <time>2022-05-12T09:29:45Z</time>
      </trkpt>
      <trkpt lat="45.87554" lon="5.74987">
        <ele>1242.16</ele>
        <time>2022-05-12T09:29:46Z</time>
      </trkpt>
      <trkpt lat="45.87555" lon="5.74987">
        <ele>1242.16</ele>
        <time>2022-05-12T09:29:47Z</time>
      </trkpt>
      <trkpt lat="45.87557" lon="5.74986">
        <ele>1242.16</ele>
        <time>2022-05-12T09:29:48Z</time>
      </trkpt>
      <trkpt lat="45.87558" lon="5.74986">
        <ele>1242.16</ele>
        <time>2022-05-12T09:29:49Z</time>
      </trkpt>
      <trkpt lat="45.87559" lon="5.74985">
        <ele>1242.16</ele>
        <time>2022-05-12T09:29:50Z</time>
      </trkpt>
      <trkpt lat="45.87577" lon="5.74984">
        <ele>1244.08</ele>
        <time>2022-05-12T09:30:09Z</time>
      </trkpt>
      <trkpt lat="45.87594" lon="5.7498">
        <ele>1246.49</ele>
        <time>2022-05-12T09:30:26Z</time>
      </trkpt>
      <trkpt lat="45.87612" lon="5.74978">
        <ele>1248.41</ele>
        <time>2022-05-12T09:30:44Z</time>
      </trkpt>
      <trkpt lat="45.87632" lon="5.74978">
        <ele>1250.81</ele>
        <time>2022-05-12T09:31:05Z</time>
      </trkpt>
      <trkpt lat="45.87648" lon="5.74976">
        <ele>1252.25</ele>
        <time>2022-05-12T09:31:23Z</time>
      </trkpt>
      <trkpt lat="45.87657" lon="5.74983">
        <ele>1254.18</ele>
        <time>2022-05-12T09:31:39Z</time>
      </trkpt>
      <trkpt lat="45.87672" lon="5.74988">
        <ele>1255.62</ele>
        <time>2022-05-12T09:31:56Z</time>
      </trkpt>
      <trkpt lat="45.87684" lon="5.74988">
        <ele>1257.06</ele>
        <time>2022-05-12T09:32:09Z</time>
      </trkpt>
      <trkpt lat="45.87695" lon="5.74991">
        <ele>1258.5</ele>
        <time>2022-05-12T09:32:24Z</time>
      </trkpt>
      <trkpt lat="45.87696" lon="5.74991">
        <ele>1258.5</ele>
        <time>2022-05-12T09:32:25Z</time>
      </trkpt>
      <trkpt lat="45.87709" lon="5.74996">
        <ele>1258.98</ele>
        <time>2022-05-12T09:32:40Z</time>
      </trkpt>
      <trkpt lat="45.87722" lon="5.75002">
        <ele>1260.43</ele>
        <time>2022-05-12T09:32:56Z</time>
      </trkpt>
      <trkpt lat="45.87733" lon="5.75007">
        <ele>1260.91</ele>
        <time>2022-05-12T09:33:08Z</time>
      </trkpt>
      <trkpt lat="45.87734" lon="5.75007">
        <ele>1260.91</ele>
        <time>2022-05-12T09:33:09Z</time>
      </trkpt>
      <trkpt lat="45.8775" lon="5.75007">
        <ele>1262.83</ele>
        <time>2022-05-12T09:33:25Z</time>
      </trkpt>
      <trkpt lat="45.87763" lon="5.74999">
        <ele>1263.79</ele>
        <time>2022-05-12T09:33:42Z</time>
      </trkpt>
      <trkpt lat="45.87764" lon="5.74998">
        <ele>1263.31</ele>
        <time>2022-05-12T09:33:43Z</time>
      </trkpt>
      <trkpt lat="45.87766" lon="5.74998">
        <ele>1262.83</ele>
        <time>2022-05-12T09:33:46Z</time>
      </trkpt>
      <trkpt lat="45.87767" lon="5.74998">
        <ele>1262.83</ele>
        <time>2022-05-12T09:33:47Z</time>
      </trkpt>
      <trkpt lat="45.87788" lon="5.74999">
        <ele>1259.46</ele>
        <time>2022-05-12T09:34:04Z</time>
      </trkpt>
      <trkpt lat="45.87804" lon="5.75003">
        <ele>1259.94</ele>
        <time>2022-05-12T09:34:20Z</time>
      </trkpt>
      <trkpt lat="45.87819" lon="5.75005">
        <ele>1261.39</ele>
        <time>2022-05-12T09:34:34Z</time>
      </trkpt>
      <trkpt lat="45.87837" lon="5.75009">
        <ele>1263.79</ele>
        <time>2022-05-12T09:34:50Z</time>
      </trkpt>
      <trkpt lat="45.87855" lon="5.75015">
        <ele>1265.71</ele>
        <time>2022-05-12T09:35:08Z</time>
      </trkpt>
      <trkpt lat="45.87873" lon="5.75018">
        <ele>1268.12</ele>
        <time>2022-05-12T09:35:26Z</time>
      </trkpt>
      <trkpt lat="45.8789" lon="5.75022">
        <ele>1270.04</ele>
        <time>2022-05-12T09:35:43Z</time>
      </trkpt>
      <trkpt lat="45.87905" lon="5.75027">
        <ele>1271.48</ele>
        <time>2022-05-12T09:35:58Z</time>
      </trkpt>
      <trkpt lat="45.87907" lon="5.75027">
        <ele>1271.96</ele>
        <time>2022-05-12T09:35:59Z</time>
      </trkpt>
      <trkpt lat="45.87922" lon="5.75031">
        <ele>1273.4</ele>
        <time>2022-05-12T09:36:15Z</time>
      </trkpt>
      <trkpt lat="45.8794" lon="5.75036">
        <ele>1275.81</ele>
        <time>2022-05-12T09:36:33Z</time>
      </trkpt>
      <trkpt lat="45.87958" lon="5.75039">
        <ele>1278.21</ele>
        <time>2022-05-12T09:36:52Z</time>
      </trkpt>
      <trkpt lat="45.8798" lon="5.75046">
        <ele>1281.09</ele>
        <time>2022-05-12T09:37:13Z</time>
      </trkpt>
      <trkpt lat="45.87997" lon="5.7505">
        <ele>1283.02</ele>
        <time>2022-05-12T09:37:31Z</time>
      </trkpt>
      <trkpt lat="45.88015" lon="5.75055">
        <ele>1284.46</ele>
        <time>2022-05-12T09:37:48Z</time>
      </trkpt>
      <trkpt lat="45.88033" lon="5.75062">
        <ele>1285.9</ele>
        <time>2022-05-12T09:38:06Z</time>
      </trkpt>
      <trkpt lat="45.88046" lon="5.7507">
        <ele>1286.38</ele>
        <time>2022-05-12T09:38:21Z</time>
      </trkpt>
      <trkpt lat="45.88063" lon="5.75087">
        <ele>1287.82</ele>
        <time>2022-05-12T09:38:39Z</time>
      </trkpt>
      <trkpt lat="45.88076" lon="5.75114">
        <ele>1288.78</ele>
        <time>2022-05-12T09:38:59Z</time>
      </trkpt>
      <trkpt lat="45.88089" lon="5.75142">
        <ele>1288.78</ele>
        <time>2022-05-12T09:39:19Z</time>
      </trkpt>
      <trkpt lat="45.88107" lon="5.75161">
        <ele>1288.3</ele>
        <time>2022-05-12T09:39:39Z</time>
      </trkpt>
      <trkpt lat="45.88123" lon="5.7518">
        <ele>1288.3</ele>
        <time>2022-05-12T09:39:59Z</time>
      </trkpt>
      <trkpt lat="45.88139" lon="5.75204">
        <ele>1286.86</ele>
        <time>2022-05-12T09:40:19Z</time>
      </trkpt>
      <trkpt lat="45.88159" lon="5.75224">
        <ele>1286.38</ele>
        <time>2022-05-12T09:40:40Z</time>
      </trkpt>
      <trkpt lat="45.88176" lon="5.75239">
        <ele>1285.9</ele>
        <time>2022-05-12T09:40:58Z</time>
      </trkpt>
      <trkpt lat="45.88197" lon="5.75252">
        <ele>1285.9</ele>
        <time>2022-05-12T09:41:17Z</time>
      </trkpt>
      <trkpt lat="45.88215" lon="5.75259">
        <ele>1285.9</ele>
        <time>2022-05-12T09:41:34Z</time>
      </trkpt>
      <trkpt lat="45.88232" lon="5.75265">
        <ele>1284.94</ele>
        <time>2022-05-12T09:41:50Z</time>
      </trkpt>
      <trkpt lat="45.88248" lon="5.75268">
        <ele>1285.42</ele>
        <time>2022-05-12T09:42:06Z</time>
      </trkpt>
      <trkpt lat="45.88264" lon="5.75266">
        <ele>1286.38</ele>
        <time>2022-05-12T09:42:21Z</time>
      </trkpt>
      <trkpt lat="45.88272" lon="5.75267">
        <ele>1286.38</ele>
        <time>2022-05-12T09:42:35Z</time>
      </trkpt>
      <trkpt lat="45.88278" lon="5.75265">
        <ele>1285.9</ele>
        <time>2022-05-12T09:42:50Z</time>
      </trkpt>
      <trkpt lat="45.8828" lon="5.75266">
        <ele>1285.9</ele>
        <time>2022-05-12T09:42:52Z</time>
      </trkpt>
      <trkpt lat="45.88298" lon="5.75272">
        <ele>1286.38</ele>
        <time>2022-05-12T09:43:08Z</time>
      </trkpt>
      <trkpt lat="45.88316" lon="5.75281">
        <ele>1285.9</ele>
        <time>2022-05-12T09:43:26Z</time>
      </trkpt>
      <trkpt lat="45.88334" lon="5.75287">
        <ele>1284.46</ele>
        <time>2022-05-12T09:43:44Z</time>
      </trkpt>
      <trkpt lat="45.88349" lon="5.75291">
        <ele>1282.06</ele>
        <time>2022-05-12T09:44:01Z</time>
      </trkpt>
      <trkpt lat="45.88353" lon="5.75292">
        <ele>1282.06</ele>
        <time>2022-05-12T09:44:06Z</time>
      </trkpt>
      <trkpt lat="45.88354" lon="5.75293">
        <ele>1282.06</ele>
        <time>2022-05-12T09:44:07Z</time>
      </trkpt>
      <trkpt lat="45.88355" lon="5.75294">
        <ele>1281.57</ele>
        <time>2022-05-12T09:44:08Z</time>
      </trkpt>
      <trkpt lat="45.88356" lon="5.75294">
        <ele>1281.57</ele>
        <time>2022-05-12T09:44:09Z</time>
      </trkpt>
      <trkpt lat="45.88357" lon="5.75295">
        <ele>1281.57</ele>
        <time>2022-05-12T09:44:10Z</time>
      </trkpt>
      <trkpt lat="45.88359" lon="5.75295">
        <ele>1281.57</ele>
        <time>2022-05-12T09:44:11Z</time>
      </trkpt>
      <trkpt lat="45.88373" lon="5.75297">
        <ele>1280.13</ele>
        <time>2022-05-12T09:44:27Z</time>
      </trkpt>
      <trkpt lat="45.88391" lon="5.75299">
        <ele>1277.25</ele>
        <time>2022-05-12T09:44:44Z</time>
      </trkpt>
      <trkpt lat="45.88409" lon="5.75301">
        <ele>1273.88</ele>
        <time>2022-05-12T09:45:01Z</time>
      </trkpt>
      <trkpt lat="45.88427" lon="5.75301">
        <ele>1270.52</ele>
        <time>2022-05-12T09:45:17Z</time>
      </trkpt>
      <trkpt lat="45.88445" lon="5.75298">
        <ele>1267.64</ele>
        <time>2022-05-12T09:45:33Z</time>
      </trkpt>
      <trkpt lat="45.88453" lon="5.753">
        <ele>1265.71</ele>
        <time>2022-05-12T09:45:46Z</time>
      </trkpt>
      <trkpt lat="45.88457" lon="5.75301">
        <ele>1265.23</ele>
        <time>2022-05-12T09:45:49Z</time>
      </trkpt>
      <trkpt lat="45.8847" lon="5.75311">
        <ele>1261.87</ele>
        <time>2022-05-12T09:46:04Z</time>
      </trkpt>
      <trkpt lat="45.88475" lon="5.75314">
        <ele>1260.91</ele>
        <time>2022-05-12T09:46:10Z</time>
      </trkpt>
      <trkpt lat="45.88487" lon="5.75313">
        <ele>1257.54</ele>
        <time>2022-05-12T09:46:23Z</time>
      </trkpt>
      <trkpt lat="45.88498" lon="5.75316">
        <ele>1254.66</ele>
        <time>2022-05-12T09:46:37Z</time>
      </trkpt>
      <trkpt lat="45.88506" lon="5.75316">
        <ele>1251.77</ele>
        <time>2022-05-12T09:46:46Z</time>
      </trkpt>
      <trkpt lat="45.88513" lon="5.75318">
        <ele>1249.37</ele>
        <time>2022-05-12T09:46:54Z</time>
      </trkpt>
      <trkpt lat="45.88521" lon="5.75325">
        <ele>1246.01</ele>
        <time>2022-05-12T09:47:06Z</time>
      </trkpt>
      <trkpt lat="45.88528" lon="5.75329">
        <ele>1244.56</ele>
        <time>2022-05-12T09:47:14Z</time>
      </trkpt>
      <trkpt lat="45.88537" lon="5.7534">
        <ele>1241.68</ele>
        <time>2022-05-12T09:47:30Z</time>
      </trkpt>
      <trkpt lat="45.88542" lon="5.75359">
        <ele>1239.28</ele>
        <time>2022-05-12T09:47:53Z</time>
      </trkpt>
      <trkpt lat="45.88541" lon="5.75365">
        <ele>1238.8</ele>
        <time>2022-05-12T09:48:18Z</time>
      </trkpt>
      <trkpt lat="45.88539" lon="5.7537">
        <ele>1238.8</ele>
        <time>2022-05-12T09:48:23Z</time>
      </trkpt>
      <trkpt lat="45.88539" lon="5.75373">
        <ele>1238.8</ele>
        <time>2022-05-12T09:48:28Z</time>
      </trkpt>
      <trkpt lat="45.88543" lon="5.75393">
        <ele>1237.83</ele>
        <time>2022-05-12T09:48:48Z</time>
      </trkpt>
      <trkpt lat="45.88547" lon="5.75423">
        <ele>1236.39</ele>
        <time>2022-05-12T09:49:13Z</time>
      </trkpt>
      <trkpt lat="45.88562" lon="5.75425">
        <ele>1233.03</ele>
        <time>2022-05-12T09:49:30Z</time>
      </trkpt>
      <trkpt lat="45.88573" lon="5.75423">
        <ele>1230.14</ele>
        <time>2022-05-12T09:49:42Z</time>
      </trkpt>
      <trkpt lat="45.88583" lon="5.75426">
        <ele>1227.26</ele>
        <time>2022-05-12T09:49:53Z</time>
      </trkpt>
      <trkpt lat="45.88591" lon="5.75429">
        <ele>1223.9</ele>
        <time>2022-05-12T09:50:04Z</time>
      </trkpt>
      <trkpt lat="45.88598" lon="5.75428">
        <ele>1220.53</ele>
        <time>2022-05-12T09:50:15Z</time>
      </trkpt>
      <trkpt lat="45.88601" lon="5.7543">
        <ele>1219.09</ele>
        <time>2022-05-12T09:50:20Z</time>
      </trkpt>
      <trkpt lat="45.88611" lon="5.7543">
        <ele>1215.72</ele>
        <time>2022-05-12T09:50:33Z</time>
      </trkpt>
      <trkpt lat="45.88626" lon="5.75435">
        <ele>1212.36</ele>
        <time>2022-05-12T09:50:43Z</time>
      </trkpt>
      <trkpt lat="45.88642" lon="5.75444">
        <ele>1209.48</ele>
        <time>2022-05-12T09:50:57Z</time>
      </trkpt>
      <trkpt lat="45.88653" lon="5.75446">
        <ele>1206.59</ele>
        <time>2022-05-12T09:51:09Z</time>
      </trkpt>
      <trkpt lat="45.88662" lon="5.75442">
        <ele>1203.23</ele>
        <time>2022-05-12T09:51:21Z</time>
      </trkpt>
      <trkpt lat="45.88671" lon="5.75436">
        <ele>1200.34</ele>
        <time>2022-05-12T09:51:33Z</time>
      </trkpt>
      <trkpt lat="45.88683" lon="5.75433">
        <ele>1197.46</ele>
        <time>2022-05-12T09:51:40Z</time>
      </trkpt>
      <trkpt lat="45.88693" lon="5.75429">
        <ele>1194.09</ele>
        <time>2022-05-12T09:51:50Z</time>
      </trkpt>
      <trkpt lat="45.88705" lon="5.75429">
        <ele>1191.21</ele>
        <time>2022-05-12T09:52:01Z</time>
      </trkpt>
      <trkpt lat="45.88714" lon="5.75435">
        <ele>1187.85</ele>
        <time>2022-05-12T09:52:10Z</time>
      </trkpt>
      <trkpt lat="45.88719" lon="5.75438">
        <ele>1185.44</ele>
        <time>2022-05-12T09:52:16Z</time>
      </trkpt>
      <trkpt lat="45.88725" lon="5.75442">
        <ele>1182.56</ele>
        <time>2022-05-12T09:52:25Z</time>
      </trkpt>
      <trkpt lat="45.88728" lon="5.75443">
        <ele>1180.64</ele>
        <time>2022-05-12T09:52:28Z</time>
      </trkpt>
      <trkpt lat="45.88735" lon="5.75446">
        <ele>1178.23</ele>
        <time>2022-05-12T09:52:36Z</time>
      </trkpt>
      <trkpt lat="45.88743" lon="5.75452">
        <ele>1175.83</ele>
        <time>2022-05-12T09:52:42Z</time>
      </trkpt>
      <trkpt lat="45.88754" lon="5.75453">
        <ele>1172.95</ele>
        <time>2022-05-12T09:52:52Z</time>
      </trkpt>
      <trkpt lat="45.88767" lon="5.75446">
        <ele>1169.58</ele>
        <time>2022-05-12T09:53:03Z</time>
      </trkpt>
      <trkpt lat="45.88779" lon="5.75442">
        <ele>1166.7</ele>
        <time>2022-05-12T09:53:16Z</time>
      </trkpt>
      <trkpt lat="45.88786" lon="5.75443">
        <ele>1163.33</ele>
        <time>2022-05-12T09:53:26Z</time>
      </trkpt>
      <trkpt lat="45.88791" lon="5.75442">
        <ele>1161.41</ele>
        <time>2022-05-12T09:53:32Z</time>
      </trkpt>
      <trkpt lat="45.88795" lon="5.75442">
        <ele>1159.97</ele>
        <time>2022-05-12T09:53:37Z</time>
      </trkpt>
      <trkpt lat="45.88798" lon="5.75442">
        <ele>1159.01</ele>
        <time>2022-05-12T09:53:41Z</time>
      </trkpt>
      <trkpt lat="45.88799" lon="5.75442">
        <ele>1158.53</ele>
        <time>2022-05-12T09:53:42Z</time>
      </trkpt>
      <trkpt lat="45.888" lon="5.75442">
        <ele>1158.53</ele>
        <time>2022-05-12T09:53:43Z</time>
      </trkpt>
      <trkpt lat="45.88814" lon="5.75441">
        <ele>1155.16</ele>
        <time>2022-05-12T09:53:55Z</time>
      </trkpt>
      <trkpt lat="45.88825" lon="5.75444">
        <ele>1152.28</ele>
        <time>2022-05-12T09:54:06Z</time>
      </trkpt>
      <trkpt lat="45.88829" lon="5.75445">
        <ele>1151.8</ele>
        <time>2022-05-12T09:54:10Z</time>
      </trkpt>
      <trkpt lat="45.8883" lon="5.75445">
        <ele>1151.32</ele>
        <time>2022-05-12T09:54:11Z</time>
      </trkpt>
      <trkpt lat="45.88853" lon="5.75448">
        <ele>1148.43</ele>
        <time>2022-05-12T09:54:30Z</time>
      </trkpt>
      <trkpt lat="45.8886" lon="5.7545">
        <ele>1146.99</ele>
        <time>2022-05-12T09:54:39Z</time>
      </trkpt>
      <trkpt lat="45.8886" lon="5.75451">
        <ele>1146.99</ele>
        <time>2022-05-12T09:54:40Z</time>
      </trkpt>
      <trkpt lat="45.88873" lon="5.75455">
        <ele>1143.63</ele>
        <time>2022-05-12T09:54:57Z</time>
      </trkpt>
      <trkpt lat="45.88874" lon="5.75456">
        <ele>1143.63</ele>
        <time>2022-05-12T09:54:58Z</time>
      </trkpt>
      <trkpt lat="45.88876" lon="5.75456">
        <ele>1143.14</ele>
        <time>2022-05-12T09:54:59Z</time>
      </trkpt>
      <trkpt lat="45.88882" lon="5.7546">
        <ele>1141.7</ele>
        <time>2022-05-12T09:55:07Z</time>
      </trkpt>
      <trkpt lat="45.88905" lon="5.75462">
        <ele>1138.82</ele>
        <time>2022-05-12T09:55:21Z</time>
      </trkpt>
      <trkpt lat="45.88923" lon="5.75464">
        <ele>1135.45</ele>
        <time>2022-05-12T09:55:35Z</time>
      </trkpt>
      <trkpt lat="45.88937" lon="5.7549">
        <ele>1134.97</ele>
        <time>2022-05-12T09:56:01Z</time>
      </trkpt>
      <trkpt lat="45.8894" lon="5.75504">
        <ele>1137.86</ele>
        <time>2022-05-12T09:56:14Z</time>
      </trkpt>
      <trkpt lat="45.88941" lon="5.75505">
        <ele>1137.86</ele>
        <time>2022-05-12T09:56:15Z</time>
      </trkpt>
      <trkpt lat="45.88948" lon="5.75522">
        <ele>1141.22</ele>
        <time>2022-05-12T09:56:33Z</time>
      </trkpt>
      <trkpt lat="45.88953" lon="5.75531">
        <ele>1142.66</ele>
        <time>2022-05-12T09:56:44Z</time>
      </trkpt>
      <trkpt lat="45.88955" lon="5.75539">
        <ele>1144.11</ele>
        <time>2022-05-12T09:56:52Z</time>
      </trkpt>
      <trkpt lat="45.88958" lon="5.75545">
        <ele>1144.59</ele>
        <time>2022-05-12T09:56:57Z</time>
      </trkpt>
      <trkpt lat="45.88967" lon="5.75562">
        <ele>1147.95</ele>
        <time>2022-05-12T09:57:17Z</time>
      </trkpt>
      <trkpt lat="45.88969" lon="5.75565">
        <ele>1148.43</ele>
        <time>2022-05-12T09:57:21Z</time>
      </trkpt>
      <trkpt lat="45.8897" lon="5.75566">
        <ele>1148.43</ele>
        <time>2022-05-12T09:57:22Z</time>
      </trkpt>
      <trkpt lat="45.88971" lon="5.75566">
        <ele>1148.91</ele>
        <time>2022-05-12T09:57:23Z</time>
      </trkpt>
      <trkpt lat="45.88983" lon="5.75584">
        <ele>1152.28</ele>
        <time>2022-05-12T09:57:43Z</time>
      </trkpt>
      <trkpt lat="45.88984" lon="5.75585">
        <ele>1152.28</ele>
        <time>2022-05-12T09:57:44Z</time>
      </trkpt>
      <trkpt lat="45.89007" lon="5.75609">
        <ele>1155.16</ele>
        <time>2022-05-12T09:58:10Z</time>
      </trkpt>
      <trkpt lat="45.89009" lon="5.75613">
        <ele>1155.64</ele>
        <time>2022-05-12T09:58:16Z</time>
      </trkpt>
      <trkpt lat="45.8901" lon="5.75614">
        <ele>1155.64</ele>
        <time>2022-05-12T09:58:17Z</time>
      </trkpt>
      <trkpt lat="45.89025" lon="5.75626">
        <ele>1158.53</ele>
        <time>2022-05-12T09:58:37Z</time>
      </trkpt>
      <trkpt lat="45.89026" lon="5.75626">
        <ele>1158.53</ele>
        <time>2022-05-12T09:58:38Z</time>
      </trkpt>
      <trkpt lat="45.89027" lon="5.75627">
        <ele>1159.01</ele>
        <time>2022-05-12T09:58:40Z</time>
      </trkpt>
      <trkpt lat="45.8903" lon="5.75631">
        <ele>1159.49</ele>
        <time>2022-05-12T09:58:44Z</time>
      </trkpt>
      <trkpt lat="45.89032" lon="5.75633">
        <ele>1159.97</ele>
        <time>2022-05-12T09:58:46Z</time>
      </trkpt>
      <trkpt lat="45.89047" lon="5.7565">
        <ele>1162.37</ele>
        <time>2022-05-12T09:59:04Z</time>
      </trkpt>
      <trkpt lat="45.89048" lon="5.75651">
        <ele>1162.37</ele>
        <time>2022-05-12T09:59:05Z</time>
      </trkpt>
      <trkpt lat="45.89067" lon="5.7566">
        <ele>1165.74</ele>
        <time>2022-05-12T09:59:24Z</time>
      </trkpt>
      <trkpt lat="45.89078" lon="5.75663">
        <ele>1168.62</ele>
        <time>2022-05-12T09:59:40Z</time>
      </trkpt>
      <trkpt lat="45.89079" lon="5.75664">
        <ele>1168.62</ele>
        <time>2022-05-12T09:59:41Z</time>
      </trkpt>
      <trkpt lat="45.89098" lon="5.75673">
        <ele>1171.98</ele>
        <time>2022-05-12T10:00:02Z</time>
      </trkpt>
      <trkpt lat="45.89112" lon="5.75681">
        <ele>1174.87</ele>
        <time>2022-05-12T10:00:20Z</time>
      </trkpt>
      <trkpt lat="45.89125" lon="5.75684">
        <ele>1178.23</ele>
        <time>2022-05-12T10:00:37Z</time>
      </trkpt>
      <trkpt lat="45.89128" lon="5.75688">
        <ele>1179.19</ele>
        <time>2022-05-12T10:00:43Z</time>
      </trkpt>
      <trkpt lat="45.89144" lon="5.75702">
        <ele>1182.08</ele>
        <time>2022-05-12T10:01:03Z</time>
      </trkpt>
      <trkpt lat="45.89158" lon="5.7571">
        <ele>1184.96</ele>
        <time>2022-05-12T10:01:20Z</time>
      </trkpt>
      <trkpt lat="45.89178" lon="5.75723">
        <ele>1188.33</ele>
        <time>2022-05-12T10:01:43Z</time>
      </trkpt>
      <trkpt lat="45.89195" lon="5.75728">
        <ele>1191.21</ele>
        <time>2022-05-12T10:02:01Z</time>
      </trkpt>
      <trkpt lat="45.8921" lon="5.75731">
        <ele>1194.58</ele>
        <time>2022-05-12T10:02:21Z</time>
      </trkpt>
      <trkpt lat="45.89221" lon="5.75739">
        <ele>1197.46</ele>
        <time>2022-05-12T10:02:39Z</time>
      </trkpt>
      <trkpt lat="45.89226" lon="5.75741">
        <ele>1198.9</ele>
        <time>2022-05-12T10:02:47Z</time>
      </trkpt>
      <trkpt lat="45.89245" lon="5.75746">
        <ele>1201.79</ele>
        <time>2022-05-12T10:03:09Z</time>
      </trkpt>
      <trkpt lat="45.89257" lon="5.75751">
        <ele>1204.67</ele>
        <time>2022-05-12T10:03:28Z</time>
      </trkpt>
      <trkpt lat="45.89273" lon="5.75749">
        <ele>1207.55</ele>
        <time>2022-05-12T10:03:44Z</time>
      </trkpt>
      <trkpt lat="45.8928" lon="5.75755">
        <ele>1209.48</ele>
        <time>2022-05-12T10:03:55Z</time>
      </trkpt>
      <trkpt lat="45.89296" lon="5.75763">
        <ele>1212.36</ele>
        <time>2022-05-12T10:04:16Z</time>
      </trkpt>
      <trkpt lat="45.89308" lon="5.75761">
        <ele>1213.8</ele>
        <time>2022-05-12T10:04:27Z</time>
      </trkpt>
      <trkpt lat="45.89309" lon="5.75761">
        <ele>1213.8</ele>
        <time>2022-05-12T10:04:28Z</time>
      </trkpt>
      <trkpt lat="45.8931" lon="5.75761">
        <ele>1213.8</ele>
        <time>2022-05-12T10:04:29Z</time>
      </trkpt>
      <trkpt lat="45.89313" lon="5.75761">
        <ele>1214.28</ele>
        <time>2022-05-12T10:04:32Z</time>
      </trkpt>
      <trkpt lat="45.89319" lon="5.75763">
        <ele>1215.72</ele>
        <time>2022-05-12T10:04:38Z</time>
      </trkpt>
      <trkpt lat="45.89335" lon="5.75765">
        <ele>1218.61</ele>
        <time>2022-05-12T10:04:59Z</time>
      </trkpt>
      <trkpt lat="45.89352" lon="5.75771">
        <ele>1221.97</ele>
        <time>2022-05-12T10:05:17Z</time>
      </trkpt>
      <trkpt lat="45.8937" lon="5.75773">
        <ele>1224.86</ele>
        <time>2022-05-12T10:05:37Z</time>
      </trkpt>
      <trkpt lat="45.8939" lon="5.75777">
        <ele>1228.22</ele>
        <time>2022-05-12T10:06:02Z</time>
      </trkpt>
      <trkpt lat="45.894" lon="5.75778">
        <ele>1231.11</ele>
        <time>2022-05-12T10:06:16Z</time>
      </trkpt>
      <trkpt lat="45.89408" lon="5.75779">
        <ele>1233.03</ele>
        <time>2022-05-12T10:06:26Z</time>
      </trkpt>
      <trkpt lat="45.89422" lon="5.75777">
        <ele>1235.91</ele>
        <time>2022-05-12T10:06:43Z</time>
      </trkpt>
      <trkpt lat="45.89434" lon="5.75774">
        <ele>1238.32</ele>
        <time>2022-05-12T10:06:59Z</time>
      </trkpt>
      <trkpt lat="45.89457" lon="5.7577">
        <ele>1241.2</ele>
        <time>2022-05-12T10:07:22Z</time>
      </trkpt>
      <trkpt lat="45.89481" lon="5.75767">
        <ele>1244.08</ele>
        <time>2022-05-12T10:07:47Z</time>
      </trkpt>
      <trkpt lat="45.895" lon="5.75768">
        <ele>1246.97</ele>
        <time>2022-05-12T10:08:06Z</time>
      </trkpt>
      <trkpt lat="45.89525" lon="5.75767">
        <ele>1249.85</ele>
        <time>2022-05-12T10:08:30Z</time>
      </trkpt>
      <trkpt lat="45.89545" lon="5.75767">
        <ele>1253.22</ele>
        <time>2022-05-12T10:08:50Z</time>
      </trkpt>
      <trkpt lat="45.8956" lon="5.75768">
        <ele>1255.62</ele>
        <time>2022-05-12T10:09:05Z</time>
      </trkpt>
      <trkpt lat="45.89583" lon="5.75767">
        <ele>1258.5</ele>
        <time>2022-05-12T10:09:26Z</time>
      </trkpt>
      <trkpt lat="45.89603" lon="5.75767">
        <ele>1261.39</ele>
        <time>2022-05-12T10:09:45Z</time>
      </trkpt>
      <trkpt lat="45.89627" lon="5.75764">
        <ele>1263.79</ele>
        <time>2022-05-12T10:10:05Z</time>
      </trkpt>
      <trkpt lat="45.89643" lon="5.75759">
        <ele>1265.23</ele>
        <time>2022-05-12T10:10:20Z</time>
      </trkpt>
      <trkpt lat="45.89668" lon="5.75754">
        <ele>1266.19</ele>
        <time>2022-05-12T10:10:44Z</time>
      </trkpt>
      <trkpt lat="45.89704" lon="5.75742">
        <ele>1267.64</ele>
        <time>2022-05-12T10:11:14Z</time>
      </trkpt>
      <trkpt lat="45.89728" lon="5.75727">
        <ele>1267.64</ele>
        <time>2022-05-12T10:11:36Z</time>
      </trkpt>
      <trkpt lat="45.89753" lon="5.75715">
        <ele>1266.19</ele>
        <time>2022-05-12T10:11:59Z</time>
      </trkpt>
      <trkpt lat="45.89779" lon="5.75708">
        <ele>1263.79</ele>
        <time>2022-05-12T10:12:25Z</time>
      </trkpt>
      <trkpt lat="45.89803" lon="5.757">
        <ele>1261.87</ele>
        <time>2022-05-12T10:12:47Z</time>
      </trkpt>
      <trkpt lat="45.89828" lon="5.75691">
        <ele>1260.43</ele>
        <time>2022-05-12T10:13:10Z</time>
      </trkpt>
      <trkpt lat="45.89858" lon="5.75687">
        <ele>1259.46</ele>
        <time>2022-05-12T10:13:33Z</time>
      </trkpt>
      <trkpt lat="45.89875" lon="5.75699">
        <ele>1259.94</ele>
        <time>2022-05-12T10:13:59Z</time>
      </trkpt>
      <trkpt lat="45.89878" lon="5.75699">
        <ele>1260.43</ele>
        <time>2022-05-12T10:14:18Z</time>
      </trkpt>
      <trkpt lat="45.89879" lon="5.75699">
        <ele>1259.46</ele>
        <time>2022-05-12T10:14:55Z</time>
      </trkpt>
      <trkpt lat="45.89879" lon="5.75699">
        <ele>1259.46</ele>
        <time>2022-05-12T10:15:35Z</time>
      </trkpt>
      <trkpt lat="45.89877" lon="5.757">
        <ele>1259.46</ele>
        <time>2022-05-12T10:16:00Z</time>
      </trkpt>
      <trkpt lat="45.89878" lon="5.757">
        <ele>1259.46</ele>
        <time>2022-05-12T10:16:43Z</time>
      </trkpt>
      <trkpt lat="45.89877" lon="5.75699">
        <ele>1259.46</ele>
        <time>2022-05-12T10:17:13Z</time>
      </trkpt>
      <trkpt lat="45.89876" lon="5.75699">
        <ele>1259.46</ele>
        <time>2022-05-12T10:17:44Z</time>
      </trkpt>
      <trkpt lat="45.89876" lon="5.75698">
        <ele>1259.46</ele>
        <time>2022-05-12T10:18:25Z</time>
      </trkpt>
      <trkpt lat="45.89877" lon="5.75698">
        <ele>1259.46</ele>
        <time>2022-05-12T10:19:04Z</time>
      </trkpt>
      <trkpt lat="45.8989" lon="5.75697">
        <ele>1259.46</ele>
        <time>2022-05-12T10:19:24Z</time>
      </trkpt>
      <trkpt lat="45.89908" lon="5.75688">
        <ele>1262.83</ele>
        <time>2022-05-12T10:19:42Z</time>
      </trkpt>
      <trkpt lat="45.89931" lon="5.75682">
        <ele>1264.75</ele>
        <time>2022-05-12T10:20:02Z</time>
      </trkpt>
      <trkpt lat="45.89935" lon="5.75683">
        <ele>1265.23</ele>
        <time>2022-05-12T10:20:05Z</time>
      </trkpt>
      <trkpt lat="45.89951" lon="5.75683">
        <ele>1266.67</ele>
        <time>2022-05-12T10:20:24Z</time>
      </trkpt>
      <trkpt lat="45.89976" lon="5.75682">
        <ele>1270.04</ele>
        <time>2022-05-12T10:20:47Z</time>
      </trkpt>
      <trkpt lat="45.89998" lon="5.75679">
        <ele>1272.92</ele>
        <time>2022-05-12T10:21:10Z</time>
      </trkpt>
      <trkpt lat="45.90016" lon="5.75678">
        <ele>1275.81</ele>
        <time>2022-05-12T10:21:28Z</time>
      </trkpt>
      <trkpt lat="45.90043" lon="5.75672">
        <ele>1279.17</ele>
        <time>2022-05-12T10:21:51Z</time>
      </trkpt>
      <trkpt lat="45.90067" lon="5.75669">
        <ele>1282.06</ele>
        <time>2022-05-12T10:22:13Z</time>
      </trkpt>
      <trkpt lat="45.90092" lon="5.75667">
        <ele>1284.94</ele>
        <time>2022-05-12T10:22:36Z</time>
      </trkpt>
      <trkpt lat="45.90119" lon="5.75663">
        <ele>1288.3</ele>
        <time>2022-05-12T10:23:01Z</time>
      </trkpt>
      <trkpt lat="45.90141" lon="5.75653">
        <ele>1291.19</ele>
        <time>2022-05-12T10:23:21Z</time>
      </trkpt>
      <trkpt lat="45.90166" lon="5.75645">
        <ele>1294.07</ele>
        <time>2022-05-12T10:23:45Z</time>
      </trkpt>
      <trkpt lat="45.90189" lon="5.75639">
        <ele>1296.96</ele>
        <time>2022-05-12T10:24:07Z</time>
      </trkpt>
      <trkpt lat="45.90211" lon="5.75631">
        <ele>1299.36</ele>
        <time>2022-05-12T10:24:29Z</time>
      </trkpt>
      <trkpt lat="45.90235" lon="5.75628">
        <ele>1300.8</ele>
        <time>2022-05-12T10:24:49Z</time>
      </trkpt>
      <trkpt lat="45.90256" lon="5.75623">
        <ele>1303.69</ele>
        <time>2022-05-12T10:25:09Z</time>
      </trkpt>
      <trkpt lat="45.90275" lon="5.75616">
        <ele>1305.61</ele>
        <time>2022-05-12T10:25:27Z</time>
      </trkpt>
      <trkpt lat="45.90295" lon="5.75614">
        <ele>1308.01</ele>
        <time>2022-05-12T10:25:45Z</time>
      </trkpt>
      <trkpt lat="45.90318" lon="5.75609">
        <ele>1310.41</ele>
        <time>2022-05-12T10:26:05Z</time>
      </trkpt>
      <trkpt lat="45.90338" lon="5.75609">
        <ele>1312.34</ele>
        <time>2022-05-12T10:26:22Z</time>
      </trkpt>
      <trkpt lat="45.90358" lon="5.7561">
        <ele>1315.22</ele>
        <time>2022-05-12T10:26:40Z</time>
      </trkpt>
      <trkpt lat="45.90381" lon="5.75613">
        <ele>1317.14</ele>
        <time>2022-05-12T10:26:59Z</time>
      </trkpt>
      <trkpt lat="45.90398" lon="5.75613">
        <ele>1319.55</ele>
        <time>2022-05-12T10:27:16Z</time>
      </trkpt>
      <trkpt lat="45.90416" lon="5.75616">
        <ele>1321.47</ele>
        <time>2022-05-12T10:27:32Z</time>
      </trkpt>
      <trkpt lat="45.90434" lon="5.7562">
        <ele>1323.39</ele>
        <time>2022-05-12T10:27:49Z</time>
      </trkpt>
      <trkpt lat="45.90451" lon="5.75624">
        <ele>1325.8</ele>
        <time>2022-05-12T10:28:05Z</time>
      </trkpt>
      <trkpt lat="45.90475" lon="5.75631">
        <ele>1328.68</ele>
        <time>2022-05-12T10:28:27Z</time>
      </trkpt>
      <trkpt lat="45.9049" lon="5.75637">
        <ele>1330.6</ele>
        <time>2022-05-12T10:28:42Z</time>
      </trkpt>
      <trkpt lat="45.90493" lon="5.75638">
        <ele>1331.08</ele>
        <time>2022-05-12T10:28:45Z</time>
      </trkpt>
      <trkpt lat="45.90497" lon="5.75639">
        <ele>1331.56</ele>
        <time>2022-05-12T10:28:48Z</time>
      </trkpt>
      <trkpt lat="45.90517" lon="5.75647">
        <ele>1333.49</ele>
        <time>2022-05-12T10:29:04Z</time>
      </trkpt>
      <trkpt lat="45.90537" lon="5.75655">
        <ele>1335.89</ele>
        <time>2022-05-12T10:29:21Z</time>
      </trkpt>
      <trkpt lat="45.90555" lon="5.75664">
        <ele>1338.29</ele>
        <time>2022-05-12T10:29:37Z</time>
      </trkpt>
      <trkpt lat="45.90574" lon="5.75672">
        <ele>1339.73</ele>
        <time>2022-05-12T10:29:52Z</time>
      </trkpt>
      <trkpt lat="45.90597" lon="5.75681">
        <ele>1343.1</ele>
        <time>2022-05-12T10:30:10Z</time>
      </trkpt>
      <trkpt lat="45.90622" lon="5.7569">
        <ele>1345.5</ele>
        <time>2022-05-12T10:30:31Z</time>
      </trkpt>
      <trkpt lat="45.90647" lon="5.75698">
        <ele>1347.91</ele>
        <time>2022-05-12T10:30:53Z</time>
      </trkpt>
      <trkpt lat="45.90672" lon="5.75706">
        <ele>1349.83</ele>
        <time>2022-05-12T10:31:14Z</time>
      </trkpt>
      <trkpt lat="45.90695" lon="5.75715">
        <ele>1351.27</ele>
        <time>2022-05-12T10:31:33Z</time>
      </trkpt>
      <trkpt lat="45.90717" lon="5.75724">
        <ele>1353.67</ele>
        <time>2022-05-12T10:31:53Z</time>
      </trkpt>
      <trkpt lat="45.90741" lon="5.75732">
        <ele>1355.6</ele>
        <time>2022-05-12T10:32:12Z</time>
      </trkpt>
      <trkpt lat="45.9075" lon="5.75735">
        <ele>1357.04</ele>
        <time>2022-05-12T10:32:23Z</time>
      </trkpt>
      <trkpt lat="45.90753" lon="5.75736">
        <ele>1357.04</ele>
        <time>2022-05-12T10:32:25Z</time>
      </trkpt>
      <trkpt lat="45.90754" lon="5.75736">
        <ele>1357.04</ele>
        <time>2022-05-12T10:32:26Z</time>
      </trkpt>
      <trkpt lat="45.90755" lon="5.75737">
        <ele>1357.04</ele>
        <time>2022-05-12T10:32:27Z</time>
      </trkpt>
      <trkpt lat="45.90756" lon="5.75737">
        <ele>1357.52</ele>
        <time>2022-05-12T10:32:28Z</time>
      </trkpt>
      <trkpt lat="45.90757" lon="5.75737">
        <ele>1357.52</ele>
        <time>2022-05-12T10:32:29Z</time>
      </trkpt>
      <trkpt lat="45.90759" lon="5.75737">
        <ele>1358</ele>
        <time>2022-05-12T10:32:30Z</time>
      </trkpt>
      <trkpt lat="45.90778" lon="5.75745">
        <ele>1359.44</ele>
        <time>2022-05-12T10:32:46Z</time>
      </trkpt>
      <trkpt lat="45.90798" lon="5.75751">
        <ele>1361.36</ele>
        <time>2022-05-12T10:33:04Z</time>
      </trkpt>
      <trkpt lat="45.90821" lon="5.75765">
        <ele>1362.81</ele>
        <time>2022-05-12T10:33:24Z</time>
      </trkpt>
      <trkpt lat="45.90837" lon="5.75785">
        <ele>1363.77</ele>
        <time>2022-05-12T10:33:42Z</time>
      </trkpt>
      <trkpt lat="45.90853" lon="5.75813">
        <ele>1366.17</ele>
        <time>2022-05-12T10:34:04Z</time>
      </trkpt>
      <trkpt lat="45.90865" lon="5.75836">
        <ele>1368.09</ele>
        <time>2022-05-12T10:34:21Z</time>
      </trkpt>
      <trkpt lat="45.9088" lon="5.75863">
        <ele>1370.5</ele>
        <time>2022-05-12T10:34:42Z</time>
      </trkpt>
      <trkpt lat="45.90887" lon="5.75877">
        <ele>1372.42</ele>
        <time>2022-05-12T10:34:59Z</time>
      </trkpt>
      <trkpt lat="45.90881" lon="5.75885">
        <ele>1373.38</ele>
        <time>2022-05-12T10:35:12Z</time>
      </trkpt>
      <trkpt lat="45.90875" lon="5.75893">
        <ele>1376.26</ele>
        <time>2022-05-12T10:35:25Z</time>
      </trkpt>
      <trkpt lat="45.90869" lon="5.75903">
        <ele>1378.67</ele>
        <time>2022-05-12T10:35:40Z</time>
      </trkpt>
      <trkpt lat="45.90862" lon="5.75915">
        <ele>1381.55</ele>
        <time>2022-05-12T10:35:58Z</time>
      </trkpt>
      <trkpt lat="45.90858" lon="5.75924">
        <ele>1383.96</ele>
        <time>2022-05-12T10:36:13Z</time>
      </trkpt>
      <trkpt lat="45.90854" lon="5.7593">
        <ele>1386.84</ele>
        <time>2022-05-12T10:36:27Z</time>
      </trkpt>
      <trkpt lat="45.9085" lon="5.75938">
        <ele>1390.2</ele>
        <time>2022-05-12T10:36:43Z</time>
      </trkpt>
      <trkpt lat="45.90845" lon="5.75949">
        <ele>1393.09</ele>
        <time>2022-05-12T10:37:02Z</time>
      </trkpt>
      <trkpt lat="45.9084" lon="5.75958">
        <ele>1395.97</ele>
        <time>2022-05-12T10:37:19Z</time>
      </trkpt>
      <trkpt lat="45.90836" lon="5.75963">
        <ele>1398.37</ele>
        <time>2022-05-12T10:37:36Z</time>
      </trkpt>
      <trkpt lat="45.90831" lon="5.75967">
        <ele>1401.26</ele>
        <time>2022-05-12T10:37:54Z</time>
      </trkpt>
      <trkpt lat="45.90828" lon="5.75971">
        <ele>1403.18</ele>
        <time>2022-05-12T10:38:08Z</time>
      </trkpt>
      <trkpt lat="45.90827" lon="5.75974">
        <ele>1406.07</ele>
        <time>2022-05-12T10:38:25Z</time>
      </trkpt>
      <trkpt lat="45.90825" lon="5.75976">
        <ele>1408.47</ele>
        <time>2022-05-12T10:38:40Z</time>
      </trkpt>
      <trkpt lat="45.90812" lon="5.75973">
        <ele>1409.43</ele>
        <time>2022-05-12T10:38:54Z</time>
      </trkpt>
      <trkpt lat="45.90797" lon="5.7597">
        <ele>1410.87</ele>
        <time>2022-05-12T10:39:10Z</time>
      </trkpt>
      <trkpt lat="45.90779" lon="5.75966">
        <ele>1413.76</ele>
        <time>2022-05-12T10:39:26Z</time>
      </trkpt>
      <trkpt lat="45.90765" lon="5.75965">
        <ele>1415.2</ele>
        <time>2022-05-12T10:39:39Z</time>
      </trkpt>
      <trkpt lat="45.90749" lon="5.75964">
        <ele>1417.12</ele>
        <time>2022-05-12T10:39:56Z</time>
      </trkpt>
      <trkpt lat="45.90741" lon="5.75965">
        <ele>1418.08</ele>
        <time>2022-05-12T10:40:05Z</time>
      </trkpt>
      <trkpt lat="45.90736" lon="5.75965">
        <ele>1418.56</ele>
        <time>2022-05-12T10:40:10Z</time>
      </trkpt>
      <trkpt lat="45.90722" lon="5.75965">
        <ele>1420</ele>
        <time>2022-05-12T10:40:24Z</time>
      </trkpt>
      <trkpt lat="45.90707" lon="5.75967">
        <ele>1421.93</ele>
        <time>2022-05-12T10:40:39Z</time>
      </trkpt>
      <trkpt lat="45.90693" lon="5.75967">
        <ele>1423.37</ele>
        <time>2022-05-12T10:40:52Z</time>
      </trkpt>
      <trkpt lat="45.9068" lon="5.75968">
        <ele>1424.81</ele>
        <time>2022-05-12T10:41:06Z</time>
      </trkpt>
      <trkpt lat="45.90664" lon="5.75971">
        <ele>1426.25</ele>
        <time>2022-05-12T10:41:21Z</time>
      </trkpt>
      <trkpt lat="45.9065" lon="5.75972">
        <ele>1427.21</ele>
        <time>2022-05-12T10:41:35Z</time>
      </trkpt>
      <trkpt lat="45.90632" lon="5.75975">
        <ele>1429.14</ele>
        <time>2022-05-12T10:41:53Z</time>
      </trkpt>
      <trkpt lat="45.90615" lon="5.75978">
        <ele>1431.06</ele>
        <time>2022-05-12T10:42:10Z</time>
      </trkpt>
      <trkpt lat="45.90598" lon="5.7598">
        <ele>1432.98</ele>
        <time>2022-05-12T10:42:25Z</time>
      </trkpt>
      <trkpt lat="45.90593" lon="5.75981">
        <ele>1432.98</ele>
        <time>2022-05-12T10:42:30Z</time>
      </trkpt>
      <trkpt lat="45.90592" lon="5.75981">
        <ele>1432.98</ele>
        <time>2022-05-12T10:42:31Z</time>
      </trkpt>
      <trkpt lat="45.9058" lon="5.75983">
        <ele>1435.39</ele>
        <time>2022-05-12T10:42:44Z</time>
      </trkpt>
      <trkpt lat="45.90563" lon="5.75985">
        <ele>1436.83</ele>
        <time>2022-05-12T10:43:01Z</time>
      </trkpt>
      <trkpt lat="45.90545" lon="5.75988">
        <ele>1438.75</ele>
        <time>2022-05-12T10:43:19Z</time>
      </trkpt>
      <trkpt lat="45.90527" lon="5.75991">
        <ele>1441.15</ele>
        <time>2022-05-12T10:43:35Z</time>
      </trkpt>
      <trkpt lat="45.9051" lon="5.75994">
        <ele>1443.56</ele>
        <time>2022-05-12T10:43:51Z</time>
      </trkpt>
      <trkpt lat="45.90508" lon="5.75994">
        <ele>1444.04</ele>
        <time>2022-05-12T10:43:52Z</time>
      </trkpt>
      <trkpt lat="45.90491" lon="5.75998">
        <ele>1445.48</ele>
        <time>2022-05-12T10:44:08Z</time>
      </trkpt>
      <trkpt lat="45.90473" lon="5.76002">
        <ele>1448.36</ele>
        <time>2022-05-12T10:44:25Z</time>
      </trkpt>
      <trkpt lat="45.90458" lon="5.76005">
        <ele>1449.81</ele>
        <time>2022-05-12T10:44:39Z</time>
      </trkpt>
      <trkpt lat="45.90442" lon="5.76008">
        <ele>1452.21</ele>
        <time>2022-05-12T10:44:54Z</time>
      </trkpt>
      <trkpt lat="45.9043" lon="5.76012">
        <ele>1454.61</ele>
        <time>2022-05-12T10:45:07Z</time>
      </trkpt>
      <trkpt lat="45.90418" lon="5.76015">
        <ele>1456.53</ele>
        <time>2022-05-12T10:45:25Z</time>
      </trkpt>
      <trkpt lat="45.90404" lon="5.76017">
        <ele>1457.98</ele>
        <time>2022-05-12T10:45:42Z</time>
      </trkpt>
      <trkpt lat="45.90392" lon="5.7602">
        <ele>1459.42</ele>
        <time>2022-05-12T10:45:58Z</time>
      </trkpt>
      <trkpt lat="45.90378" lon="5.76026">
        <ele>1461.34</ele>
        <time>2022-05-12T10:46:17Z</time>
      </trkpt>
      <trkpt lat="45.90368" lon="5.76033">
        <ele>1463.74</ele>
        <time>2022-05-12T10:46:35Z</time>
      </trkpt>
      <trkpt lat="45.90363" lon="5.76043">
        <ele>1464.23</ele>
        <time>2022-05-12T10:46:53Z</time>
      </trkpt>
      <trkpt lat="45.90359" lon="5.76056">
        <ele>1466.15</ele>
        <time>2022-05-12T10:47:09Z</time>
      </trkpt>
      <trkpt lat="45.90367" lon="5.76065">
        <ele>1467.59</ele>
        <time>2022-05-12T10:47:26Z</time>
      </trkpt>
      <trkpt lat="45.90376" lon="5.76077">
        <ele>1469.51</ele>
        <time>2022-05-12T10:47:44Z</time>
      </trkpt>
      <trkpt lat="45.90388" lon="5.76083">
        <ele>1472.4</ele>
        <time>2022-05-12T10:48:02Z</time>
      </trkpt>
      <trkpt lat="45.90403" lon="5.76088">
        <ele>1474.8</ele>
        <time>2022-05-12T10:48:21Z</time>
      </trkpt>
      <trkpt lat="45.90421" lon="5.76095">
        <ele>1477.2</ele>
        <time>2022-05-12T10:48:42Z</time>
      </trkpt>
      <trkpt lat="45.90424" lon="5.76097">
        <ele>1477.68</ele>
        <time>2022-05-12T10:48:46Z</time>
      </trkpt>
      <trkpt lat="45.90439" lon="5.76104">
        <ele>1480.09</ele>
        <time>2022-05-12T10:49:04Z</time>
      </trkpt>
      <trkpt lat="45.90453" lon="5.76108">
        <ele>1482.49</ele>
        <time>2022-05-12T10:49:22Z</time>
      </trkpt>
      <trkpt lat="45.90464" lon="5.76111">
        <ele>1484.89</ele>
        <time>2022-05-12T10:49:41Z</time>
      </trkpt>
      <trkpt lat="45.90464" lon="5.76111">
        <ele>1484.89</ele>
        <time>2022-05-12T10:50:04Z</time>
      </trkpt>
      <trkpt lat="45.90466" lon="5.76111">
        <ele>1484.89</ele>
        <time>2022-05-12T10:50:32Z</time>
      </trkpt>
      <trkpt lat="45.9048" lon="5.76113">
        <ele>1487.78</ele>
        <time>2022-05-12T10:50:50Z</time>
      </trkpt>
      <trkpt lat="45.90482" lon="5.76114">
        <ele>1487.78</ele>
        <time>2022-05-12T10:50:52Z</time>
      </trkpt>
      <trkpt lat="45.90496" lon="5.76114">
        <ele>1489.7</ele>
        <time>2022-05-12T10:51:08Z</time>
      </trkpt>
      <trkpt lat="45.90512" lon="5.76117">
        <ele>1492.58</ele>
        <time>2022-05-12T10:51:25Z</time>
      </trkpt>
      <trkpt lat="45.90527" lon="5.76121">
        <ele>1493.55</ele>
        <time>2022-05-12T10:51:41Z</time>
      </trkpt>
      <trkpt lat="45.90544" lon="5.76128">
        <ele>1494.03</ele>
        <time>2022-05-12T10:51:57Z</time>
      </trkpt>
      <trkpt lat="45.9056" lon="5.7614">
        <ele>1494.99</ele>
        <time>2022-05-12T10:52:17Z</time>
      </trkpt>
      <trkpt lat="45.90573" lon="5.76151">
        <ele>1496.43</ele>
        <time>2022-05-12T10:52:33Z</time>
      </trkpt>
      <trkpt lat="45.90588" lon="5.76156">
        <ele>1497.87</ele>
        <time>2022-05-12T10:52:50Z</time>
      </trkpt>
      <trkpt lat="45.90602" lon="5.7616">
        <ele>1498.35</ele>
        <time>2022-05-12T10:53:06Z</time>
      </trkpt>
      <trkpt lat="45.90618" lon="5.76165">
        <ele>1498.35</ele>
        <time>2022-05-12T10:53:22Z</time>
      </trkpt>
      <trkpt lat="45.90628" lon="5.76159">
        <ele>1499.31</ele>
        <time>2022-05-12T10:53:36Z</time>
      </trkpt>
      <trkpt lat="45.90643" lon="5.76161">
        <ele>1501.24</ele>
        <time>2022-05-12T10:53:54Z</time>
      </trkpt>
      <trkpt lat="45.90648" lon="5.76173">
        <ele>1499.79</ele>
        <time>2022-05-12T10:54:09Z</time>
      </trkpt>
      <trkpt lat="45.90641" lon="5.76182">
        <ele>1496.43</ele>
        <time>2022-05-12T10:54:22Z</time>
      </trkpt>
      <trkpt lat="45.90641" lon="5.76184">
        <ele>1494.51</ele>
        <time>2022-05-12T10:54:37Z</time>
      </trkpt>
      <trkpt lat="45.90636" lon="5.76191">
        <ele>1494.99</ele>
        <time>2022-05-12T10:54:50Z</time>
      </trkpt>
      <trkpt lat="45.90635" lon="5.76192">
        <ele>1494.99</ele>
        <time>2022-05-12T10:54:51Z</time>
      </trkpt>
      <trkpt lat="45.90633" lon="5.76192">
        <ele>1494.99</ele>
        <time>2022-05-12T10:54:53Z</time>
      </trkpt>
      <trkpt lat="45.90631" lon="5.76193">
        <ele>1494.51</ele>
        <time>2022-05-12T10:54:55Z</time>
      </trkpt>
      <trkpt lat="45.9063" lon="5.76194">
        <ele>1494.03</ele>
        <time>2022-05-12T10:54:56Z</time>
      </trkpt>
      <trkpt lat="45.90629" lon="5.76194">
        <ele>1494.03</ele>
        <time>2022-05-12T10:54:57Z</time>
      </trkpt>
      <trkpt lat="45.90628" lon="5.76194">
        <ele>1494.03</ele>
        <time>2022-05-12T10:54:58Z</time>
      </trkpt>
      <trkpt lat="45.90624" lon="5.76197">
        <ele>1491.62</ele>
        <time>2022-05-12T10:55:10Z</time>
      </trkpt>
      <trkpt lat="45.9062" lon="5.76197">
        <ele>1492.1</ele>
        <time>2022-05-12T10:55:25Z</time>
      </trkpt>
      <trkpt lat="45.9062" lon="5.76198">
        <ele>1493.06</ele>
        <time>2022-05-12T10:55:48Z</time>
      </trkpt>
      <trkpt lat="45.9062" lon="5.76198">
        <ele>1493.55</ele>
        <time>2022-05-12T10:56:20Z</time>
      </trkpt>
      <trkpt lat="45.9062" lon="5.76198">
        <ele>1493.55</ele>
        <time>2022-05-12T10:57:00Z</time>
      </trkpt>
      <trkpt lat="45.90619" lon="5.76198">
        <ele>1493.55</ele>
        <time>2022-05-12T10:57:35Z</time>
      </trkpt>
      <trkpt lat="45.90619" lon="5.76198">
        <ele>1493.55</ele>
        <time>2022-05-12T10:58:09Z</time>
      </trkpt>
      <trkpt lat="45.90618" lon="5.76198">
        <ele>1493.55</ele>
        <time>2022-05-12T10:58:36Z</time>
      </trkpt>
      <trkpt lat="45.90619" lon="5.76198">
        <ele>1493.55</ele>
        <time>2022-05-12T10:59:15Z</time>
      </trkpt>
      <trkpt lat="45.90619" lon="5.76198">
        <ele>1493.55</ele>
        <time>2022-05-12T10:59:54Z</time>
      </trkpt>
      <trkpt lat="45.90619" lon="5.76198">
        <ele>1490.66</ele>
        <time>2022-05-12T11:00:33Z</time>
      </trkpt>
      <trkpt lat="45.90618" lon="5.76197">
        <ele>1490.18</ele>
        <time>2022-05-12T11:01:51Z</time>
      </trkpt>
      <trkpt lat="45.90618" lon="5.76197">
        <ele>1489.7</ele>
        <time>2022-05-12T11:03:12Z</time>
      </trkpt>
      <trkpt lat="45.90619" lon="5.76198">
        <ele>1489.7</ele>
        <time>2022-05-12T11:04:18Z</time>
      </trkpt>
      <trkpt lat="45.90619" lon="5.76198">
        <ele>1489.7</ele>
        <time>2022-05-12T11:04:58Z</time>
      </trkpt>
      <trkpt lat="45.90619" lon="5.76198">
        <ele>1489.7</ele>
        <time>2022-05-12T11:05:51Z</time>
      </trkpt>
      <trkpt lat="45.90619" lon="5.76199">
        <ele>1489.7</ele>
        <time>2022-05-12T11:06:25Z</time>
      </trkpt>
      <trkpt lat="45.9062" lon="5.76199">
        <ele>1489.7</ele>
        <time>2022-05-12T11:07:03Z</time>
      </trkpt>
      <trkpt lat="45.90619" lon="5.76199">
        <ele>1489.7</ele>
        <time>2022-05-12T11:07:39Z</time>
      </trkpt>
      <trkpt lat="45.90619" lon="5.76198">
        <ele>1489.7</ele>
        <time>2022-05-12T11:08:10Z</time>
      </trkpt>
      <trkpt lat="45.90619" lon="5.76198">
        <ele>1489.7</ele>
        <time>2022-05-12T11:08:55Z</time>
      </trkpt>
      <trkpt lat="45.90619" lon="5.76199">
        <ele>1489.7</ele>
        <time>2022-05-12T11:09:20Z</time>
      </trkpt>
      <trkpt lat="45.90619" lon="5.76199">
        <ele>1489.7</ele>
        <time>2022-05-12T11:10:31Z</time>
      </trkpt>
      <trkpt lat="45.9062" lon="5.76199">
        <ele>1489.7</ele>
        <time>2022-05-12T11:12:10Z</time>
      </trkpt>
      <trkpt lat="45.90619" lon="5.76199">
        <ele>1489.7</ele>
        <time>2022-05-12T11:13:33Z</time>
      </trkpt>
      <trkpt lat="45.90619" lon="5.76198">
        <ele>1489.7</ele>
        <time>2022-05-12T11:14:59Z</time>
      </trkpt>
      <trkpt lat="45.90619" lon="5.76198">
        <ele>1489.7</ele>
        <time>2022-05-12T11:16:27Z</time>
      </trkpt>
      <trkpt lat="45.90619" lon="5.76198">
        <ele>1489.7</ele>
        <time>2022-05-12T11:17:14Z</time>
      </trkpt>
      <trkpt lat="45.90619" lon="5.76198">
        <ele>1489.7</ele>
        <time>2022-05-12T11:18:14Z</time>
      </trkpt>
      <trkpt lat="45.9062" lon="5.76196">
        <ele>1489.7</ele>
        <time>2022-05-12T11:18:42Z</time>
      </trkpt>
      <trkpt lat="45.9062" lon="5.76196">
        <ele>1492.58</ele>
        <time>2022-05-12T11:18:52Z</time>
      </trkpt>
      <trkpt lat="45.9062" lon="5.76196">
        <ele>1486.82</ele>
        <time>2022-05-12T11:18:54Z</time>
      </trkpt>
      <trkpt lat="45.9062" lon="5.76196">
        <ele>1481.53</ele>
        <time>2022-05-12T11:18:55Z</time>
      </trkpt>
      <trkpt lat="45.9062" lon="5.76196">
        <ele>1484.89</ele>
        <time>2022-05-12T11:18:56Z</time>
      </trkpt>
      <trkpt lat="45.90621" lon="5.76196">
        <ele>1482.49</ele>
        <time>2022-05-12T11:19:00Z</time>
      </trkpt>
      <trkpt lat="45.90621" lon="5.76195">
        <ele>1490.18</ele>
        <time>2022-05-12T11:19:05Z</time>
      </trkpt>
      <trkpt lat="45.90621" lon="5.76195">
        <ele>1494.03</ele>
        <time>2022-05-12T11:19:07Z</time>
      </trkpt>
      <trkpt lat="45.90621" lon="5.76195">
        <ele>1495.47</ele>
        <time>2022-05-12T11:19:10Z</time>
      </trkpt>
      <trkpt lat="45.90621" lon="5.76195">
        <ele>1492.58</ele>
        <time>2022-05-12T11:19:23Z</time>
      </trkpt>
      <trkpt lat="45.90621" lon="5.76195">
        <ele>1492.58</ele>
        <time>2022-05-12T11:20:34Z</time>
      </trkpt>
      <trkpt lat="45.90621" lon="5.76195">
        <ele>1492.58</ele>
        <time>2022-05-12T11:21:49Z</time>
      </trkpt>
      <trkpt lat="45.90621" lon="5.76193">
        <ele>1477.2</ele>
        <time>2022-05-12T11:23:55Z</time>
      </trkpt>
      <trkpt lat="45.90621" lon="5.76192">
        <ele>1478.16</ele>
        <time>2022-05-12T11:23:56Z</time>
      </trkpt>
      <trkpt lat="45.90621" lon="5.76192">
        <ele>1481.53</ele>
        <time>2022-05-12T11:23:58Z</time>
      </trkpt>
      <trkpt lat="45.90621" lon="5.76192">
        <ele>1484.89</ele>
        <time>2022-05-12T11:24:00Z</time>
      </trkpt>
      <trkpt lat="45.90621" lon="5.76192">
        <ele>1488.74</ele>
        <time>2022-05-12T11:24:06Z</time>
      </trkpt>
      <trkpt lat="45.90622" lon="5.76191">
        <ele>1491.62</ele>
        <time>2022-05-12T11:24:24Z</time>
      </trkpt>
      <trkpt lat="45.90621" lon="5.76191">
        <ele>1490.18</ele>
        <time>2022-05-12T11:24:51Z</time>
      </trkpt>
      <trkpt lat="45.90621" lon="5.76191">
        <ele>1492.58</ele>
        <time>2022-05-12T11:25:02Z</time>
      </trkpt>
      <trkpt lat="45.90622" lon="5.76187">
        <ele>1491.62</ele>
        <time>2022-05-12T11:25:33Z</time>
      </trkpt>
      <trkpt lat="45.90623" lon="5.76184">
        <ele>1489.7</ele>
        <time>2022-05-12T11:25:59Z</time>
      </trkpt>
      <trkpt lat="45.90623" lon="5.76184">
        <ele>1491.14</ele>
        <time>2022-05-12T11:26:37Z</time>
      </trkpt>
      <trkpt lat="45.90623" lon="5.76185">
        <ele>1494.99</ele>
        <time>2022-05-12T11:26:48Z</time>
      </trkpt>
      <trkpt lat="45.90623" lon="5.76186">
        <ele>1503.64</ele>
        <time>2022-05-12T11:26:49Z</time>
      </trkpt>
      <trkpt lat="45.90623" lon="5.76186">
        <ele>1510.37</ele>
        <time>2022-05-12T11:26:50Z</time>
      </trkpt>
      <trkpt lat="45.90623" lon="5.76186">
        <ele>1515.66</ele>
        <time>2022-05-12T11:26:51Z</time>
      </trkpt>
      <trkpt lat="45.90623" lon="5.76186">
        <ele>1515.66</ele>
        <time>2022-05-12T11:26:52Z</time>
      </trkpt>
      <trkpt lat="45.90623" lon="5.76186">
        <ele>1512.29</ele>
        <time>2022-05-12T11:26:54Z</time>
      </trkpt>
      <trkpt lat="45.90623" lon="5.76186">
        <ele>1507.48</ele>
        <time>2022-05-12T11:26:56Z</time>
      </trkpt>
      <trkpt lat="45.90623" lon="5.76186">
        <ele>1503.64</ele>
        <time>2022-05-12T11:26:58Z</time>
      </trkpt>
      <trkpt lat="45.90623" lon="5.76186">
        <ele>1499.79</ele>
        <time>2022-05-12T11:27:01Z</time>
      </trkpt>
      <trkpt lat="45.90623" lon="5.76186">
        <ele>1496.43</ele>
        <time>2022-05-12T11:27:05Z</time>
      </trkpt>
      <trkpt lat="45.90623" lon="5.76186">
        <ele>1493.06</ele>
        <time>2022-05-12T11:27:16Z</time>
      </trkpt>
      <trkpt lat="45.90623" lon="5.76186">
        <ele>1492.58</ele>
        <time>2022-05-12T11:28:17Z</time>
      </trkpt>
      <trkpt lat="45.90622" lon="5.76187">
        <ele>1492.58</ele>
        <time>2022-05-12T11:29:29Z</time>
      </trkpt>
      <trkpt lat="45.90623" lon="5.7619">
        <ele>1494.51</ele>
        <time>2022-05-12T11:30:30Z</time>
      </trkpt>
      <trkpt lat="45.90622" lon="5.7619">
        <ele>1489.22</ele>
        <time>2022-05-12T11:30:57Z</time>
      </trkpt>
      <trkpt lat="45.90622" lon="5.7619">
        <ele>1492.58</ele>
        <time>2022-05-12T11:31:06Z</time>
      </trkpt>
      <trkpt lat="45.90622" lon="5.7619">
        <ele>1494.03</ele>
        <time>2022-05-12T11:31:09Z</time>
      </trkpt>
      <trkpt lat="45.90622" lon="5.7619">
        <ele>1490.66</ele>
        <time>2022-05-12T11:31:47Z</time>
      </trkpt>
      <trkpt lat="45.90622" lon="5.7619">
        <ele>1492.1</ele>
        <time>2022-05-12T11:31:54Z</time>
      </trkpt>
      <trkpt lat="45.90622" lon="5.76189">
        <ele>1495.47</ele>
        <time>2022-05-12T11:32:18Z</time>
      </trkpt>
      <trkpt lat="45.90622" lon="5.7619">
        <ele>1492.58</ele>
        <time>2022-05-12T11:32:31Z</time>
      </trkpt>
      <trkpt lat="45.90622" lon="5.7619">
        <ele>1490.66</ele>
        <time>2022-05-12T11:32:53Z</time>
      </trkpt>
      <trkpt lat="45.90622" lon="5.7619">
        <ele>1494.03</ele>
        <time>2022-05-12T11:32:57Z</time>
      </trkpt>
      <trkpt lat="45.90622" lon="5.7619">
        <ele>1494.51</ele>
        <time>2022-05-12T11:32:59Z</time>
      </trkpt>
      <trkpt lat="45.90622" lon="5.7619">
        <ele>1489.7</ele>
        <time>2022-05-12T11:33:11Z</time>
      </trkpt>
      <trkpt lat="45.90622" lon="5.7619">
        <ele>1493.06</ele>
        <time>2022-05-12T11:33:24Z</time>
      </trkpt>
      <trkpt lat="45.90622" lon="5.7619">
        <ele>1496.43</ele>
        <time>2022-05-12T11:33:27Z</time>
      </trkpt>
      <trkpt lat="45.90622" lon="5.7619">
        <ele>1493.55</ele>
        <time>2022-05-12T11:33:43Z</time>
      </trkpt>
      <trkpt lat="45.90622" lon="5.7619">
        <ele>1489.22</ele>
        <time>2022-05-12T11:33:57Z</time>
      </trkpt>
      <trkpt lat="45.90623" lon="5.76194">
        <ele>1492.58</ele>
        <time>2022-05-12T11:34:31Z</time>
      </trkpt>
      <trkpt lat="45.90623" lon="5.76195">
        <ele>1488.74</ele>
        <time>2022-05-12T11:34:49Z</time>
      </trkpt>
      <trkpt lat="45.90624" lon="5.76195">
        <ele>1487.78</ele>
        <time>2022-05-12T11:34:51Z</time>
      </trkpt>
      <trkpt lat="45.90624" lon="5.76195">
        <ele>1491.14</ele>
        <time>2022-05-12T11:35:00Z</time>
      </trkpt>
      <trkpt lat="45.90623" lon="5.76194">
        <ele>1492.1</ele>
        <time>2022-05-12T11:35:42Z</time>
      </trkpt>
      <trkpt lat="45.90623" lon="5.76194">
        <ele>1495.47</ele>
        <time>2022-05-12T11:35:53Z</time>
      </trkpt>
      <trkpt lat="45.90623" lon="5.76194">
        <ele>1495.95</ele>
        <time>2022-05-12T11:35:54Z</time>
      </trkpt>
      <trkpt lat="45.90623" lon="5.76195">
        <ele>1492.58</ele>
        <time>2022-05-12T11:36:05Z</time>
      </trkpt>
      <trkpt lat="45.90623" lon="5.76196">
        <ele>1491.14</ele>
        <time>2022-05-12T11:36:52Z</time>
      </trkpt>
      <trkpt lat="45.90623" lon="5.76196">
        <ele>1494.99</ele>
        <time>2022-05-12T11:36:54Z</time>
      </trkpt>
      <trkpt lat="45.90623" lon="5.76196">
        <ele>1495.95</ele>
        <time>2022-05-12T11:36:56Z</time>
      </trkpt>
      <trkpt lat="45.90623" lon="5.76196">
        <ele>1492.58</ele>
        <time>2022-05-12T11:37:06Z</time>
      </trkpt>
      <trkpt lat="45.90622" lon="5.76197">
        <ele>1491.62</ele>
        <time>2022-05-12T11:38:40Z</time>
      </trkpt>
      <trkpt lat="45.90622" lon="5.76197">
        <ele>1491.62</ele>
        <time>2022-05-12T11:39:31Z</time>
      </trkpt>
      <trkpt lat="45.90622" lon="5.76197">
        <ele>1491.62</ele>
        <time>2022-05-12T11:40:22Z</time>
      </trkpt>
      <trkpt lat="45.90622" lon="5.76197">
        <ele>1491.62</ele>
        <time>2022-05-12T11:41:11Z</time>
      </trkpt>
      <trkpt lat="45.90622" lon="5.76197">
        <ele>1491.62</ele>
        <time>2022-05-12T11:41:39Z</time>
      </trkpt>
      <trkpt lat="45.90622" lon="5.76197">
        <ele>1491.62</ele>
        <time>2022-05-12T11:42:19Z</time>
      </trkpt>
      <trkpt lat="45.90622" lon="5.76197">
        <ele>1491.62</ele>
        <time>2022-05-12T11:42:47Z</time>
      </trkpt>
      <trkpt lat="45.90622" lon="5.76197">
        <ele>1491.62</ele>
        <time>2022-05-12T11:43:25Z</time>
      </trkpt>
      <trkpt lat="45.90622" lon="5.76198">
        <ele>1491.62</ele>
        <time>2022-05-12T11:43:55Z</time>
      </trkpt>
      <trkpt lat="45.90621" lon="5.76198">
        <ele>1491.62</ele>
        <time>2022-05-12T11:44:13Z</time>
      </trkpt>
      <trkpt lat="45.90619" lon="5.76199">
        <ele>1491.62</ele>
        <time>2022-05-12T11:44:33Z</time>
      </trkpt>
      <trkpt lat="45.90619" lon="5.7619">
        <ele>1491.62</ele>
        <time>2022-05-12T11:44:46Z</time>
      </trkpt>
      <trkpt lat="45.90615" lon="5.76183">
        <ele>1491.62</ele>
        <time>2022-05-12T11:45:01Z</time>
      </trkpt>
      <trkpt lat="45.90605" lon="5.76175">
        <ele>1491.62</ele>
        <time>2022-05-12T11:45:16Z</time>
      </trkpt>
      <trkpt lat="45.90602" lon="5.76173">
        <ele>1494.99</ele>
        <time>2022-05-12T11:45:20Z</time>
      </trkpt>
      <trkpt lat="45.906" lon="5.76174">
        <ele>1496.43</ele>
        <time>2022-05-12T11:45:22Z</time>
      </trkpt>
      <trkpt lat="45.90588" lon="5.76167">
        <ele>1497.39</ele>
        <time>2022-05-12T11:45:39Z</time>
      </trkpt>
      <trkpt lat="45.90583" lon="5.76168">
        <ele>1497.39</ele>
        <time>2022-05-12T11:45:44Z</time>
      </trkpt>
      <trkpt lat="45.90575" lon="5.76163">
        <ele>1496.91</ele>
        <time>2022-05-12T11:45:56Z</time>
      </trkpt>
      <trkpt lat="45.90574" lon="5.76163">
        <ele>1496.91</ele>
        <time>2022-05-12T11:45:57Z</time>
      </trkpt>
      <trkpt lat="45.90565" lon="5.76161">
        <ele>1496.43</ele>
        <time>2022-05-12T11:46:05Z</time>
      </trkpt>
      <trkpt lat="45.90564" lon="5.76161">
        <ele>1496.43</ele>
        <time>2022-05-12T11:46:06Z</time>
      </trkpt>
      <trkpt lat="45.90549" lon="5.76163">
        <ele>1494.51</ele>
        <time>2022-05-12T11:46:23Z</time>
      </trkpt>
      <trkpt lat="45.90546" lon="5.76164">
        <ele>1494.03</ele>
        <time>2022-05-12T11:46:27Z</time>
      </trkpt>
      <trkpt lat="45.90545" lon="5.76165">
        <ele>1494.03</ele>
        <time>2022-05-12T11:46:28Z</time>
      </trkpt>
      <trkpt lat="45.90543" lon="5.76164">
        <ele>1493.55</ele>
        <time>2022-05-12T11:46:29Z</time>
      </trkpt>
      <trkpt lat="45.90542" lon="5.76164">
        <ele>1493.55</ele>
        <time>2022-05-12T11:46:30Z</time>
      </trkpt>
      <trkpt lat="45.90541" lon="5.76164">
        <ele>1493.06</ele>
        <time>2022-05-12T11:46:31Z</time>
      </trkpt>
      <trkpt lat="45.90539" lon="5.76164">
        <ele>1493.06</ele>
        <time>2022-05-12T11:46:32Z</time>
      </trkpt>
      <trkpt lat="45.90538" lon="5.76165">
        <ele>1492.58</ele>
        <time>2022-05-12T11:46:33Z</time>
      </trkpt>
      <trkpt lat="45.90537" lon="5.76166">
        <ele>1492.1</ele>
        <time>2022-05-12T11:46:34Z</time>
      </trkpt>
      <trkpt lat="45.90536" lon="5.76166">
        <ele>1492.1</ele>
        <time>2022-05-12T11:46:35Z</time>
      </trkpt>
      <trkpt lat="45.90535" lon="5.76167">
        <ele>1491.62</ele>
        <time>2022-05-12T11:46:36Z</time>
      </trkpt>
      <trkpt lat="45.90534" lon="5.76168">
        <ele>1491.62</ele>
        <time>2022-05-12T11:46:37Z</time>
      </trkpt>
      <trkpt lat="45.90533" lon="5.76169">
        <ele>1491.14</ele>
        <time>2022-05-12T11:46:38Z</time>
      </trkpt>
      <trkpt lat="45.90532" lon="5.76169">
        <ele>1490.66</ele>
        <time>2022-05-12T11:46:39Z</time>
      </trkpt>
      <trkpt lat="45.90531" lon="5.7617">
        <ele>1490.66</ele>
        <time>2022-05-12T11:46:40Z</time>
      </trkpt>
      <trkpt lat="45.90529" lon="5.76171">
        <ele>1490.18</ele>
        <time>2022-05-12T11:46:41Z</time>
      </trkpt>
      <trkpt lat="45.90523" lon="5.76175">
        <ele>1489.7</ele>
        <time>2022-05-12T11:46:48Z</time>
      </trkpt>
      <trkpt lat="45.90504" lon="5.76185">
        <ele>1487.3</ele>
        <time>2022-05-12T11:47:07Z</time>
      </trkpt>
      <trkpt lat="45.90503" lon="5.76185">
        <ele>1487.3</ele>
        <time>2022-05-12T11:47:08Z</time>
      </trkpt>
      <trkpt lat="45.90502" lon="5.76185">
        <ele>1486.82</ele>
        <time>2022-05-12T11:47:09Z</time>
      </trkpt>
      <trkpt lat="45.90501" lon="5.76185">
        <ele>1486.34</ele>
        <time>2022-05-12T11:47:10Z</time>
      </trkpt>
      <trkpt lat="45.905" lon="5.76185">
        <ele>1486.34</ele>
        <time>2022-05-12T11:47:11Z</time>
      </trkpt>
      <trkpt lat="45.90481" lon="5.76189">
        <ele>1483.93</ele>
        <time>2022-05-12T11:47:28Z</time>
      </trkpt>
      <trkpt lat="45.90473" lon="5.76193">
        <ele>1483.45</ele>
        <time>2022-05-12T11:47:36Z</time>
      </trkpt>
      <trkpt lat="45.90472" lon="5.76193">
        <ele>1482.97</ele>
        <time>2022-05-12T11:47:37Z</time>
      </trkpt>
      <trkpt lat="45.90465" lon="5.76194">
        <ele>1482.49</ele>
        <time>2022-05-12T11:47:43Z</time>
      </trkpt>
      <trkpt lat="45.90452" lon="5.76199">
        <ele>1480.57</ele>
        <time>2022-05-12T11:47:58Z</time>
      </trkpt>
      <trkpt lat="45.90451" lon="5.76198">
        <ele>1480.09</ele>
        <time>2022-05-12T11:47:59Z</time>
      </trkpt>
      <trkpt lat="45.9045" lon="5.76198">
        <ele>1480.09</ele>
        <time>2022-05-12T11:48:00Z</time>
      </trkpt>
      <trkpt lat="45.90447" lon="5.76202">
        <ele>1479.13</ele>
        <time>2022-05-12T11:48:10Z</time>
      </trkpt>
      <trkpt lat="45.90445" lon="5.76201">
        <ele>1479.13</ele>
        <time>2022-05-12T11:48:13Z</time>
      </trkpt>
      <trkpt lat="45.90443" lon="5.76201">
        <ele>1478.65</ele>
        <time>2022-05-12T11:48:15Z</time>
      </trkpt>
      <trkpt lat="45.90442" lon="5.76201">
        <ele>1478.65</ele>
        <time>2022-05-12T11:48:16Z</time>
      </trkpt>
      <trkpt lat="45.9044" lon="5.76201">
        <ele>1478.65</ele>
        <time>2022-05-12T11:48:17Z</time>
      </trkpt>
      <trkpt lat="45.9042" lon="5.76205">
        <ele>1478.16</ele>
        <time>2022-05-12T11:48:36Z</time>
      </trkpt>
      <trkpt lat="45.904" lon="5.76209">
        <ele>1477.2</ele>
        <time>2022-05-12T11:48:58Z</time>
      </trkpt>
      <trkpt lat="45.90383" lon="5.7621">
        <ele>1476.24</ele>
        <time>2022-05-12T11:49:16Z</time>
      </trkpt>
      <trkpt lat="45.90382" lon="5.7621">
        <ele>1476.24</ele>
        <time>2022-05-12T11:49:18Z</time>
      </trkpt>
      <trkpt lat="45.90378" lon="5.7621">
        <ele>1475.76</ele>
        <time>2022-05-12T11:49:21Z</time>
      </trkpt>
      <trkpt lat="45.90378" lon="5.76211">
        <ele>1475.76</ele>
        <time>2022-05-12T11:49:22Z</time>
      </trkpt>
      <trkpt lat="45.90368" lon="5.76218">
        <ele>1474.8</ele>
        <time>2022-05-12T11:49:37Z</time>
      </trkpt>
      <trkpt lat="45.90358" lon="5.76212">
        <ele>1474.32</ele>
        <time>2022-05-12T11:49:49Z</time>
      </trkpt>
      <trkpt lat="45.90338" lon="5.76201">
        <ele>1475.28</ele>
        <time>2022-05-12T11:50:10Z</time>
      </trkpt>
      <trkpt lat="45.90327" lon="5.762">
        <ele>1476.24</ele>
        <time>2022-05-12T11:50:25Z</time>
      </trkpt>
      <trkpt lat="45.9032" lon="5.76191">
        <ele>1476.72</ele>
        <time>2022-05-12T11:50:39Z</time>
      </trkpt>
      <trkpt lat="45.90315" lon="5.76176">
        <ele>1478.16</ele>
        <time>2022-05-12T11:50:55Z</time>
      </trkpt>
      <trkpt lat="45.90301" lon="5.76166">
        <ele>1481.05</ele>
        <time>2022-05-12T11:51:14Z</time>
      </trkpt>
      <trkpt lat="45.903" lon="5.76165">
        <ele>1481.05</ele>
        <time>2022-05-12T11:51:15Z</time>
      </trkpt>
      <trkpt lat="45.903" lon="5.76164">
        <ele>1481.53</ele>
        <time>2022-05-12T11:51:16Z</time>
      </trkpt>
      <trkpt lat="45.90284" lon="5.76153">
        <ele>1482.97</ele>
        <time>2022-05-12T11:51:33Z</time>
      </trkpt>
      <trkpt lat="45.90266" lon="5.76148">
        <ele>1482.49</ele>
        <time>2022-05-12T11:51:51Z</time>
      </trkpt>
      <trkpt lat="45.90243" lon="5.76145">
        <ele>1480.57</ele>
        <time>2022-05-12T11:52:11Z</time>
      </trkpt>
      <trkpt lat="45.90226" lon="5.76136">
        <ele>1480.09</ele>
        <time>2022-05-12T11:52:28Z</time>
      </trkpt>
      <trkpt lat="45.90214" lon="5.76123">
        <ele>1482.97</ele>
        <time>2022-05-12T11:52:46Z</time>
      </trkpt>
      <trkpt lat="45.90204" lon="5.76115">
        <ele>1485.85</ele>
        <time>2022-05-12T11:53:00Z</time>
      </trkpt>
      <trkpt lat="45.90192" lon="5.76107">
        <ele>1489.22</ele>
        <time>2022-05-12T11:53:17Z</time>
      </trkpt>
      <trkpt lat="45.90179" lon="5.76106">
        <ele>1491.14</ele>
        <time>2022-05-12T11:53:31Z</time>
      </trkpt>
      <trkpt lat="45.9017" lon="5.76107">
        <ele>1492.58</ele>
        <time>2022-05-12T11:53:48Z</time>
      </trkpt>
      <trkpt lat="45.90164" lon="5.76116">
        <ele>1494.99</ele>
        <time>2022-05-12T11:54:02Z</time>
      </trkpt>
      <trkpt lat="45.90158" lon="5.76123">
        <ele>1497.39</ele>
        <time>2022-05-12T11:54:16Z</time>
      </trkpt>
      <trkpt lat="45.90151" lon="5.76124">
        <ele>1499.79</ele>
        <time>2022-05-12T11:54:31Z</time>
      </trkpt>
      <trkpt lat="45.90146" lon="5.76124">
        <ele>1503.16</ele>
        <time>2022-05-12T11:54:42Z</time>
      </trkpt>
      <trkpt lat="45.90136" lon="5.76122">
        <ele>1504.6</ele>
        <time>2022-05-12T11:54:57Z</time>
      </trkpt>
      <trkpt lat="45.90122" lon="5.76118">
        <ele>1505.56</ele>
        <time>2022-05-12T11:55:11Z</time>
      </trkpt>
      <trkpt lat="45.90102" lon="5.76115">
        <ele>1505.56</ele>
        <time>2022-05-12T11:55:29Z</time>
      </trkpt>
      <trkpt lat="45.90087" lon="5.76111">
        <ele>1504.6</ele>
        <time>2022-05-12T11:55:43Z</time>
      </trkpt>
      <trkpt lat="45.9007" lon="5.76109">
        <ele>1504.12</ele>
        <time>2022-05-12T11:56:01Z</time>
      </trkpt>
      <trkpt lat="45.90061" lon="5.76109">
        <ele>1503.64</ele>
        <time>2022-05-12T11:56:10Z</time>
      </trkpt>
      <trkpt lat="45.9006" lon="5.76109">
        <ele>1503.64</ele>
        <time>2022-05-12T11:56:11Z</time>
      </trkpt>
      <trkpt lat="45.90059" lon="5.76108">
        <ele>1503.16</ele>
        <time>2022-05-12T11:56:12Z</time>
      </trkpt>
      <trkpt lat="45.90039" lon="5.76105">
        <ele>1503.16</ele>
        <time>2022-05-12T11:56:30Z</time>
      </trkpt>
      <trkpt lat="45.90026" lon="5.76103">
        <ele>1503.16</ele>
        <time>2022-05-12T11:56:43Z</time>
      </trkpt>
      <trkpt lat="45.90025" lon="5.76103">
        <ele>1503.16</ele>
        <time>2022-05-12T11:56:44Z</time>
      </trkpt>
      <trkpt lat="45.90007" lon="5.76104">
        <ele>1503.16</ele>
        <time>2022-05-12T11:57:01Z</time>
      </trkpt>
      <trkpt lat="45.89987" lon="5.76107">
        <ele>1503.64</ele>
        <time>2022-05-12T11:57:20Z</time>
      </trkpt>
      <trkpt lat="45.89971" lon="5.76109">
        <ele>1500.27</ele>
        <time>2022-05-12T11:57:37Z</time>
      </trkpt>
      <trkpt lat="45.89959" lon="5.76103">
        <ele>1499.31</ele>
        <time>2022-05-12T11:57:52Z</time>
      </trkpt>
      <trkpt lat="45.89947" lon="5.76095">
        <ele>1501.24</ele>
        <time>2022-05-12T11:58:08Z</time>
      </trkpt>
      <trkpt lat="45.89939" lon="5.76094">
        <ele>1502.2</ele>
        <time>2022-05-12T11:58:25Z</time>
      </trkpt>
      <trkpt lat="45.89931" lon="5.76093">
        <ele>1504.6</ele>
        <time>2022-05-12T11:58:36Z</time>
      </trkpt>
      <trkpt lat="45.8993" lon="5.76093">
        <ele>1504.6</ele>
        <time>2022-05-12T11:58:37Z</time>
      </trkpt>
      <trkpt lat="45.89921" lon="5.76093">
        <ele>1505.56</ele>
        <time>2022-05-12T11:58:53Z</time>
      </trkpt>
      <trkpt lat="45.8992" lon="5.76092">
        <ele>1506.52</ele>
        <time>2022-05-12T11:59:11Z</time>
      </trkpt>
      <trkpt lat="45.8992" lon="5.76093">
        <ele>1507.48</ele>
        <time>2022-05-12T11:59:29Z</time>
      </trkpt>
      <trkpt lat="45.8992" lon="5.76093">
        <ele>1507</ele>
        <time>2022-05-12T12:00:03Z</time>
      </trkpt>
      <trkpt lat="45.8992" lon="5.76094">
        <ele>1507</ele>
        <time>2022-05-12T12:00:26Z</time>
      </trkpt>
      <trkpt lat="45.8992" lon="5.761">
        <ele>1507.97</ele>
        <time>2022-05-12T12:00:44Z</time>
      </trkpt>
      <trkpt lat="45.89917" lon="5.76102">
        <ele>1507</ele>
        <time>2022-05-12T12:01:00Z</time>
      </trkpt>
      <trkpt lat="45.89913" lon="5.76105">
        <ele>1507</ele>
        <time>2022-05-12T12:01:13Z</time>
      </trkpt>
      <trkpt lat="45.8991" lon="5.76107">
        <ele>1507</ele>
        <time>2022-05-12T12:01:28Z</time>
      </trkpt>
      <trkpt lat="45.89906" lon="5.7611">
        <ele>1505.56</ele>
        <time>2022-05-12T12:01:34Z</time>
      </trkpt>
      <trkpt lat="45.89905" lon="5.7611">
        <ele>1505.56</ele>
        <time>2022-05-12T12:01:35Z</time>
      </trkpt>
      <trkpt lat="45.89904" lon="5.76111">
        <ele>1505.08</ele>
        <time>2022-05-12T12:01:36Z</time>
      </trkpt>
      <trkpt lat="45.89891" lon="5.76121">
        <ele>1502.68</ele>
        <time>2022-05-12T12:01:51Z</time>
      </trkpt>
      <trkpt lat="45.89886" lon="5.76122">
        <ele>1502.68</ele>
        <time>2022-05-12T12:01:56Z</time>
      </trkpt>
      <trkpt lat="45.89882" lon="5.76123">
        <ele>1502.68</ele>
        <time>2022-05-12T12:02:01Z</time>
      </trkpt>
      <trkpt lat="45.89872" lon="5.76125">
        <ele>1503.64</ele>
        <time>2022-05-12T12:02:14Z</time>
      </trkpt>
      <trkpt lat="45.89862" lon="5.76124">
        <ele>1502.68</ele>
        <time>2022-05-12T12:02:27Z</time>
      </trkpt>
      <trkpt lat="45.89857" lon="5.76125">
        <ele>1502.2</ele>
        <time>2022-05-12T12:02:40Z</time>
      </trkpt>
      <trkpt lat="45.89849" lon="5.76125">
        <ele>1501.24</ele>
        <time>2022-05-12T12:02:52Z</time>
      </trkpt>
      <trkpt lat="45.89846" lon="5.76125">
        <ele>1501.24</ele>
        <time>2022-05-12T12:03:07Z</time>
      </trkpt>
      <trkpt lat="45.8984" lon="5.76126">
        <ele>1501.72</ele>
        <time>2022-05-12T12:03:22Z</time>
      </trkpt>
      <trkpt lat="45.89836" lon="5.76128">
        <ele>1499.79</ele>
        <time>2022-05-12T12:03:36Z</time>
      </trkpt>
      <trkpt lat="45.89834" lon="5.7613">
        <ele>1496.91</ele>
        <time>2022-05-12T12:03:52Z</time>
      </trkpt>
      <trkpt lat="45.89825" lon="5.76134">
        <ele>1494.03</ele>
        <time>2022-05-12T12:04:10Z</time>
      </trkpt>
      <trkpt lat="45.89821" lon="5.76133">
        <ele>1491.62</ele>
        <time>2022-05-12T12:04:26Z</time>
      </trkpt>
      <trkpt lat="45.89819" lon="5.76135">
        <ele>1489.22</ele>
        <time>2022-05-12T12:04:44Z</time>
      </trkpt>
      <trkpt lat="45.89815" lon="5.76135">
        <ele>1486.82</ele>
        <time>2022-05-12T12:05:01Z</time>
      </trkpt>
      <trkpt lat="45.89808" lon="5.76132">
        <ele>1484.89</ele>
        <time>2022-05-12T12:05:14Z</time>
      </trkpt>
      <trkpt lat="45.89796" lon="5.76128">
        <ele>1482.49</ele>
        <time>2022-05-12T12:05:30Z</time>
      </trkpt>
      <trkpt lat="45.89794" lon="5.76126">
        <ele>1482.01</ele>
        <time>2022-05-12T12:05:32Z</time>
      </trkpt>
      <trkpt lat="45.89793" lon="5.76125">
        <ele>1482.01</ele>
        <time>2022-05-12T12:05:33Z</time>
      </trkpt>
      <trkpt lat="45.89788" lon="5.76117">
        <ele>1479.61</ele>
        <time>2022-05-12T12:05:48Z</time>
      </trkpt>
      <trkpt lat="45.89784" lon="5.76114">
        <ele>1478.16</ele>
        <time>2022-05-12T12:05:54Z</time>
      </trkpt>
      <trkpt lat="45.89783" lon="5.76113">
        <ele>1478.16</ele>
        <time>2022-05-12T12:05:55Z</time>
      </trkpt>
      <trkpt lat="45.89782" lon="5.76112">
        <ele>1478.16</ele>
        <time>2022-05-12T12:05:56Z</time>
      </trkpt>
      <trkpt lat="45.89781" lon="5.76111">
        <ele>1478.16</ele>
        <time>2022-05-12T12:05:57Z</time>
      </trkpt>
      <trkpt lat="45.89781" lon="5.76109">
        <ele>1477.68</ele>
        <time>2022-05-12T12:05:58Z</time>
      </trkpt>
      <trkpt lat="45.8978" lon="5.76108">
        <ele>1477.2</ele>
        <time>2022-05-12T12:05:59Z</time>
      </trkpt>
      <trkpt lat="45.89779" lon="5.76106">
        <ele>1477.2</ele>
        <time>2022-05-12T12:06:00Z</time>
      </trkpt>
      <trkpt lat="45.89769" lon="5.76102">
        <ele>1474.32</ele>
        <time>2022-05-12T12:06:12Z</time>
      </trkpt>
      <trkpt lat="45.89768" lon="5.76101">
        <ele>1473.84</ele>
        <time>2022-05-12T12:06:13Z</time>
      </trkpt>
      <trkpt lat="45.8976" lon="5.76098">
        <ele>1472.4</ele>
        <time>2022-05-12T12:06:21Z</time>
      </trkpt>
      <trkpt lat="45.89757" lon="5.76097">
        <ele>1471.92</ele>
        <time>2022-05-12T12:06:24Z</time>
      </trkpt>
      <trkpt lat="45.89745" lon="5.76097">
        <ele>1469.51</ele>
        <time>2022-05-12T12:06:39Z</time>
      </trkpt>
      <trkpt lat="45.89737" lon="5.76101">
        <ele>1466.63</ele>
        <time>2022-05-12T12:06:54Z</time>
      </trkpt>
      <trkpt lat="45.89725" lon="5.76101">
        <ele>1463.26</ele>
        <time>2022-05-12T12:07:09Z</time>
      </trkpt>
      <trkpt lat="45.8972" lon="5.76101">
        <ele>1461.82</ele>
        <time>2022-05-12T12:07:14Z</time>
      </trkpt>
      <trkpt lat="45.89708" lon="5.761">
        <ele>1458.46</ele>
        <time>2022-05-12T12:07:27Z</time>
      </trkpt>
      <trkpt lat="45.89692" lon="5.761">
        <ele>1455.57</ele>
        <time>2022-05-12T12:07:41Z</time>
      </trkpt>
      <trkpt lat="45.89672" lon="5.76089">
        <ele>1453.65</ele>
        <time>2022-05-12T12:08:01Z</time>
      </trkpt>
      <trkpt lat="45.89667" lon="5.76085">
        <ele>1453.65</ele>
        <time>2022-05-12T12:08:07Z</time>
      </trkpt>
      <trkpt lat="45.89659" lon="5.76084">
        <ele>1453.17</ele>
        <time>2022-05-12T12:08:15Z</time>
      </trkpt>
      <trkpt lat="45.89658" lon="5.76084">
        <ele>1453.17</ele>
        <time>2022-05-12T12:08:16Z</time>
      </trkpt>
      <trkpt lat="45.89656" lon="5.76085">
        <ele>1452.69</ele>
        <time>2022-05-12T12:08:17Z</time>
      </trkpt>
      <trkpt lat="45.89655" lon="5.76085">
        <ele>1452.69</ele>
        <time>2022-05-12T12:08:18Z</time>
      </trkpt>
      <trkpt lat="45.89654" lon="5.76085">
        <ele>1452.69</ele>
        <time>2022-05-12T12:08:19Z</time>
      </trkpt>
      <trkpt lat="45.89653" lon="5.76086">
        <ele>1452.21</ele>
        <time>2022-05-12T12:08:20Z</time>
      </trkpt>
      <trkpt lat="45.89652" lon="5.76086">
        <ele>1452.21</ele>
        <time>2022-05-12T12:08:21Z</time>
      </trkpt>
      <trkpt lat="45.89642" lon="5.76086">
        <ele>1451.73</ele>
        <time>2022-05-12T12:08:32Z</time>
      </trkpt>
      <trkpt lat="45.89639" lon="5.76086">
        <ele>1451.25</ele>
        <time>2022-05-12T12:08:36Z</time>
      </trkpt>
      <trkpt lat="45.89638" lon="5.76086">
        <ele>1451.25</ele>
        <time>2022-05-12T12:08:37Z</time>
      </trkpt>
      <trkpt lat="45.89626" lon="5.76086">
        <ele>1448.84</ele>
        <time>2022-05-12T12:08:55Z</time>
      </trkpt>
      <trkpt lat="45.8962" lon="5.76085">
        <ele>1446.44</ele>
        <time>2022-05-12T12:09:09Z</time>
      </trkpt>
      <trkpt lat="45.89619" lon="5.76084">
        <ele>1445.48</ele>
        <time>2022-05-12T12:09:27Z</time>
      </trkpt>
      <trkpt lat="45.89617" lon="5.76085">
        <ele>1445</ele>
        <time>2022-05-12T12:09:47Z</time>
      </trkpt>
      <trkpt lat="45.89612" lon="5.76092">
        <ele>1444.04</ele>
        <time>2022-05-12T12:10:07Z</time>
      </trkpt>
      <trkpt lat="45.89614" lon="5.76101">
        <ele>1440.67</ele>
        <time>2022-05-12T12:10:21Z</time>
      </trkpt>
      <trkpt lat="45.8961" lon="5.76104">
        <ele>1437.79</ele>
        <time>2022-05-12T12:10:35Z</time>
      </trkpt>
      <trkpt lat="45.89606" lon="5.76104">
        <ele>1436.83</ele>
        <time>2022-05-12T12:10:57Z</time>
      </trkpt>
      <trkpt lat="45.89602" lon="5.76104">
        <ele>1435.39</ele>
        <time>2022-05-12T12:11:14Z</time>
      </trkpt>
      <trkpt lat="45.89602" lon="5.76103">
        <ele>1434.42</ele>
        <time>2022-05-12T12:11:39Z</time>
      </trkpt>
      <trkpt lat="45.89603" lon="5.76104">
        <ele>1434.42</ele>
        <time>2022-05-12T12:12:10Z</time>
      </trkpt>
      <trkpt lat="45.89603" lon="5.76107">
        <ele>1435.39</ele>
        <time>2022-05-12T12:12:35Z</time>
      </trkpt>
      <trkpt lat="45.89602" lon="5.76108">
        <ele>1435.39</ele>
        <time>2022-05-12T12:13:01Z</time>
      </trkpt>
      <trkpt lat="45.89602" lon="5.76108">
        <ele>1434.42</ele>
        <time>2022-05-12T12:13:25Z</time>
      </trkpt>
      <trkpt lat="45.89602" lon="5.76108">
        <ele>1435.39</ele>
        <time>2022-05-12T12:13:32Z</time>
      </trkpt>
      <trkpt lat="45.89602" lon="5.76108">
        <ele>1435.39</ele>
        <time>2022-05-12T12:14:00Z</time>
      </trkpt>
      <trkpt lat="45.89601" lon="5.76108">
        <ele>1434.91</ele>
        <time>2022-05-12T12:14:19Z</time>
      </trkpt>
      <trkpt lat="45.89588" lon="5.76099">
        <ele>1434.91</ele>
        <time>2022-05-12T12:14:52Z</time>
      </trkpt>
      <trkpt lat="45.89576" lon="5.7609">
        <ele>1434.91</ele>
        <time>2022-05-12T12:15:13Z</time>
      </trkpt>
      <trkpt lat="45.89567" lon="5.76089">
        <ele>1434.91</ele>
        <time>2022-05-12T12:15:36Z</time>
      </trkpt>
      <trkpt lat="45.89565" lon="5.76089">
        <ele>1432.5</ele>
        <time>2022-05-12T12:15:54Z</time>
      </trkpt>
      <trkpt lat="45.89554" lon="5.76089">
        <ele>1430.1</ele>
        <time>2022-05-12T12:16:07Z</time>
      </trkpt>
      <trkpt lat="45.89545" lon="5.76085">
        <ele>1431.06</ele>
        <time>2022-05-12T12:16:22Z</time>
      </trkpt>
      <trkpt lat="45.89542" lon="5.76084">
        <ele>1431.54</ele>
        <time>2022-05-12T12:16:25Z</time>
      </trkpt>
      <trkpt lat="45.89534" lon="5.76076">
        <ele>1432.02</ele>
        <time>2022-05-12T12:16:37Z</time>
      </trkpt>
      <trkpt lat="45.89533" lon="5.76075">
        <ele>1432.02</ele>
        <time>2022-05-12T12:16:38Z</time>
      </trkpt>
      <trkpt lat="45.89528" lon="5.76075">
        <ele>1432.02</ele>
        <time>2022-05-12T12:16:43Z</time>
      </trkpt>
      <trkpt lat="45.89514" lon="5.76074">
        <ele>1428.66</ele>
        <time>2022-05-12T12:17:01Z</time>
      </trkpt>
      <trkpt lat="45.89508" lon="5.76079">
        <ele>1425.77</ele>
        <time>2022-05-12T12:17:18Z</time>
      </trkpt>
      <trkpt lat="45.89502" lon="5.76085">
        <ele>1422.89</ele>
        <time>2022-05-12T12:17:36Z</time>
      </trkpt>
      <trkpt lat="45.89494" lon="5.76092">
        <ele>1420</ele>
        <time>2022-05-12T12:17:48Z</time>
      </trkpt>
      <trkpt lat="45.89483" lon="5.76103">
        <ele>1416.64</ele>
        <time>2022-05-12T12:18:02Z</time>
      </trkpt>
      <trkpt lat="45.89474" lon="5.76105">
        <ele>1414.72</ele>
        <time>2022-05-12T12:18:12Z</time>
      </trkpt>
      <trkpt lat="45.89464" lon="5.76114">
        <ele>1411.83</ele>
        <time>2022-05-12T12:18:24Z</time>
      </trkpt>
      <trkpt lat="45.8946" lon="5.76117">
        <ele>1410.39</ele>
        <time>2022-05-12T12:18:29Z</time>
      </trkpt>
      <trkpt lat="45.89458" lon="5.76116">
        <ele>1409.91</ele>
        <time>2022-05-12T12:18:30Z</time>
      </trkpt>
      <trkpt lat="45.89439" lon="5.76116">
        <ele>1408.47</ele>
        <time>2022-05-12T12:18:47Z</time>
      </trkpt>
      <trkpt lat="45.89419" lon="5.76116">
        <ele>1407.51</ele>
        <time>2022-05-12T12:19:05Z</time>
      </trkpt>
      <trkpt lat="45.89397" lon="5.76116">
        <ele>1405.58</ele>
        <time>2022-05-12T12:19:25Z</time>
      </trkpt>
      <trkpt lat="45.89375" lon="5.76109">
        <ele>1403.66</ele>
        <time>2022-05-12T12:19:46Z</time>
      </trkpt>
      <trkpt lat="45.89369" lon="5.76106">
        <ele>1403.18</ele>
        <time>2022-05-12T12:19:54Z</time>
      </trkpt>
      <trkpt lat="45.89368" lon="5.76106">
        <ele>1403.18</ele>
        <time>2022-05-12T12:19:55Z</time>
      </trkpt>
      <trkpt lat="45.89367" lon="5.76105">
        <ele>1403.18</ele>
        <time>2022-05-12T12:19:56Z</time>
      </trkpt>
      <trkpt lat="45.89351" lon="5.76106">
        <ele>1400.78</ele>
        <time>2022-05-12T12:20:12Z</time>
      </trkpt>
      <trkpt lat="45.89338" lon="5.76105">
        <ele>1400.78</ele>
        <time>2022-05-12T12:20:26Z</time>
      </trkpt>
      <trkpt lat="45.89337" lon="5.76105">
        <ele>1400.78</ele>
        <time>2022-05-12T12:20:27Z</time>
      </trkpt>
      <trkpt lat="45.89336" lon="5.76105">
        <ele>1400.78</ele>
        <time>2022-05-12T12:20:28Z</time>
      </trkpt>
      <trkpt lat="45.89335" lon="5.76106">
        <ele>1400.78</ele>
        <time>2022-05-12T12:20:29Z</time>
      </trkpt>
      <trkpt lat="45.89334" lon="5.76106">
        <ele>1400.78</ele>
        <time>2022-05-12T12:20:30Z</time>
      </trkpt>
      <trkpt lat="45.89311" lon="5.76113">
        <ele>1398.37</ele>
        <time>2022-05-12T12:20:50Z</time>
      </trkpt>
      <trkpt lat="45.89305" lon="5.76112">
        <ele>1397.41</ele>
        <time>2022-05-12T12:20:57Z</time>
      </trkpt>
      <trkpt lat="45.89304" lon="5.76112">
        <ele>1397.41</ele>
        <time>2022-05-12T12:20:58Z</time>
      </trkpt>
      <trkpt lat="45.89303" lon="5.76111">
        <ele>1397.41</ele>
        <time>2022-05-12T12:20:59Z</time>
      </trkpt>
      <trkpt lat="45.89302" lon="5.76111">
        <ele>1397.41</ele>
        <time>2022-05-12T12:21:00Z</time>
      </trkpt>
      <trkpt lat="45.89301" lon="5.7611">
        <ele>1397.41</ele>
        <time>2022-05-12T12:21:01Z</time>
      </trkpt>
      <trkpt lat="45.89297" lon="5.7611">
        <ele>1396.93</ele>
        <time>2022-05-12T12:21:06Z</time>
      </trkpt>
      <trkpt lat="45.89296" lon="5.7611">
        <ele>1396.93</ele>
        <time>2022-05-12T12:21:07Z</time>
      </trkpt>
      <trkpt lat="45.89295" lon="5.7611">
        <ele>1396.93</ele>
        <time>2022-05-12T12:21:08Z</time>
      </trkpt>
      <trkpt lat="45.89293" lon="5.7611">
        <ele>1396.93</ele>
        <time>2022-05-12T12:21:09Z</time>
      </trkpt>
      <trkpt lat="45.89292" lon="5.7611">
        <ele>1396.93</ele>
        <time>2022-05-12T12:21:10Z</time>
      </trkpt>
      <trkpt lat="45.89291" lon="5.7611">
        <ele>1396.93</ele>
        <time>2022-05-12T12:21:11Z</time>
      </trkpt>
      <trkpt lat="45.8929" lon="5.7611">
        <ele>1396.93</ele>
        <time>2022-05-12T12:21:12Z</time>
      </trkpt>
      <trkpt lat="45.89288" lon="5.7611">
        <ele>1396.93</ele>
        <time>2022-05-12T12:21:13Z</time>
      </trkpt>
      <trkpt lat="45.89287" lon="5.7611">
        <ele>1396.45</ele>
        <time>2022-05-12T12:21:14Z</time>
      </trkpt>
      <trkpt lat="45.89286" lon="5.7611">
        <ele>1396.45</ele>
        <time>2022-05-12T12:21:15Z</time>
      </trkpt>
      <trkpt lat="45.89285" lon="5.7611">
        <ele>1396.45</ele>
        <time>2022-05-12T12:21:16Z</time>
      </trkpt>
      <trkpt lat="45.89284" lon="5.7611">
        <ele>1396.45</ele>
        <time>2022-05-12T12:21:17Z</time>
      </trkpt>
      <trkpt lat="45.89282" lon="5.7611">
        <ele>1396.45</ele>
        <time>2022-05-12T12:21:18Z</time>
      </trkpt>
      <trkpt lat="45.89259" lon="5.76105">
        <ele>1395.97</ele>
        <time>2022-05-12T12:21:37Z</time>
      </trkpt>
      <trkpt lat="45.89239" lon="5.76103">
        <ele>1395.49</ele>
        <time>2022-05-12T12:21:54Z</time>
      </trkpt>
      <trkpt lat="45.89226" lon="5.76103">
        <ele>1394.05</ele>
        <time>2022-05-12T12:22:09Z</time>
      </trkpt>
      <trkpt lat="45.89223" lon="5.76099">
        <ele>1394.05</ele>
        <time>2022-05-12T12:22:13Z</time>
      </trkpt>
      <trkpt lat="45.8922" lon="5.76096">
        <ele>1394.05</ele>
        <time>2022-05-12T12:22:29Z</time>
      </trkpt>
      <trkpt lat="45.8922" lon="5.76096">
        <ele>1393.09</ele>
        <time>2022-05-12T12:22:53Z</time>
      </trkpt>
      <trkpt lat="45.89218" lon="5.76094">
        <ele>1392.61</ele>
        <time>2022-05-12T12:23:09Z</time>
      </trkpt>
      <trkpt lat="45.89215" lon="5.76094">
        <ele>1392.61</ele>
        <time>2022-05-12T12:23:31Z</time>
      </trkpt>
      <trkpt lat="45.89214" lon="5.76093">
        <ele>1392.61</ele>
        <time>2022-05-12T12:23:32Z</time>
      </trkpt>
      <trkpt lat="45.89213" lon="5.76093">
        <ele>1392.61</ele>
        <time>2022-05-12T12:23:33Z</time>
      </trkpt>
      <trkpt lat="45.89212" lon="5.76093">
        <ele>1392.61</ele>
        <time>2022-05-12T12:23:34Z</time>
      </trkpt>
      <trkpt lat="45.89211" lon="5.76092">
        <ele>1392.13</ele>
        <time>2022-05-12T12:23:36Z</time>
      </trkpt>
      <trkpt lat="45.8921" lon="5.76091">
        <ele>1392.13</ele>
        <time>2022-05-12T12:23:37Z</time>
      </trkpt>
      <trkpt lat="45.89191" lon="5.76084">
        <ele>1392.13</ele>
        <time>2022-05-12T12:23:55Z</time>
      </trkpt>
      <trkpt lat="45.8919" lon="5.76083">
        <ele>1392.13</ele>
        <time>2022-05-12T12:23:56Z</time>
      </trkpt>
      <trkpt lat="45.89189" lon="5.76083">
        <ele>1392.13</ele>
        <time>2022-05-12T12:23:57Z</time>
      </trkpt>
      <trkpt lat="45.89169" lon="5.76082">
        <ele>1391.17</ele>
        <time>2022-05-12T12:24:14Z</time>
      </trkpt>
      <trkpt lat="45.89152" lon="5.76078">
        <ele>1389.72</ele>
        <time>2022-05-12T12:24:29Z</time>
      </trkpt>
      <trkpt lat="45.89134" lon="5.76076">
        <ele>1387.8</ele>
        <time>2022-05-12T12:24:46Z</time>
      </trkpt>
      <trkpt lat="45.89133" lon="5.76076">
        <ele>1387.32</ele>
        <time>2022-05-12T12:24:47Z</time>
      </trkpt>
      <trkpt lat="45.89132" lon="5.76075">
        <ele>1387.32</ele>
        <time>2022-05-12T12:24:48Z</time>
      </trkpt>
      <trkpt lat="45.89131" lon="5.76075">
        <ele>1386.84</ele>
        <time>2022-05-12T12:24:49Z</time>
      </trkpt>
      <trkpt lat="45.8913" lon="5.76075">
        <ele>1386.84</ele>
        <time>2022-05-12T12:24:50Z</time>
      </trkpt>
      <trkpt lat="45.89129" lon="5.76074">
        <ele>1386.84</ele>
        <time>2022-05-12T12:24:51Z</time>
      </trkpt>
      <trkpt lat="45.89128" lon="5.76074">
        <ele>1386.36</ele>
        <time>2022-05-12T12:24:52Z</time>
      </trkpt>
      <trkpt lat="45.89127" lon="5.76073">
        <ele>1386.36</ele>
        <time>2022-05-12T12:24:53Z</time>
      </trkpt>
      <trkpt lat="45.89106" lon="5.76072">
        <ele>1384.92</ele>
        <time>2022-05-12T12:25:10Z</time>
      </trkpt>
      <trkpt lat="45.89088" lon="5.76068">
        <ele>1383.96</ele>
        <time>2022-05-12T12:25:27Z</time>
      </trkpt>
      <trkpt lat="45.89087" lon="5.76068">
        <ele>1383.96</ele>
        <time>2022-05-12T12:25:28Z</time>
      </trkpt>
      <trkpt lat="45.89085" lon="5.76068">
        <ele>1383.47</ele>
        <time>2022-05-12T12:25:29Z</time>
      </trkpt>
      <trkpt lat="45.89084" lon="5.76068">
        <ele>1383.47</ele>
        <time>2022-05-12T12:25:30Z</time>
      </trkpt>
      <trkpt lat="45.89083" lon="5.76068">
        <ele>1383.47</ele>
        <time>2022-05-12T12:25:31Z</time>
      </trkpt>
      <trkpt lat="45.89081" lon="5.76068">
        <ele>1382.99</ele>
        <time>2022-05-12T12:25:32Z</time>
      </trkpt>
      <trkpt lat="45.8908" lon="5.76068">
        <ele>1382.99</ele>
        <time>2022-05-12T12:25:33Z</time>
      </trkpt>
      <trkpt lat="45.89079" lon="5.76068">
        <ele>1382.99</ele>
        <time>2022-05-12T12:25:34Z</time>
      </trkpt>
      <trkpt lat="45.89078" lon="5.76068">
        <ele>1382.99</ele>
        <time>2022-05-12T12:25:35Z</time>
      </trkpt>
      <trkpt lat="45.89077" lon="5.76069">
        <ele>1382.99</ele>
        <time>2022-05-12T12:25:36Z</time>
      </trkpt>
      <trkpt lat="45.89058" lon="5.76071">
        <ele>1383.47</ele>
        <time>2022-05-12T12:25:53Z</time>
      </trkpt>
      <trkpt lat="45.89058" lon="5.76072">
        <ele>1383.47</ele>
        <time>2022-05-12T12:25:54Z</time>
      </trkpt>
      <trkpt lat="45.89056" lon="5.76074">
        <ele>1383.96</ele>
        <time>2022-05-12T12:25:57Z</time>
      </trkpt>
      <trkpt lat="45.89037" lon="5.76077">
        <ele>1382.51</ele>
        <time>2022-05-12T12:26:14Z</time>
      </trkpt>
      <trkpt lat="45.89015" lon="5.7608">
        <ele>1379.63</ele>
        <time>2022-05-12T12:26:33Z</time>
      </trkpt>
      <trkpt lat="45.89008" lon="5.7608">
        <ele>1378.19</ele>
        <time>2022-05-12T12:26:40Z</time>
      </trkpt>
      <trkpt lat="45.89006" lon="5.7608">
        <ele>1378.19</ele>
        <time>2022-05-12T12:26:41Z</time>
      </trkpt>
      <trkpt lat="45.89005" lon="5.76081">
        <ele>1378.19</ele>
        <time>2022-05-12T12:26:42Z</time>
      </trkpt>
      <trkpt lat="45.89004" lon="5.76081">
        <ele>1378.19</ele>
        <time>2022-05-12T12:26:43Z</time>
      </trkpt>
      <trkpt lat="45.89003" lon="5.76081">
        <ele>1377.71</ele>
        <time>2022-05-12T12:26:44Z</time>
      </trkpt>
      <trkpt lat="45.8899" lon="5.76082">
        <ele>1375.78</ele>
        <time>2022-05-12T12:26:57Z</time>
      </trkpt>
      <trkpt lat="45.88968" lon="5.76085">
        <ele>1372.42</ele>
        <time>2022-05-12T12:27:17Z</time>
      </trkpt>
      <trkpt lat="45.88953" lon="5.76094">
        <ele>1369.54</ele>
        <time>2022-05-12T12:27:33Z</time>
      </trkpt>
      <trkpt lat="45.88944" lon="5.76096">
        <ele>1368.09</ele>
        <time>2022-05-12T12:27:42Z</time>
      </trkpt>
      <trkpt lat="45.88943" lon="5.76096">
        <ele>1367.61</ele>
        <time>2022-05-12T12:27:43Z</time>
      </trkpt>
      <trkpt lat="45.88929" lon="5.76103">
        <ele>1365.21</ele>
        <time>2022-05-12T12:27:59Z</time>
      </trkpt>
      <trkpt lat="45.88927" lon="5.76103">
        <ele>1364.73</ele>
        <time>2022-05-12T12:28:02Z</time>
      </trkpt>
      <trkpt lat="45.88924" lon="5.76105">
        <ele>1364.25</ele>
        <time>2022-05-12T12:28:05Z</time>
      </trkpt>
      <trkpt lat="45.88921" lon="5.76106">
        <ele>1363.77</ele>
        <time>2022-05-12T12:28:08Z</time>
      </trkpt>
      <trkpt lat="45.88899" lon="5.76104">
        <ele>1362.81</ele>
        <time>2022-05-12T12:28:26Z</time>
      </trkpt>
      <trkpt lat="45.88871" lon="5.76101">
        <ele>1361.36</ele>
        <time>2022-05-12T12:28:46Z</time>
      </trkpt>
      <trkpt lat="45.88848" lon="5.76097">
        <ele>1360.4</ele>
        <time>2022-05-12T12:29:06Z</time>
      </trkpt>
      <trkpt lat="45.88829" lon="5.76094">
        <ele>1358.48</ele>
        <time>2022-05-12T12:29:22Z</time>
      </trkpt>
      <trkpt lat="45.88806" lon="5.76089">
        <ele>1357.04</ele>
        <time>2022-05-12T12:29:39Z</time>
      </trkpt>
      <trkpt lat="45.88794" lon="5.76085">
        <ele>1356.56</ele>
        <time>2022-05-12T12:29:48Z</time>
      </trkpt>
      <trkpt lat="45.88773" lon="5.76079">
        <ele>1356.08</ele>
        <time>2022-05-12T12:30:05Z</time>
      </trkpt>
      <trkpt lat="45.88744" lon="5.76072">
        <ele>1355.6</ele>
        <time>2022-05-12T12:30:25Z</time>
      </trkpt>
      <trkpt lat="45.88717" lon="5.76068">
        <ele>1354.63</ele>
        <time>2022-05-12T12:30:46Z</time>
      </trkpt>
      <trkpt lat="45.88685" lon="5.76067">
        <ele>1353.19</ele>
        <time>2022-05-12T12:31:06Z</time>
      </trkpt>
      <trkpt lat="45.88678" lon="5.76066">
        <ele>1349.83</ele>
        <time>2022-05-12T12:31:11Z</time>
      </trkpt>
      <trkpt lat="45.8867" lon="5.76065">
        <ele>1353.19</ele>
        <time>2022-05-12T12:31:17Z</time>
      </trkpt>
      <trkpt lat="45.88644" lon="5.7606">
        <ele>1355.12</ele>
        <time>2022-05-12T12:31:36Z</time>
      </trkpt>
      <trkpt lat="45.88612" lon="5.76055">
        <ele>1352.23</ele>
        <time>2022-05-12T12:32:01Z</time>
      </trkpt>
      <trkpt lat="45.8858" lon="5.76052">
        <ele>1349.35</ele>
        <time>2022-05-12T12:32:26Z</time>
      </trkpt>
      <trkpt lat="45.88562" lon="5.76051">
        <ele>1351.27</ele>
        <time>2022-05-12T12:32:45Z</time>
      </trkpt>
      <trkpt lat="45.88549" lon="5.76052">
        <ele>1350.31</ele>
        <time>2022-05-12T12:33:01Z</time>
      </trkpt>
      <trkpt lat="45.88548" lon="5.76052">
        <ele>1350.31</ele>
        <time>2022-05-12T12:33:02Z</time>
      </trkpt>
      <trkpt lat="45.88547" lon="5.76053">
        <ele>1350.31</ele>
        <time>2022-05-12T12:33:03Z</time>
      </trkpt>
      <trkpt lat="45.88546" lon="5.76053">
        <ele>1350.79</ele>
        <time>2022-05-12T12:33:04Z</time>
      </trkpt>
      <trkpt lat="45.88535" lon="5.76053">
        <ele>1351.27</ele>
        <time>2022-05-12T12:33:21Z</time>
      </trkpt>
      <trkpt lat="45.88513" lon="5.76056">
        <ele>1350.31</ele>
        <time>2022-05-12T12:33:42Z</time>
      </trkpt>
      <trkpt lat="45.88485" lon="5.76064">
        <ele>1349.83</ele>
        <time>2022-05-12T12:34:05Z</time>
      </trkpt>
      <trkpt lat="45.8846" lon="5.76073">
        <ele>1348.39</ele>
        <time>2022-05-12T12:34:28Z</time>
      </trkpt>
      <trkpt lat="45.88437" lon="5.76083">
        <ele>1345.5</ele>
        <time>2022-05-12T12:34:48Z</time>
      </trkpt>
      <trkpt lat="45.88413" lon="5.76096">
        <ele>1343.1</ele>
        <time>2022-05-12T12:35:09Z</time>
      </trkpt>
      <trkpt lat="45.88394" lon="5.76106">
        <ele>1340.7</ele>
        <time>2022-05-12T12:35:27Z</time>
      </trkpt>
      <trkpt lat="45.88372" lon="5.76117">
        <ele>1337.81</ele>
        <time>2022-05-12T12:35:47Z</time>
      </trkpt>
      <trkpt lat="45.88352" lon="5.76128">
        <ele>1335.41</ele>
        <time>2022-05-12T12:36:06Z</time>
      </trkpt>
      <trkpt lat="45.88331" lon="5.76141">
        <ele>1333.01</ele>
        <time>2022-05-12T12:36:26Z</time>
      </trkpt>
      <trkpt lat="45.88309" lon="5.76156">
        <ele>1330.6</ele>
        <time>2022-05-12T12:36:47Z</time>
      </trkpt>
      <trkpt lat="45.88298" lon="5.76162">
        <ele>1329.16</ele>
        <time>2022-05-12T12:36:57Z</time>
      </trkpt>
      <trkpt lat="45.88296" lon="5.76164">
        <ele>1329.16</ele>
        <time>2022-05-12T12:36:59Z</time>
      </trkpt>
      <trkpt lat="45.88277" lon="5.76173">
        <ele>1327.72</ele>
        <time>2022-05-12T12:37:17Z</time>
      </trkpt>
      <trkpt lat="45.88259" lon="5.76183">
        <ele>1326.76</ele>
        <time>2022-05-12T12:37:33Z</time>
      </trkpt>
      <trkpt lat="45.88236" lon="5.76191">
        <ele>1325.8</ele>
        <time>2022-05-12T12:37:54Z</time>
      </trkpt>
      <trkpt lat="45.88226" lon="5.76194">
        <ele>1321.95</ele>
        <time>2022-05-12T12:38:03Z</time>
      </trkpt>
      <trkpt lat="45.88218" lon="5.76201">
        <ele>1325.31</ele>
        <time>2022-05-12T12:38:09Z</time>
      </trkpt>
      <trkpt lat="45.88216" lon="5.76205">
        <ele>1325.8</ele>
        <time>2022-05-12T12:38:11Z</time>
      </trkpt>
      <trkpt lat="45.88205" lon="5.7623">
        <ele>1323.39</ele>
        <time>2022-05-12T12:38:29Z</time>
      </trkpt>
      <trkpt lat="45.88194" lon="5.76253">
        <ele>1322.43</ele>
        <time>2022-05-12T12:38:45Z</time>
      </trkpt>
      <trkpt lat="45.88181" lon="5.76265">
        <ele>1322.43</ele>
        <time>2022-05-12T12:38:59Z</time>
      </trkpt>
      <trkpt lat="45.88171" lon="5.76282">
        <ele>1322.43</ele>
        <time>2022-05-12T12:39:15Z</time>
      </trkpt>
      <trkpt lat="45.8817" lon="5.76282">
        <ele>1323.39</ele>
        <time>2022-05-12T12:39:30Z</time>
      </trkpt>
      <trkpt lat="45.88165" lon="5.76295">
        <ele>1322.43</ele>
        <time>2022-05-12T12:39:46Z</time>
      </trkpt>
      <trkpt lat="45.88164" lon="5.76296">
        <ele>1322.43</ele>
        <time>2022-05-12T12:40:01Z</time>
      </trkpt>
      <trkpt lat="45.88162" lon="5.76296">
        <ele>1322.91</ele>
        <time>2022-05-12T12:40:29Z</time>
      </trkpt>
      <trkpt lat="45.88156" lon="5.76297">
        <ele>1321.95</ele>
        <time>2022-05-12T12:40:37Z</time>
      </trkpt>
      <trkpt lat="45.88153" lon="5.76298">
        <ele>1321.95</ele>
        <time>2022-05-12T12:40:40Z</time>
      </trkpt>
      <trkpt lat="45.88152" lon="5.76298">
        <ele>1321.95</ele>
        <time>2022-05-12T12:40:41Z</time>
      </trkpt>
      <trkpt lat="45.88151" lon="5.76298">
        <ele>1321.95</ele>
        <time>2022-05-12T12:40:42Z</time>
      </trkpt>
      <trkpt lat="45.88131" lon="5.76302">
        <ele>1320.51</ele>
        <time>2022-05-12T12:41:00Z</time>
      </trkpt>
      <trkpt lat="45.88129" lon="5.76303">
        <ele>1320.51</ele>
        <time>2022-05-12T12:41:02Z</time>
      </trkpt>
      <trkpt lat="45.88128" lon="5.76304">
        <ele>1320.99</ele>
        <time>2022-05-12T12:41:03Z</time>
      </trkpt>
      <trkpt lat="45.88124" lon="5.76306">
        <ele>1321.47</ele>
        <time>2022-05-12T12:41:06Z</time>
      </trkpt>
      <trkpt lat="45.88123" lon="5.76306">
        <ele>1321.47</ele>
        <time>2022-05-12T12:41:07Z</time>
      </trkpt>
      <trkpt lat="45.88121" lon="5.76306">
        <ele>1321.47</ele>
        <time>2022-05-12T12:41:09Z</time>
      </trkpt>
      <trkpt lat="45.8812" lon="5.76307">
        <ele>1320.99</ele>
        <time>2022-05-12T12:41:10Z</time>
      </trkpt>
      <trkpt lat="45.88119" lon="5.76307">
        <ele>1320.99</ele>
        <time>2022-05-12T12:41:11Z</time>
      </trkpt>
      <trkpt lat="45.88118" lon="5.76308">
        <ele>1320.51</ele>
        <time>2022-05-12T12:41:12Z</time>
      </trkpt>
      <trkpt lat="45.88117" lon="5.76308">
        <ele>1320.51</ele>
        <time>2022-05-12T12:41:13Z</time>
      </trkpt>
      <trkpt lat="45.88116" lon="5.76308">
        <ele>1320.51</ele>
        <time>2022-05-12T12:41:14Z</time>
      </trkpt>
      <trkpt lat="45.88102" lon="5.76307">
        <ele>1318.1</ele>
        <time>2022-05-12T12:41:28Z</time>
      </trkpt>
      <trkpt lat="45.88092" lon="5.76303">
        <ele>1317.62</ele>
        <time>2022-05-12T12:41:39Z</time>
      </trkpt>
      <trkpt lat="45.88091" lon="5.76303">
        <ele>1317.62</ele>
        <time>2022-05-12T12:41:40Z</time>
      </trkpt>
      <trkpt lat="45.88083" lon="5.763">
        <ele>1317.62</ele>
        <time>2022-05-12T12:41:54Z</time>
      </trkpt>
      <trkpt lat="45.88078" lon="5.76294">
        <ele>1316.66</ele>
        <time>2022-05-12T12:42:09Z</time>
      </trkpt>
      <trkpt lat="45.88079" lon="5.76291">
        <ele>1316.66</ele>
        <time>2022-05-12T12:42:29Z</time>
      </trkpt>
      <trkpt lat="45.88077" lon="5.76281">
        <ele>1316.18</ele>
        <time>2022-05-12T12:42:46Z</time>
      </trkpt>
      <trkpt lat="45.88075" lon="5.76278">
        <ele>1313.3</ele>
        <time>2022-05-12T12:43:00Z</time>
      </trkpt>
      <trkpt lat="45.88072" lon="5.76274">
        <ele>1313.3</ele>
        <time>2022-05-12T12:43:05Z</time>
      </trkpt>
      <trkpt lat="45.88056" lon="5.76271">
        <ele>1311.86</ele>
        <time>2022-05-12T12:43:21Z</time>
      </trkpt>
      <trkpt lat="45.88046" lon="5.7627">
        <ele>1310.9</ele>
        <time>2022-05-12T12:43:32Z</time>
      </trkpt>
      <trkpt lat="45.88029" lon="5.76271">
        <ele>1310.41</ele>
        <time>2022-05-12T12:43:48Z</time>
      </trkpt>
      <trkpt lat="45.88015" lon="5.76268">
        <ele>1307.53</ele>
        <time>2022-05-12T12:44:03Z</time>
      </trkpt>
      <trkpt lat="45.87996" lon="5.76259">
        <ele>1306.09</ele>
        <time>2022-05-12T12:44:22Z</time>
      </trkpt>
      <trkpt lat="45.87992" lon="5.76253">
        <ele>1306.57</ele>
        <time>2022-05-12T12:44:27Z</time>
      </trkpt>
      <trkpt lat="45.87971" lon="5.76247">
        <ele>1305.13</ele>
        <time>2022-05-12T12:44:47Z</time>
      </trkpt>
      <trkpt lat="45.87962" lon="5.76248">
        <ele>1303.2</ele>
        <time>2022-05-12T12:44:55Z</time>
      </trkpt>
      <trkpt lat="45.87942" lon="5.76253">
        <ele>1304.65</ele>
        <time>2022-05-12T12:45:13Z</time>
      </trkpt>
      <trkpt lat="45.87924" lon="5.76256">
        <ele>1304.17</ele>
        <time>2022-05-12T12:45:30Z</time>
      </trkpt>
      <trkpt lat="45.87906" lon="5.76259">
        <ele>1304.17</ele>
        <time>2022-05-12T12:45:47Z</time>
      </trkpt>
      <trkpt lat="45.87889" lon="5.76259">
        <ele>1306.57</ele>
        <time>2022-05-12T12:46:04Z</time>
      </trkpt>
      <trkpt lat="45.87874" lon="5.76262">
        <ele>1305.61</ele>
        <time>2022-05-12T12:46:19Z</time>
      </trkpt>
      <trkpt lat="45.87858" lon="5.76269">
        <ele>1306.09</ele>
        <time>2022-05-12T12:46:34Z</time>
      </trkpt>
      <trkpt lat="45.87842" lon="5.76274">
        <ele>1308.49</ele>
        <time>2022-05-12T12:46:50Z</time>
      </trkpt>
      <trkpt lat="45.87829" lon="5.76277">
        <ele>1309.45</ele>
        <time>2022-05-12T12:47:02Z</time>
      </trkpt>
      <trkpt lat="45.87828" lon="5.76276">
        <ele>1309.93</ele>
        <time>2022-05-12T12:47:04Z</time>
      </trkpt>
      <trkpt lat="45.87827" lon="5.76276">
        <ele>1309.93</ele>
        <time>2022-05-12T12:47:05Z</time>
      </trkpt>
      <trkpt lat="45.87826" lon="5.76276">
        <ele>1309.93</ele>
        <time>2022-05-12T12:47:06Z</time>
      </trkpt>
      <trkpt lat="45.87807" lon="5.76282">
        <ele>1310.9</ele>
        <time>2022-05-12T12:47:23Z</time>
      </trkpt>
      <trkpt lat="45.87786" lon="5.76283">
        <ele>1311.38</ele>
        <time>2022-05-12T12:47:43Z</time>
      </trkpt>
      <trkpt lat="45.8778" lon="5.76281">
        <ele>1310.41</ele>
        <time>2022-05-12T12:47:55Z</time>
      </trkpt>
      <trkpt lat="45.87779" lon="5.76281">
        <ele>1310.41</ele>
        <time>2022-05-12T12:47:56Z</time>
      </trkpt>
      <trkpt lat="45.87757" lon="5.76283">
        <ele>1310.41</ele>
        <time>2022-05-12T12:48:16Z</time>
      </trkpt>
      <trkpt lat="45.87741" lon="5.76288">
        <ele>1310.41</ele>
        <time>2022-05-12T12:48:32Z</time>
      </trkpt>
      <trkpt lat="45.87725" lon="5.7629">
        <ele>1309.93</ele>
        <time>2022-05-12T12:48:47Z</time>
      </trkpt>
      <trkpt lat="45.87703" lon="5.76293">
        <ele>1310.9</ele>
        <time>2022-05-12T12:49:06Z</time>
      </trkpt>
      <trkpt lat="45.87683" lon="5.76303">
        <ele>1309.93</ele>
        <time>2022-05-12T12:49:25Z</time>
      </trkpt>
      <trkpt lat="45.87665" lon="5.76323">
        <ele>1308.97</ele>
        <time>2022-05-12T12:49:46Z</time>
      </trkpt>
      <trkpt lat="45.87653" lon="5.76346">
        <ele>1308.97</ele>
        <time>2022-05-12T12:50:04Z</time>
      </trkpt>
      <trkpt lat="45.8764" lon="5.76367">
        <ele>1308.49</ele>
        <time>2022-05-12T12:50:23Z</time>
      </trkpt>
      <trkpt lat="45.87627" lon="5.76393">
        <ele>1310.41</ele>
        <time>2022-05-12T12:50:44Z</time>
      </trkpt>
      <trkpt lat="45.87616" lon="5.76416">
        <ele>1311.38</ele>
        <time>2022-05-12T12:51:03Z</time>
      </trkpt>
      <trkpt lat="45.87604" lon="5.76437">
        <ele>1311.86</ele>
        <time>2022-05-12T12:51:21Z</time>
      </trkpt>
      <trkpt lat="45.87586" lon="5.7645">
        <ele>1312.82</ele>
        <time>2022-05-12T12:51:39Z</time>
      </trkpt>
      <trkpt lat="45.87584" lon="5.76451">
        <ele>1312.82</ele>
        <time>2022-05-12T12:51:41Z</time>
      </trkpt>
      <trkpt lat="45.87583" lon="5.76451">
        <ele>1312.82</ele>
        <time>2022-05-12T12:51:42Z</time>
      </trkpt>
      <trkpt lat="45.87582" lon="5.76451">
        <ele>1312.82</ele>
        <time>2022-05-12T12:51:43Z</time>
      </trkpt>
      <trkpt lat="45.87581" lon="5.76451">
        <ele>1312.82</ele>
        <time>2022-05-12T12:51:44Z</time>
      </trkpt>
      <trkpt lat="45.8758" lon="5.76452">
        <ele>1312.82</ele>
        <time>2022-05-12T12:51:45Z</time>
      </trkpt>
      <trkpt lat="45.87567" lon="5.76455">
        <ele>1311.86</ele>
        <time>2022-05-12T12:52:00Z</time>
      </trkpt>
      <trkpt lat="45.87563" lon="5.76456">
        <ele>1312.82</ele>
        <time>2022-05-12T12:52:09Z</time>
      </trkpt>
      <trkpt lat="45.87562" lon="5.76456">
        <ele>1312.82</ele>
        <time>2022-05-12T12:52:10Z</time>
      </trkpt>
      <trkpt lat="45.87559" lon="5.76458">
        <ele>1312.82</ele>
        <time>2022-05-12T12:52:13Z</time>
      </trkpt>
      <trkpt lat="45.87554" lon="5.76463">
        <ele>1315.7</ele>
        <time>2022-05-12T12:52:19Z</time>
      </trkpt>
      <trkpt lat="45.87533" lon="5.76476">
        <ele>1313.3</ele>
        <time>2022-05-12T12:52:38Z</time>
      </trkpt>
      <trkpt lat="45.8751" lon="5.76486">
        <ele>1311.38</ele>
        <time>2022-05-12T12:52:58Z</time>
      </trkpt>
      <trkpt lat="45.87488" lon="5.76498">
        <ele>1310.41</ele>
        <time>2022-05-12T12:53:19Z</time>
      </trkpt>
      <trkpt lat="45.87471" lon="5.7652">
        <ele>1309.93</ele>
        <time>2022-05-12T12:53:38Z</time>
      </trkpt>
      <trkpt lat="45.87453" lon="5.7653">
        <ele>1309.93</ele>
        <time>2022-05-12T12:53:54Z</time>
      </trkpt>
      <trkpt lat="45.87429" lon="5.76541">
        <ele>1308.97</ele>
        <time>2022-05-12T12:54:15Z</time>
      </trkpt>
      <trkpt lat="45.87407" lon="5.76548">
        <ele>1310.9</ele>
        <time>2022-05-12T12:54:34Z</time>
      </trkpt>
      <trkpt lat="45.87386" lon="5.76556">
        <ele>1310.41</ele>
        <time>2022-05-12T12:54:53Z</time>
      </trkpt>
      <trkpt lat="45.87368" lon="5.76564">
        <ele>1311.86</ele>
        <time>2022-05-12T12:55:10Z</time>
      </trkpt>
      <trkpt lat="45.87344" lon="5.76577">
        <ele>1313.3</ele>
        <time>2022-05-12T12:55:32Z</time>
      </trkpt>
      <trkpt lat="45.87323" lon="5.76589">
        <ele>1314.74</ele>
        <time>2022-05-12T12:55:51Z</time>
      </trkpt>
      <trkpt lat="45.87303" lon="5.76604">
        <ele>1314.74</ele>
        <time>2022-05-12T12:56:10Z</time>
      </trkpt>
      <trkpt lat="45.87281" lon="5.76618">
        <ele>1314.26</ele>
        <time>2022-05-12T12:56:31Z</time>
      </trkpt>
      <trkpt lat="45.87253" lon="5.76635">
        <ele>1312.82</ele>
        <time>2022-05-12T12:56:56Z</time>
      </trkpt>
      <trkpt lat="45.87239" lon="5.76645">
        <ele>1312.82</ele>
        <time>2022-05-12T12:57:10Z</time>
      </trkpt>
      <trkpt lat="45.87239" lon="5.76646">
        <ele>1312.82</ele>
        <time>2022-05-12T12:57:11Z</time>
      </trkpt>
      <trkpt lat="45.87238" lon="5.76647">
        <ele>1312.82</ele>
        <time>2022-05-12T12:57:12Z</time>
      </trkpt>
      <trkpt lat="45.87237" lon="5.76648">
        <ele>1312.82</ele>
        <time>2022-05-12T12:57:13Z</time>
      </trkpt>
      <trkpt lat="45.87236" lon="5.76649">
        <ele>1312.82</ele>
        <time>2022-05-12T12:57:14Z</time>
      </trkpt>
      <trkpt lat="45.8722" lon="5.7666">
        <ele>1313.3</ele>
        <time>2022-05-12T12:57:33Z</time>
      </trkpt>
      <trkpt lat="45.87217" lon="5.76665">
        <ele>1313.78</ele>
        <time>2022-05-12T12:57:48Z</time>
      </trkpt>
      <trkpt lat="45.87217" lon="5.76665">
        <ele>1313.78</ele>
        <time>2022-05-12T12:58:29Z</time>
      </trkpt>
      <trkpt lat="45.87217" lon="5.76665">
        <ele>1313.78</ele>
        <time>2022-05-12T12:59:00Z</time>
      </trkpt>
      <trkpt lat="45.87216" lon="5.76665">
        <ele>1313.78</ele>
        <time>2022-05-12T12:59:24Z</time>
      </trkpt>
      <trkpt lat="45.87216" lon="5.7667">
        <ele>1313.78</ele>
        <time>2022-05-12T12:59:52Z</time>
      </trkpt>
      <trkpt lat="45.87216" lon="5.76673">
        <ele>1313.78</ele>
        <time>2022-05-12T12:59:54Z</time>
      </trkpt>
      <trkpt lat="45.87211" lon="5.76701">
        <ele>1311.86</ele>
        <time>2022-05-12T13:00:12Z</time>
      </trkpt>
      <trkpt lat="45.87212" lon="5.76733">
        <ele>1310.9</ele>
        <time>2022-05-12T13:00:33Z</time>
      </trkpt>
      <trkpt lat="45.87213" lon="5.76758">
        <ele>1310.41</ele>
        <time>2022-05-12T13:00:51Z</time>
      </trkpt>
      <trkpt lat="45.87214" lon="5.76784">
        <ele>1308.97</ele>
        <time>2022-05-12T13:01:10Z</time>
      </trkpt>
      <trkpt lat="45.87212" lon="5.76795">
        <ele>1308.01</ele>
        <time>2022-05-12T13:01:18Z</time>
      </trkpt>
      <trkpt lat="45.87204" lon="5.76813">
        <ele>1305.61</ele>
        <time>2022-05-12T13:01:35Z</time>
      </trkpt>
      <trkpt lat="45.87196" lon="5.76839">
        <ele>1302.24</ele>
        <time>2022-05-12T13:02:02Z</time>
      </trkpt>
      <trkpt lat="45.87208" lon="5.7687">
        <ele>1300.32</ele>
        <time>2022-05-12T13:02:26Z</time>
      </trkpt>
      <trkpt lat="45.8722" lon="5.76896">
        <ele>1297.44</ele>
        <time>2022-05-12T13:02:51Z</time>
      </trkpt>
      <trkpt lat="45.87218" lon="5.76931">
        <ele>1295.03</ele>
        <time>2022-05-12T13:03:17Z</time>
      </trkpt>
      <trkpt lat="45.87217" lon="5.7694">
        <ele>1293.11</ele>
        <time>2022-05-12T13:03:42Z</time>
      </trkpt>
      <trkpt lat="45.87211" lon="5.76943">
        <ele>1292.15</ele>
        <time>2022-05-12T13:04:00Z</time>
      </trkpt>
      <trkpt lat="45.87192" lon="5.76955">
        <ele>1290.23</ele>
        <time>2022-05-12T13:04:22Z</time>
      </trkpt>
      <trkpt lat="45.87175" lon="5.76968">
        <ele>1287.82</ele>
        <time>2022-05-12T13:04:43Z</time>
      </trkpt>
      <trkpt lat="45.87149" lon="5.76979">
        <ele>1286.38</ele>
        <time>2022-05-12T13:05:06Z</time>
      </trkpt>
      <trkpt lat="45.87136" lon="5.76986">
        <ele>1285.9</ele>
        <time>2022-05-12T13:05:17Z</time>
      </trkpt>
      <trkpt lat="45.87117" lon="5.76996">
        <ele>1285.42</ele>
        <time>2022-05-12T13:05:34Z</time>
      </trkpt>
      <trkpt lat="45.87108" lon="5.77004">
        <ele>1283.98</ele>
        <time>2022-05-12T13:05:45Z</time>
      </trkpt>
      <trkpt lat="45.87108" lon="5.77006">
        <ele>1283.98</ele>
        <time>2022-05-12T13:05:46Z</time>
      </trkpt>
      <trkpt lat="45.87108" lon="5.77008">
        <ele>1283.98</ele>
        <time>2022-05-12T13:05:47Z</time>
      </trkpt>
      <trkpt lat="45.87109" lon="5.7701">
        <ele>1283.5</ele>
        <time>2022-05-12T13:05:48Z</time>
      </trkpt>
      <trkpt lat="45.87122" lon="5.77019">
        <ele>1281.09</ele>
        <time>2022-05-12T13:06:06Z</time>
      </trkpt>
      <trkpt lat="45.87142" lon="5.77023">
        <ele>1278.21</ele>
        <time>2022-05-12T13:06:27Z</time>
      </trkpt>
      <trkpt lat="45.87161" lon="5.77035">
        <ele>1275.33</ele>
        <time>2022-05-12T13:06:48Z</time>
      </trkpt>
      <trkpt lat="45.87174" lon="5.77053">
        <ele>1271.96</ele>
        <time>2022-05-12T13:07:08Z</time>
      </trkpt>
      <trkpt lat="45.87159" lon="5.77065">
        <ele>1269.08</ele>
        <time>2022-05-12T13:07:24Z</time>
      </trkpt>
      <trkpt lat="45.8713" lon="5.77077">
        <ele>1266.67</ele>
        <time>2022-05-12T13:07:51Z</time>
      </trkpt>
      <trkpt lat="45.87116" lon="5.77077">
        <ele>1265.71</ele>
        <time>2022-05-12T13:08:03Z</time>
      </trkpt>
      <trkpt lat="45.871" lon="5.77078">
        <ele>1263.79</ele>
        <time>2022-05-12T13:08:18Z</time>
      </trkpt>
      <trkpt lat="45.87096" lon="5.77096">
        <ele>1260.91</ele>
        <time>2022-05-12T13:08:35Z</time>
      </trkpt>
      <trkpt lat="45.87114" lon="5.77107">
        <ele>1258.02</ele>
        <time>2022-05-12T13:08:58Z</time>
      </trkpt>
      <trkpt lat="45.87141" lon="5.7713">
        <ele>1255.14</ele>
        <time>2022-05-12T13:09:23Z</time>
      </trkpt>
      <trkpt lat="45.8714" lon="5.77156">
        <ele>1252.25</ele>
        <time>2022-05-12T13:09:41Z</time>
      </trkpt>
      <trkpt lat="45.87136" lon="5.7717">
        <ele>1248.41</ele>
        <time>2022-05-12T13:09:52Z</time>
      </trkpt>
      <trkpt lat="45.87135" lon="5.77173">
        <ele>1247.93</ele>
        <time>2022-05-12T13:09:54Z</time>
      </trkpt>
      <trkpt lat="45.87128" lon="5.77196">
        <ele>1246.49</ele>
        <time>2022-05-12T13:10:09Z</time>
      </trkpt>
      <trkpt lat="45.87125" lon="5.77218">
        <ele>1243.6</ele>
        <time>2022-05-12T13:10:30Z</time>
      </trkpt>
      <trkpt lat="45.87117" lon="5.7724">
        <ele>1240.24</ele>
        <time>2022-05-12T13:10:50Z</time>
      </trkpt>
      <trkpt lat="45.87111" lon="5.77256">
        <ele>1238.8</ele>
        <time>2022-05-12T13:11:00Z</time>
      </trkpt>
      <trkpt lat="45.8711" lon="5.77258">
        <ele>1238.32</ele>
        <time>2022-05-12T13:11:01Z</time>
      </trkpt>
      <trkpt lat="45.87109" lon="5.7726">
        <ele>1238.32</ele>
        <time>2022-05-12T13:11:02Z</time>
      </trkpt>
      <trkpt lat="45.87098" lon="5.7729">
        <ele>1235.91</ele>
        <time>2022-05-12T13:11:18Z</time>
      </trkpt>
      <trkpt lat="45.87097" lon="5.77294">
        <ele>1234.47</ele>
        <time>2022-05-12T13:11:32Z</time>
      </trkpt>
      <trkpt lat="45.87097" lon="5.77297">
        <ele>1234.47</ele>
        <time>2022-05-12T13:11:39Z</time>
      </trkpt>
      <trkpt lat="45.87096" lon="5.773">
        <ele>1234.47</ele>
        <time>2022-05-12T13:11:41Z</time>
      </trkpt>
      <trkpt lat="45.87096" lon="5.77321">
        <ele>1233.99</ele>
        <time>2022-05-12T13:11:57Z</time>
      </trkpt>
      <trkpt lat="45.87096" lon="5.77326">
        <ele>1233.03</ele>
        <time>2022-05-12T13:12:16Z</time>
      </trkpt>
      <trkpt lat="45.87096" lon="5.77326">
        <ele>1230.62</ele>
        <time>2022-05-12T13:12:32Z</time>
      </trkpt>
      <trkpt lat="45.87098" lon="5.7734">
        <ele>1232.55</ele>
        <time>2022-05-12T13:12:46Z</time>
      </trkpt>
      <trkpt lat="45.87099" lon="5.77344">
        <ele>1232.07</ele>
        <time>2022-05-12T13:12:48Z</time>
      </trkpt>
      <trkpt lat="45.87107" lon="5.77374">
        <ele>1231.59</ele>
        <time>2022-05-12T13:13:08Z</time>
      </trkpt>
      <trkpt lat="45.87108" lon="5.77378">
        <ele>1231.59</ele>
        <time>2022-05-12T13:13:10Z</time>
      </trkpt>
      <trkpt lat="45.87108" lon="5.77379">
        <ele>1231.59</ele>
        <time>2022-05-12T13:13:11Z</time>
      </trkpt>
      <trkpt lat="45.87116" lon="5.77402">
        <ele>1231.59</ele>
        <time>2022-05-12T13:13:28Z</time>
      </trkpt>
      <trkpt lat="45.87121" lon="5.77425">
        <ele>1231.11</ele>
        <time>2022-05-12T13:13:45Z</time>
      </trkpt>
      <trkpt lat="45.87122" lon="5.77428">
        <ele>1231.11</ele>
        <time>2022-05-12T13:13:47Z</time>
      </trkpt>
      <trkpt lat="45.87123" lon="5.77435">
        <ele>1231.11</ele>
        <time>2022-05-12T13:13:59Z</time>
      </trkpt>
      <trkpt lat="45.87123" lon="5.77431">
        <ele>1229.18</ele>
        <time>2022-05-12T13:14:03Z</time>
      </trkpt>
      <trkpt lat="45.87119" lon="5.77414">
        <ele>1230.62</ele>
        <time>2022-05-12T13:14:20Z</time>
      </trkpt>
      <trkpt lat="45.87121" lon="5.77421">
        <ele>1230.14</ele>
        <time>2022-05-12T13:14:37Z</time>
      </trkpt>
      <trkpt lat="45.87123" lon="5.77435">
        <ele>1230.62</ele>
        <time>2022-05-12T13:14:55Z</time>
      </trkpt>
      <trkpt lat="45.87124" lon="5.77435">
        <ele>1231.59</ele>
        <time>2022-05-12T13:15:16Z</time>
      </trkpt>
      <trkpt lat="45.87121" lon="5.77422">
        <ele>1231.59</ele>
        <time>2022-05-12T13:15:28Z</time>
      </trkpt>
      <trkpt lat="45.8712" lon="5.7742">
        <ele>1231.59</ele>
        <time>2022-05-12T13:15:29Z</time>
      </trkpt>
      <trkpt lat="45.87118" lon="5.77412">
        <ele>1231.11</ele>
        <time>2022-05-12T13:15:48Z</time>
      </trkpt>
      <trkpt lat="45.87118" lon="5.77412">
        <ele>1230.62</ele>
        <time>2022-05-12T13:16:06Z</time>
      </trkpt>
      <trkpt lat="45.87113" lon="5.7741">
        <ele>1230.62</ele>
        <time>2022-05-12T13:16:23Z</time>
      </trkpt>
      <trkpt lat="45.87108" lon="5.77407">
        <ele>1230.14</ele>
        <time>2022-05-12T13:16:30Z</time>
      </trkpt>
      <trkpt lat="45.87107" lon="5.77406">
        <ele>1230.14</ele>
        <time>2022-05-12T13:16:31Z</time>
      </trkpt>
      <trkpt lat="45.87099" lon="5.77395">
        <ele>1229.66</ele>
        <time>2022-05-12T13:16:46Z</time>
      </trkpt>
      <trkpt lat="45.87085" lon="5.7738">
        <ele>1229.18</ele>
        <time>2022-05-12T13:17:01Z</time>
      </trkpt>
      <trkpt lat="45.87078" lon="5.77376">
        <ele>1229.18</ele>
        <time>2022-05-12T13:17:06Z</time>
      </trkpt>
      <trkpt lat="45.87057" lon="5.77373">
        <ele>1227.74</ele>
        <time>2022-05-12T13:17:24Z</time>
      </trkpt>
      <trkpt lat="45.87028" lon="5.77367">
        <ele>1225.82</ele>
        <time>2022-05-12T13:17:49Z</time>
      </trkpt>
      <trkpt lat="45.87012" lon="5.77357">
        <ele>1226.3</ele>
        <time>2022-05-12T13:18:04Z</time>
      </trkpt>
      <trkpt lat="45.8701" lon="5.77357">
        <ele>1226.3</ele>
        <time>2022-05-12T13:18:05Z</time>
      </trkpt>
      <trkpt lat="45.86991" lon="5.7735">
        <ele>1225.34</ele>
        <time>2022-05-12T13:18:22Z</time>
      </trkpt>
      <trkpt lat="45.86972" lon="5.77345">
        <ele>1224.86</ele>
        <time>2022-05-12T13:18:41Z</time>
      </trkpt>
      <trkpt lat="45.86946" lon="5.77346">
        <ele>1222.93</ele>
        <time>2022-05-12T13:19:07Z</time>
      </trkpt>
      <trkpt lat="45.86921" lon="5.77335">
        <ele>1219.57</ele>
        <time>2022-05-12T13:19:31Z</time>
      </trkpt>
      <trkpt lat="45.86894" lon="5.77319">
        <ele>1217.17</ele>
        <time>2022-05-12T13:19:56Z</time>
      </trkpt>
      <trkpt lat="45.86873" lon="5.77306">
        <ele>1213.8</ele>
        <time>2022-05-12T13:20:13Z</time>
      </trkpt>
      <trkpt lat="45.86849" lon="5.77311">
        <ele>1213.8</ele>
        <time>2022-05-12T13:20:36Z</time>
      </trkpt>
      <trkpt lat="45.86823" lon="5.7731">
        <ele>1212.36</ele>
        <time>2022-05-12T13:21:00Z</time>
      </trkpt>
      <trkpt lat="45.86797" lon="5.77303">
        <ele>1210.92</ele>
        <time>2022-05-12T13:21:23Z</time>
      </trkpt>
      <trkpt lat="45.86767" lon="5.77296">
        <ele>1208.03</ele>
        <time>2022-05-12T13:21:50Z</time>
      </trkpt>
      <trkpt lat="45.86731" lon="5.77293">
        <ele>1206.11</ele>
        <time>2022-05-12T13:22:15Z</time>
      </trkpt>
      <trkpt lat="45.86708" lon="5.77301">
        <ele>1204.19</ele>
        <time>2022-05-12T13:22:37Z</time>
      </trkpt>
      <trkpt lat="45.86694" lon="5.77307">
        <ele>1203.23</ele>
        <time>2022-05-12T13:22:51Z</time>
      </trkpt>
      <trkpt lat="45.86678" lon="5.7732">
        <ele>1199.86</ele>
        <time>2022-05-12T13:23:11Z</time>
      </trkpt>
      <trkpt lat="45.86664" lon="5.77333">
        <ele>1196.98</ele>
        <time>2022-05-12T13:23:29Z</time>
      </trkpt>
      <trkpt lat="45.86661" lon="5.77341">
        <ele>1196.02</ele>
        <time>2022-05-12T13:23:36Z</time>
      </trkpt>
      <trkpt lat="45.86661" lon="5.77343">
        <ele>1196.02</ele>
        <time>2022-05-12T13:23:37Z</time>
      </trkpt>
      <trkpt lat="45.86648" lon="5.77385">
        <ele>1193.13</ele>
        <time>2022-05-12T13:24:03Z</time>
      </trkpt>
      <trkpt lat="45.86642" lon="5.77418">
        <ele>1189.77</ele>
        <time>2022-05-12T13:24:23Z</time>
      </trkpt>
      <trkpt lat="45.86635" lon="5.77434">
        <ele>1188.81</ele>
        <time>2022-05-12T13:24:32Z</time>
      </trkpt>
      <trkpt lat="45.86625" lon="5.77451">
        <ele>1187.37</ele>
        <time>2022-05-12T13:24:54Z</time>
      </trkpt>
      <trkpt lat="45.86616" lon="5.77465">
        <ele>1186.88</ele>
        <time>2022-05-12T13:25:09Z</time>
      </trkpt>
      <trkpt lat="45.86615" lon="5.77466">
        <ele>1186.88</ele>
        <time>2022-05-12T13:25:10Z</time>
      </trkpt>
      <trkpt lat="45.86614" lon="5.77466">
        <ele>1185.92</ele>
        <time>2022-05-12T13:25:38Z</time>
      </trkpt>
      <trkpt lat="45.86613" lon="5.77467">
        <ele>1186.4</ele>
        <time>2022-05-12T13:26:05Z</time>
      </trkpt>
      <trkpt lat="45.86612" lon="5.77468">
        <ele>1186.88</ele>
        <time>2022-05-12T13:26:27Z</time>
      </trkpt>
      <trkpt lat="45.86612" lon="5.77468">
        <ele>1186.88</ele>
        <time>2022-05-12T13:26:55Z</time>
      </trkpt>
      <trkpt lat="45.86612" lon="5.77468">
        <ele>1186.4</ele>
        <time>2022-05-12T13:27:21Z</time>
      </trkpt>
      <trkpt lat="45.86608" lon="5.77468">
        <ele>1186.4</ele>
        <time>2022-05-12T13:27:42Z</time>
      </trkpt>
      <trkpt lat="45.86603" lon="5.77469">
        <ele>1186.4</ele>
        <time>2022-05-12T13:27:47Z</time>
      </trkpt>
      <trkpt lat="45.86581" lon="5.77469">
        <ele>1186.4</ele>
        <time>2022-05-12T13:28:09Z</time>
      </trkpt>
      <trkpt lat="45.86577" lon="5.77467">
        <ele>1185.92</ele>
        <time>2022-05-12T13:28:13Z</time>
      </trkpt>
      <trkpt lat="45.86561" lon="5.77455">
        <ele>1184.48</ele>
        <time>2022-05-12T13:28:30Z</time>
      </trkpt>
      <trkpt lat="45.86556" lon="5.77439">
        <ele>1184</ele>
        <time>2022-05-12T13:28:46Z</time>
      </trkpt>
      <trkpt lat="45.86538" lon="5.77431">
        <ele>1183.04</ele>
        <time>2022-05-12T13:29:09Z</time>
      </trkpt>
      <trkpt lat="45.86521" lon="5.77427">
        <ele>1181.6</ele>
        <time>2022-05-12T13:29:31Z</time>
      </trkpt>
      <trkpt lat="45.86508" lon="5.77427">
        <ele>1179.19</ele>
        <time>2022-05-12T13:29:48Z</time>
      </trkpt>
      <trkpt lat="45.865" lon="5.77437">
        <ele>1177.27</ele>
        <time>2022-05-12T13:30:03Z</time>
      </trkpt>
      <trkpt lat="45.86498" lon="5.77429">
        <ele>1175.83</ele>
        <time>2022-05-12T13:30:21Z</time>
      </trkpt>
      <trkpt lat="45.86499" lon="5.77429">
        <ele>1176.79</ele>
        <time>2022-05-12T13:30:41Z</time>
      </trkpt>
      <trkpt lat="45.86494" lon="5.77429">
        <ele>1175.35</ele>
        <time>2022-05-12T13:31:09Z</time>
      </trkpt>
      <trkpt lat="45.86489" lon="5.77432">
        <ele>1174.87</ele>
        <time>2022-05-12T13:31:14Z</time>
      </trkpt>
      <trkpt lat="45.86488" lon="5.77441">
        <ele>1173.43</ele>
        <time>2022-05-12T13:31:29Z</time>
      </trkpt>
      <trkpt lat="45.86487" lon="5.7744">
        <ele>1171.5</ele>
        <time>2022-05-12T13:31:54Z</time>
      </trkpt>
      <trkpt lat="45.86487" lon="5.7744">
        <ele>1171.02</ele>
        <time>2022-05-12T13:32:24Z</time>
      </trkpt>
      <trkpt lat="45.86487" lon="5.77439">
        <ele>1170.06</ele>
        <time>2022-05-12T13:32:59Z</time>
      </trkpt>
      <trkpt lat="45.86487" lon="5.77438">
        <ele>1171.02</ele>
        <time>2022-05-12T13:33:29Z</time>
      </trkpt>
      <trkpt lat="45.86487" lon="5.77438">
        <ele>1171.98</ele>
        <time>2022-05-12T13:33:53Z</time>
      </trkpt>
      <trkpt lat="45.86487" lon="5.77438">
        <ele>1173.43</ele>
        <time>2022-05-12T13:34:09Z</time>
      </trkpt>
      <trkpt lat="45.86487" lon="5.77438">
        <ele>1172.95</ele>
        <time>2022-05-12T13:34:33Z</time>
      </trkpt>
      <trkpt lat="45.86486" lon="5.77438">
        <ele>1171.98</ele>
        <time>2022-05-12T13:34:53Z</time>
      </trkpt>
      <trkpt lat="45.86486" lon="5.77437">
        <ele>1171.5</ele>
        <time>2022-05-12T13:35:22Z</time>
      </trkpt>
      <trkpt lat="45.86486" lon="5.77437">
        <ele>1173.43</ele>
        <time>2022-05-12T13:35:59Z</time>
      </trkpt>
      <trkpt lat="45.86488" lon="5.77441">
        <ele>1174.39</ele>
        <time>2022-05-12T13:36:26Z</time>
      </trkpt>
      <trkpt lat="45.86489" lon="5.77442">
        <ele>1174.39</ele>
        <time>2022-05-12T13:36:43Z</time>
      </trkpt>
      <trkpt lat="45.86497" lon="5.77437">
        <ele>1175.83</ele>
        <time>2022-05-12T13:37:03Z</time>
      </trkpt>
      <trkpt lat="45.86511" lon="5.77445">
        <ele>1179.19</ele>
        <time>2022-05-12T13:37:25Z</time>
      </trkpt>
      <trkpt lat="45.86526" lon="5.77452">
        <ele>1182.08</ele>
        <time>2022-05-12T13:37:49Z</time>
      </trkpt>
      <trkpt lat="45.86529" lon="5.77452">
        <ele>1183.04</ele>
        <time>2022-05-12T13:38:08Z</time>
      </trkpt>
      <trkpt lat="45.86529" lon="5.77451">
        <ele>1183.52</ele>
        <time>2022-05-12T13:38:44Z</time>
      </trkpt>
      <trkpt lat="45.86529" lon="5.77451">
        <ele>1184</ele>
        <time>2022-05-12T13:39:10Z</time>
      </trkpt>
      <trkpt lat="45.86529" lon="5.77451">
        <ele>1180.16</ele>
        <time>2022-05-12T13:39:23Z</time>
      </trkpt>
      <trkpt lat="45.86529" lon="5.77451">
        <ele>1179.19</ele>
        <time>2022-05-12T13:39:25Z</time>
      </trkpt>
      <trkpt lat="45.86529" lon="5.77451">
        <ele>1180.64</ele>
        <time>2022-05-12T13:39:27Z</time>
      </trkpt>
    </trkseg>
  </trk>
</gpx>